Wetterdaten: Dienstag, 31.05.2016
Datum Zeit Temp. A. Feuchte A. Luftdruck Regen Wind Richtung Richtung Sonnenschein ET UV Solar Taupunkt Windchill Windben Empfang
31.05.2016 00:00 14,3 C 94 % 1008,4 hPa 0,2 l/m 12,5 km/h (3 Bft) W-SW 239 0 min 0,000 mm 0,0 UV-I 0 W/m 13,3 C 11,3 C 16,1 km/h (3 Bft) 100,00 %
31.05.2016 00:02 14,3 C 94 % 1008,4 hPa 0,0 l/m 10,5 km/h (2 Bft) S-SW 192 0 min 0,000 mm 0,0 UV-I 0 W/m 13,3 C 12,1 C 17,7 km/h (3 Bft) 97,37 %
31.05.2016 00:03 14,3 C 94 % 1008,4 hPa 0,0 l/m 11,8 km/h (2 Bft) SW 236 0 min 0,000 mm 0,0 UV-I 0 W/m 13,3 C 11,5 C 19,3 km/h (3 Bft) 96,15 %
31.05.2016 00:04 14,3 C 94 % 1008,4 hPa 0,0 l/m 11,9 km/h (2 Bft) SW 229 0 min 0,000 mm 0,0 UV-I 0 W/m 13,3 C 11,5 C 19,3 km/h (3 Bft) 100,00 %
31.05.2016 00:05 14,3 C 94 % 1008,4 hPa 0,0 l/m 11,3 km/h (2 Bft) SW 223 0 min 0,000 mm 0,0 UV-I 0 W/m 13,3 C 11,8 C 14,5 km/h (3 Bft) 100,00 %
31.05.2016 00:06 14,3 C 94 % 1008,5 hPa 0,0 l/m 13,0 km/h (3 Bft) SW 227 0 min 0,000 mm 0,0 UV-I 0 W/m 13,3 C 11,1 C 16,1 km/h (3 Bft) 100,00 %
31.05.2016 00:07 14,3 C 94 % 1008,4 hPa 0,2 l/m 10,7 km/h (2 Bft) S-SW 205 0 min 0,000 mm 0,0 UV-I 0 W/m 13,3 C 12,0 C 16,1 km/h (3 Bft) 100,00 %
31.05.2016 00:08 14,2 C 94 % 1008,5 hPa 0,0 l/m 10,5 km/h (2 Bft) S-SW 194 0 min 0,000 mm 0,0 UV-I 0 W/m 13,2 C 12,0 C 16,1 km/h (3 Bft) 100,00 %
31.05.2016 00:09 14,2 C 94 % 1008,4 hPa 0,2 l/m 9,5 km/h (2 Bft) SW 234 0 min 0,000 mm 0,0 UV-I 0 W/m 13,2 C 12,5 C 14,5 km/h (3 Bft) 100,00 %
31.05.2016 00:10 14,2 C 94 % 1008,5 hPa 0,0 l/m 10,3 km/h (2 Bft) SW 217 0 min 0,000 mm 0,0 UV-I 0 W/m 13,2 C 12,1 C 14,5 km/h (3 Bft) 90,91 %
31.05.2016 00:11 14,2 C 94 % 1008,5 hPa 0,2 l/m 13,6 km/h (3 Bft) SW 219 0 min 0,000 mm 0,0 UV-I 0 W/m 13,2 C 10,7 C 17,7 km/h (3 Bft) 100,00 %
31.05.2016 00:12 14,2 C 94 % 1008,4 hPa 0,0 l/m 14,5 km/h (3 Bft) W-SW 243 0 min 0,000 mm 0,0 UV-I 0 W/m 13,2 C 10,4 C 19,3 km/h (3 Bft) 100,00 %
31.05.2016 00:13 14,2 C 94 % 1008,4 hPa 0,0 l/m 13,5 km/h (3 Bft) W 259 0 min 0,000 mm 0,0 UV-I 0 W/m 13,2 C 10,8 C 19,3 km/h (3 Bft) 100,00 %
31.05.2016 00:14 14,2 C 94 % 1008,3 hPa 0,0 l/m 13,8 km/h (3 Bft) W-SW 238 0 min 0,000 mm 0,0 UV-I 0 W/m 13,2 C 10,6 C 19,3 km/h (3 Bft) 100,00 %
31.05.2016 00:15 14,2 C 94 % 1008,4 hPa 0,2 l/m 11,3 km/h (2 Bft) SW 232 0 min 0,000 mm 0,0 UV-I 0 W/m 13,2 C 11,6 C 17,7 km/h (3 Bft) 100,00 %
31.05.2016 00:16 14,1 C 94 % 1008,4 hPa 0,0 l/m 10,8 km/h (2 Bft) SW 215 0 min 0,000 mm 0,0 UV-I 0 W/m 13,1 C 11,8 C 16,1 km/h (3 Bft) 95,65 %
31.05.2016 00:17 14,1 C 94 % 1008,4 hPa 0,2 l/m 11,1 km/h (2 Bft) S-SW 207 0 min 0,000 mm 0,0 UV-I 0 W/m 13,1 C 11,6 C 14,5 km/h (3 Bft) 100,00 %
31.05.2016 00:18 14,1 C 94 % 1008,4 hPa 0,0 l/m 10,9 km/h (2 Bft) SW 231 0 min 0,000 mm 0,0 UV-I 0 W/m 13,1 C 11,7 C 14,5 km/h (3 Bft) 100,00 %
31.05.2016 00:19 14,1 C 94 % 1008,5 hPa 0,0 l/m 12,8 km/h (3 Bft) S-SW 194 0 min 0,000 mm 0,0 UV-I 0 W/m 13,1 C 10,9 C 19,3 km/h (3 Bft) 100,00 %
31.05.2016 00:20 14,1 C 94 % 1008,5 hPa 0,0 l/m 10,9 km/h (2 Bft) SW 223 0 min 0,000 mm 0,0 UV-I 0 W/m 13,1 C 11,7 C 14,5 km/h (3 Bft) 96,15 %
31.05.2016 00:21 14,1 C 94 % 1008,4 hPa 0,2 l/m 12,1 km/h (2 Bft) S-SW 203 0 min 0,000 mm 0,0 UV-I 0 W/m 13,1 C 11,2 C 17,7 km/h (3 Bft) 100,00 %
31.05.2016 00:22 14,1 C 94 % 1008,4 hPa 0,0 l/m 10,1 km/h (2 Bft) W-SW 252 0 min 0,000 mm 0,0 UV-I 0 W/m 13,1 C 12,1 C 16,1 km/h (3 Bft) 100,00 %
31.05.2016 00:23 14,1 C 94 % 1008,5 hPa 0,0 l/m 11,9 km/h (2 Bft) S-SW 213 0 min 0,000 mm 0,0 UV-I 0 W/m 13,1 C 11,3 C 16,1 km/h (3 Bft) 96,30 %
31.05.2016 00:24 14,1 C 94 % 1008,5 hPa 0,2 l/m 11,4 km/h (2 Bft) S-SW 213 0 min 0,000 mm 0,0 UV-I 0 W/m 13,1 C 11,5 C 14,5 km/h (3 Bft) 100,00 %
31.05.2016 00:25 14,1 C 94 % 1008,5 hPa 0,0 l/m 9,6 km/h (2 Bft) SW 232 0 min 0,000 mm 0,0 UV-I 0 W/m 13,1 C 12,3 C 14,5 km/h (3 Bft) 100,00 %
31.05.2016 00:26 14,0 C 94 % 1008,5 hPa 0,0 l/m 10,0 km/h (2 Bft) S-SW 209 0 min 0,000 mm 0,0 UV-I 0 W/m 13,0 C 12,0 C 16,1 km/h (3 Bft) 100,00 %
31.05.2016 00:27 14,0 C 94 % 1008,5 hPa 0,2 l/m 11,8 km/h (2 Bft) SW 229 0 min 0,000 mm 0,0 UV-I 0 W/m 13,0 C 11,2 C 17,7 km/h (3 Bft) 100,00 %
31.05.2016 00:28 14,0 C 93 % 1008,5 hPa 0,0 l/m 13,9 km/h (3 Bft) W-SW 241 0 min 0,000 mm 0,0 UV-I 0 W/m 12,9 C 10,4 C 20,9 km/h (4 Bft) 95,83 %
31.05.2016 00:29 14,0 C 93 % 1008,5 hPa 0,0 l/m 13,9 km/h (3 Bft) W-SW 249 0 min 0,000 mm 0,0 UV-I 0 W/m 12,9 C 10,4 C 16,1 km/h (3 Bft) 96,15 %
31.05.2016 00:30 14,0 C 93 % 1008,5 hPa 0,0 l/m 10,1 km/h (2 Bft) S 186 0 min 0,000 mm 0,0 UV-I 0 W/m 12,9 C 12,0 C 17,7 km/h (3 Bft) 100,00 %
31.05.2016 00:31 14,0 C 93 % 1008,5 hPa 0,2 l/m 11,4 km/h (2 Bft) S-SW 200 0 min 0,000 mm 0,0 UV-I 0 W/m 12,9 C 11,4 C 14,5 km/h (3 Bft) 96,15 %
31.05.2016 00:32 13,9 C 93 % 1008,5 hPa 0,0 l/m 12,1 km/h (2 Bft) SW 229 0 min 0,000 mm 0,0 UV-I 0 W/m 12,8 C 11,0 C 19,3 km/h (3 Bft) 100,00 %
31.05.2016 00:33 13,9 C 93 % 1008,5 hPa 0,0 l/m 10,2 km/h (2 Bft) SW 232 0 min 0,000 mm 0,0 UV-I 0 W/m 12,8 C 11,8 C 14,5 km/h (3 Bft) 100,00 %
31.05.2016 00:34 13,9 C 93 % 1008,5 hPa 0,2 l/m 13,7 km/h (3 Bft) SW 232 0 min 0,000 mm 0,0 UV-I 0 W/m 12,8 C 10,3 C 19,3 km/h (3 Bft) 100,00 %
31.05.2016 00:35 13,9 C 93 % 1008,6 hPa 0,0 l/m 10,1 km/h (2 Bft) W 266 0 min 0,000 mm 0,0 UV-I 0 W/m 12,8 C 11,9 C 12,9 km/h (3 Bft) 92,86 %
31.05.2016 00:36 13,9 C 93 % 1008,5 hPa 0,0 l/m 10,3 km/h (2 Bft) W-SW 240 0 min 0,000 mm 0,0 UV-I 0 W/m 12,8 C 11,8 C 16,1 km/h (3 Bft) 100,00 %
31.05.2016 00:37 13,9 C 93 % 1008,6 hPa 0,2 l/m 8,6 km/h (2 Bft) W-SW 238 0 min 0,000 mm 0,0 UV-I 0 W/m 12,8 C 12,6 C 12,9 km/h (3 Bft) 96,15 %
31.05.2016 00:38 13,9 C 93 % 1008,6 hPa 0,0 l/m 12,1 km/h (2 Bft) SW 236 0 min 0,000 mm 0,0 UV-I 0 W/m 12,8 C 11,0 C 17,7 km/h (3 Bft) 100,00 %
31.05.2016 00:39 13,9 C 93 % 1008,6 hPa 0,0 l/m 9,3 km/h (2 Bft) SW 236 0 min 0,000 mm 0,0 UV-I 0 W/m 12,8 C 12,2 C 16,1 km/h (3 Bft) 100,00 %
31.05.2016 00:40 13,9 C 94 % 1008,6 hPa 0,2 l/m 11,3 km/h (2 Bft) S-SW 207 0 min 0,000 mm 0,0 UV-I 0 W/m 12,9 C 11,3 C 14,5 km/h (3 Bft) 100,00 %
31.05.2016 00:41 13,8 C 94 % 1008,6 hPa 0,0 l/m 9,9 km/h (2 Bft) W-SW 239 0 min 0,000 mm 0,0 UV-I 0 W/m 12,9 C 11,8 C 12,9 km/h (3 Bft) 100,00 %
31.05.2016 00:42 13,8 C 94 % 1008,5 hPa 0,2 l/m 7,9 km/h (2 Bft) S-SW 197 0 min 0,000 mm 0,0 UV-I 0 W/m 12,9 C 12,9 C 12,9 km/h (3 Bft) 96,15 %
31.05.2016 00:43 13,8 C 94 % 1008,5 hPa 0,0 l/m 10,4 km/h (2 Bft) W-SW 238 0 min 0,000 mm 0,0 UV-I 0 W/m 12,9 C 11,6 C 16,1 km/h (3 Bft) 100,00 %
31.05.2016 00:44 13,8 C 94 % 1008,5 hPa 0,0 l/m 8,2 km/h (2 Bft) W-SW 243 0 min 0,000 mm 0,0 UV-I 0 W/m 12,9 C 12,7 C 12,9 km/h (3 Bft) 96,30 %
31.05.2016 00:45 13,8 C 94 % 1008,5 hPa 0,0 l/m 7,8 km/h (2 Bft) W-SW 248 0 min 0,000 mm 0,0 UV-I 0 W/m 12,9 C 13,0 C 12,9 km/h (3 Bft) 100,00 %
31.05.2016 00:46 13,8 C 94 % 1008,5 hPa 0,2 l/m 10,2 km/h (2 Bft) W-SW 244 0 min 0,000 mm 0,0 UV-I 0 W/m 12,9 C 11,7 C 14,5 km/h (3 Bft) 100,00 %
31.05.2016 00:47 13,8 C 94 % 1008,5 hPa 0,0 l/m 7,2 km/h (2 Bft) S-SW 208 0 min 0,000 mm 0,0 UV-I 0 W/m 12,9 C 13,3 C 11,3 km/h (2 Bft) 96,15 %
31.05.2016 00:48 13,8 C 94 % 1008,5 hPa 0,2 l/m 12,7 km/h (3 Bft) W 259 0 min 0,000 mm 0,0 UV-I 0 W/m 12,9 C 10,6 C 17,7 km/h (3 Bft) 100,00 %
31.05.2016 00:49 13,8 C 94 % 1008,5 hPa 0,0 l/m 11,0 km/h (2 Bft) SW 236 0 min 0,000 mm 0,0 UV-I 0 W/m 12,9 C 11,3 C 16,1 km/h (3 Bft) 96,67 %
31.05.2016 00:50 13,8 C 94 % 1008,5 hPa 0,0 l/m 11,0 km/h (2 Bft) W-SW 248 0 min 0,000 mm 0,0 UV-I 0 W/m 12,9 C 11,3 C 16,1 km/h (3 Bft) 96,55 %
31.05.2016 00:51 13,8 C 94 % 1008,5 hPa 0,0 l/m 9,7 km/h (2 Bft) S-SW 209 0 min 0,000 mm 0,0 UV-I 0 W/m 12,9 C 11,9 C 14,5 km/h (3 Bft) 93,33 %
31.05.2016 00:52 13,8 C 94 % 1008,5 hPa 0,2 l/m 8,1 km/h (2 Bft) S-SW 192 0 min 0,000 mm 0,0 UV-I 0 W/m 12,9 C 12,8 C 11,3 km/h (2 Bft) 96,55 %
31.05.2016 00:53 13,8 C 94 % 1008,5 hPa 0,0 l/m 10,6 km/h (2 Bft) S 188 0 min 0,000 mm 0,0 UV-I 0 W/m 12,9 C 11,5 C 12,9 km/h (3 Bft) 100,00 %
31.05.2016 00:54 13,7 C 94 % 1008,5 hPa 0,2 l/m 8,8 km/h (2 Bft) W-SW 241 0 min 0,000 mm 0,0 UV-I 0 W/m 12,8 C 12,3 C 14,5 km/h (3 Bft) 78,57 %
31.05.2016 00:55 13,8 C 94 % 1008,5 hPa 0,0 l/m 9,7 km/h (2 Bft) SW 235 0 min 0,000 mm 0,0 UV-I 0 W/m 12,9 C 11,9 C 16,1 km/h (3 Bft) 100,00 %
31.05.2016 00:56 13,7 C 94 % 1008,5 hPa 0,0 l/m 9,8 km/h (2 Bft) SW 223 0 min 0,000 mm 0,0 UV-I 0 W/m 12,8 C 11,8 C 14,5 km/h (3 Bft) 96,15 %
31.05.2016 00:57 13,7 C 94 % 1008,5 hPa 0,2 l/m 8,4 km/h (2 Bft) S-SW 211 0 min 0,000 mm 0,0 UV-I 0 W/m 12,8 C 12,5 C 14,5 km/h (3 Bft) 100,00 %
31.05.2016 00:58 13,7 C 94 % 1008,5 hPa 0,0 l/m 8,0 km/h (2 Bft) W-SW 240 0 min 0,000 mm 0,0 UV-I 0 W/m 12,8 C 12,7 C 11,3 km/h (2 Bft) 91,30 %
31.05.2016 00:59 13,7 C 94 % 1008,5 hPa 0,2 l/m 10,3 km/h (2 Bft) S 184 0 min 0,000 mm 0,0 UV-I 0 W/m 12,8 C 11,5 C 14,5 km/h (3 Bft) 95,83 %
31.05.2016 01:00 13,7 C 94 % 1008,5 hPa 0,0 l/m 8,3 km/h (2 Bft) S 186 0 min 0,000 mm 0,0 UV-I 0 W/m 12,8 C 12,6 C 14,5 km/h (3 Bft) 96,15 %
31.05.2016 01:02 13,7 C 94 % 1008,6 hPa 0,2 l/m 10,5 km/h (2 Bft) S-SW 199 0 min 0,000 mm 0,0 UV-I 0 W/m 12,8 C 11,4 C 17,7 km/h (3 Bft) 97,22 %
31.05.2016 01:03 13,7 C 94 % 1008,6 hPa 0,0 l/m 10,4 km/h (2 Bft) S-SW 208 0 min 0,000 mm 0,0 UV-I 0 W/m 12,8 C 11,5 C 16,1 km/h (3 Bft) 96,55 %
31.05.2016 01:04 13,7 C 94 % 1008,6 hPa 0,2 l/m 10,5 km/h (2 Bft) SW 219 0 min 0,000 mm 0,0 UV-I 0 W/m 12,8 C 11,4 C 16,1 km/h (3 Bft) 96,15 %
31.05.2016 01:05 13,7 C 94 % 1008,6 hPa 0,0 l/m 8,6 km/h (2 Bft) S-SW 198 0 min 0,000 mm 0,0 UV-I 0 W/m 12,8 C 12,4 C 12,9 km/h (3 Bft) 93,33 %
31.05.2016 01:06 13,7 C 94 % 1008,6 hPa 0,0 l/m 8,5 km/h (2 Bft) S-SW 208 0 min 0,000 mm 0,0 UV-I 0 W/m 12,8 C 12,5 C 11,3 km/h (2 Bft) 100,00 %
31.05.2016 01:07 13,7 C 94 % 1008,6 hPa 0,2 l/m 9,1 km/h (2 Bft) S 171 0 min 0,000 mm 0,0 UV-I 0 W/m 12,8 C 12,1 C 14,5 km/h (3 Bft) 96,15 %
31.05.2016 01:08 13,7 C 94 % 1008,6 hPa 0,0 l/m 10,1 km/h (2 Bft) S 189 0 min 0,000 mm 0,0 UV-I 0 W/m 12,8 C 11,6 C 14,5 km/h (3 Bft) 100,00 %
31.05.2016 01:09 13,7 C 94 % 1008,6 hPa 0,2 l/m 8,9 km/h (2 Bft) S 174 0 min 0,000 mm 0,0 UV-I 0 W/m 12,8 C 12,2 C 11,3 km/h (2 Bft) 92,86 %
31.05.2016 01:10 13,7 C 94 % 1008,5 hPa 0,0 l/m 11,5 km/h (2 Bft) S 188 0 min 0,000 mm 0,0 UV-I 0 W/m 12,8 C 11,0 C 17,7 km/h (3 Bft) 100,00 %
31.05.2016 01:11 13,6 C 94 % 1008,6 hPa 0,2 l/m 10,8 km/h (2 Bft) S-SW 202 0 min 0,000 mm 0,0 UV-I 0 W/m 12,7 C 11,2 C 14,5 km/h (3 Bft) 92,31 %
31.05.2016 01:12 13,6 C 94 % 1008,6 hPa 0,0 l/m 9,1 km/h (2 Bft) S-SW 209 0 min 0,000 mm 0,0 UV-I 0 W/m 12,7 C 12,0 C 12,9 km/h (3 Bft) 96,30 %
31.05.2016 01:13 13,6 C 94 % 1008,6 hPa 0,2 l/m 10,9 km/h (2 Bft) W-SW 242 0 min 0,000 mm 0,0 UV-I 0 W/m 12,7 C 11,1 C 16,1 km/h (3 Bft) 100,00 %
31.05.2016 01:14 13,6 C 94 % 1008,6 hPa 0,0 l/m 9,1 km/h (2 Bft) W-SW 242 0 min 0,000 mm 0,0 UV-I 0 W/m 12,7 C 12,0 C 12,9 km/h (3 Bft) 95,83 %
31.05.2016 01:15 13,6 C 94 % 1008,6 hPa 0,0 l/m 7,5 km/h (2 Bft) S 169 0 min 0,000 mm 0,0 UV-I 0 W/m 12,7 C 12,9 C 12,9 km/h (3 Bft) 100,00 %
31.05.2016 01:16 13,6 C 94 % 1008,6 hPa 0,2 l/m 8,3 km/h (2 Bft) S-SW 211 0 min 0,000 mm 0,0 UV-I 0 W/m 12,7 C 12,5 C 11,3 km/h (2 Bft) 95,83 %
31.05.2016 01:17 13,6 C 94 % 1008,6 hPa 0,0 l/m 10,2 km/h (2 Bft) S-SW 213 0 min 0,000 mm 0,0 UV-I 0 W/m 12,7 C 11,5 C 12,9 km/h (3 Bft) 100,00 %
31.05.2016 01:18 13,6 C 94 % 1008,6 hPa 0,0 l/m 9,3 km/h (2 Bft) SW 229 0 min 0,000 mm 0,0 UV-I 0 W/m 12,7 C 11,9 C 12,9 km/h (3 Bft) 91,67 %
31.05.2016 01:19 13,5 C 94 % 1008,6 hPa 0,2 l/m 10,4 km/h (2 Bft) S 175 0 min 0,000 mm 0,0 UV-I 0 W/m 12,6 C 11,3 C 14,5 km/h (3 Bft) 97,37 %
31.05.2016 01:20 13,5 C 94 % 1008,6 hPa 0,0 l/m 8,3 km/h (2 Bft) S-SW 209 0 min 0,000 mm 0,0 UV-I 0 W/m 12,6 C 12,4 C 12,9 km/h (3 Bft) 100,00 %
31.05.2016 01:21 13,5 C 94 % 1008,6 hPa 0,2 l/m 7,5 km/h (2 Bft) SW 236 0 min 0,000 mm 0,0 UV-I 0 W/m 12,6 C 12,8 C 11,3 km/h (2 Bft) 96,15 %
31.05.2016 01:22 13,5 C 94 % 1008,6 hPa 0,2 l/m 8,4 km/h (2 Bft) SW 234 0 min 0,000 mm 0,0 UV-I 0 W/m 12,6 C 12,3 C 12,9 km/h (3 Bft) 100,00 %
31.05.2016 01:23 13,5 C 94 % 1008,6 hPa 0,0 l/m 7,1 km/h (2 Bft) S-SW 210 0 min 0,000 mm 0,0 UV-I 0 W/m 12,6 C 13,1 C 11,3 km/h (2 Bft) 100,00 %
31.05.2016 01:24 13,4 C 94 % 1008,6 hPa 0,2 l/m 9,7 km/h (2 Bft) S-SW 212 0 min 0,000 mm 0,0 UV-I 0 W/m 12,5 C 11,5 C 14,5 km/h (3 Bft) 96,15 %
31.05.2016 01:25 13,4 C 94 % 1008,6 hPa 0,0 l/m 8,4 km/h (2 Bft) S-SW 213 0 min 0,000 mm 0,0 UV-I 0 W/m 12,5 C 12,2 C 12,9 km/h (3 Bft) 96,15 %
31.05.2016 01:26 13,4 C 95 % 1008,6 hPa 0,2 l/m 12,2 km/h (2 Bft) S-SW 198 0 min 0,000 mm 0,0 UV-I 0 W/m 12,6 C 10,3 C 14,5 km/h (3 Bft) 100,00 %
31.05.2016 01:27 13,4 C 94 % 1008,6 hPa 0,0 l/m 9,0 km/h (2 Bft) S-SW 202 0 min 0,000 mm 0,0 UV-I 0 W/m 12,5 C 11,9 C 14,5 km/h (3 Bft) 100,00 %
31.05.2016 01:28 13,4 C 94 % 1008,6 hPa 0,2 l/m 9,1 km/h (2 Bft) SW 215 0 min 0,000 mm 0,0 UV-I 0 W/m 12,5 C 11,8 C 11,3 km/h (2 Bft) 100,00 %
31.05.2016 01:29 13,4 C 95 % 1008,6 hPa 0,0 l/m 6,8 km/h (2 Bft) S-SW 207 0 min 0,000 mm 0,0 UV-I 0 W/m 12,6 C 13,2 C 9,7 km/h (2 Bft) 100,00 %
31.05.2016 01:30 13,4 C 94 % 1008,7 hPa 0,2 l/m 9,4 km/h (2 Bft) W-SW 248 0 min 0,000 mm 0,0 UV-I 0 W/m 12,5 C 11,7 C 12,9 km/h (3 Bft) 100,00 %
31.05.2016 01:31 13,4 C 94 % 1008,6 hPa 0,0 l/m 7,1 km/h (2 Bft) SW 229 0 min 0,000 mm 0,0 UV-I 0 W/m 12,5 C 13,0 C 9,7 km/h (2 Bft) 100,00 %
31.05.2016 01:32 13,4 C 94 % 1008,7 hPa 0,2 l/m 6,1 km/h (2 Bft) SW 217 0 min 0,000 mm 0,0 UV-I 0 W/m 12,5 C 13,4 C 8,0 km/h (2 Bft) 100,00 %
31.05.2016 01:33 13,4 C 94 % 1008,6 hPa 0,0 l/m 3,5 km/h (1 Bft) W-SW 240 0 min 0,000 mm 0,0 UV-I 0 W/m 12,5 C 13,4 C 4,8 km/h (1 Bft) 100,00 %
31.05.2016 01:34 13,4 C 94 % 1008,6 hPa 0,2 l/m 7,2 km/h (2 Bft) SW 233 0 min 0,000 mm 0,0 UV-I 0 W/m 12,5 C 12,9 C 12,9 km/h (3 Bft) 96,15 %
31.05.2016 01:35 13,4 C 94 % 1008,7 hPa 0,0 l/m 7,6 km/h (2 Bft) SW 234 0 min 0,000 mm 0,0 UV-I 0 W/m 12,5 C 12,7 C 11,3 km/h (2 Bft) 100,00 %
31.05.2016 01:36 13,4 C 94 % 1008,7 hPa 0,2 l/m 7,5 km/h (2 Bft) W-SW 252 0 min 0,000 mm 0,0 UV-I 0 W/m 12,5 C 12,7 C 11,3 km/h (2 Bft) 100,00 %
31.05.2016 01:37 13,4 C 94 % 1008,7 hPa 0,0 l/m 6,7 km/h (2 Bft) S-SW 205 0 min 0,000 mm 0,0 UV-I 0 W/m 12,5 C 13,2 C 8,0 km/h (2 Bft) 100,00 %
31.05.2016 01:38 13,4 C 94 % 1008,7 hPa 0,2 l/m 6,0 km/h (2 Bft) W-SW 242 0 min 0,000 mm 0,0 UV-I 0 W/m 12,5 C 13,4 C 8,0 km/h (2 Bft) 100,00 %
31.05.2016 01:39 13,4 C 94 % 1008,7 hPa 0,0 l/m 6,5 km/h (2 Bft) SW 216 0 min 0,000 mm 0,0 UV-I 0 W/m 12,5 C 13,4 C 9,7 km/h (2 Bft) 93,33 %
31.05.2016 01:40 13,4 C 94 % 1008,7 hPa 0,0 l/m 5,7 km/h (1 Bft) W-SW 243 0 min 0,000 mm 0,0 UV-I 0 W/m 12,5 C 13,4 C 9,7 km/h (2 Bft) 100,00 %
31.05.2016 01:41 13,3 C 94 % 1008,7 hPa 0,2 l/m 4,9 km/h (1 Bft) S-SW 213 0 min 0,000 mm 0,0 UV-I 0 W/m 12,4 C 13,3 C 6,4 km/h (2 Bft) 100,00 %
31.05.2016 01:42 13,3 C 94 % 1008,7 hPa 0,0 l/m 5,3 km/h (1 Bft) W-SW 244 0 min 0,000 mm 0,0 UV-I 0 W/m 12,4 C 13,3 C 8,0 km/h (2 Bft) 100,00 %
31.05.2016 01:43 13,3 C 94 % 1008,7 hPa 0,2 l/m 6,4 km/h (2 Bft) S 190 0 min 0,000 mm 0,0 UV-I 0 W/m 12,4 C 13,3 C 9,7 km/h (2 Bft) 100,00 %
31.05.2016 01:44 13,3 C 94 % 1008,6 hPa 0,0 l/m 6,9 km/h (2 Bft) W-SW 242 0 min 0,000 mm 0,0 UV-I 0 W/m 12,4 C 13,0 C 9,7 km/h (2 Bft) 100,00 %
31.05.2016 01:45 13,3 C 94 % 1008,7 hPa 0,0 l/m 5,7 km/h (1 Bft) SW 227 0 min 0,000 mm 0,0 UV-I 0 W/m 12,4 C 13,3 C 8,0 km/h (2 Bft) 100,00 %
31.05.2016 01:46 13,3 C 94 % 1008,6 hPa 0,0 l/m 6,9 km/h (2 Bft) W-SW 245 0 min 0,000 mm 0,0 UV-I 0 W/m 12,4 C 13,0 C 8,0 km/h (2 Bft) 100,00 %
31.05.2016 01:47 13,3 C 94 % 1008,6 hPa 0,0 l/m 5,8 km/h (2 Bft) W-SW 242 0 min 0,000 mm 0,0 UV-I 0 W/m 12,4 C 13,3 C 9,7 km/h (2 Bft) 100,00 %
31.05.2016 01:48 13,3 C 94 % 1008,6 hPa 0,2 l/m 5,2 km/h (1 Bft) S-SW 205 0 min 0,000 mm 0,0 UV-I 0 W/m 12,4 C 13,3 C 9,7 km/h (2 Bft) 100,00 %
31.05.2016 01:49 13,3 C 94 % 1008,6 hPa 0,0 l/m 6,1 km/h (2 Bft) S-SO 162 0 min 0,000 mm 0,0 UV-I 0 W/m 12,4 C 13,3 C 8,0 km/h (2 Bft) 96,55 %
31.05.2016 01:50 13,3 C 94 % 1008,6 hPa 0,0 l/m 5,6 km/h (1 Bft) SW 226 0 min 0,000 mm 0,0 UV-I 0 W/m 12,4 C 13,3 C 9,7 km/h (2 Bft) 100,00 %
31.05.2016 01:51 13,3 C 94 % 1008,6 hPa 0,0 l/m 4,5 km/h (1 Bft) S-SW 207 0 min 0,000 mm 0,0 UV-I 0 W/m 12,4 C 13,3 C 6,4 km/h (2 Bft) 98,25 %
31.05.2016 01:52 13,3 C 94 % 1008,6 hPa 0,2 l/m 7,1 km/h (2 Bft) SW 219 0 min 0,000 mm 0,0 UV-I 0 W/m 12,4 C 12,9 C 9,7 km/h (2 Bft) 100,00 %
31.05.2016 01:53 13,3 C 94 % 1008,6 hPa 0,0 l/m 7,4 km/h (2 Bft) SW 230 0 min 0,000 mm 0,0 UV-I 0 W/m 12,4 C 12,7 C 11,3 km/h (2 Bft) 96,15 %
31.05.2016 01:54 13,3 C 94 % 1008,6 hPa 0,0 l/m 7,1 km/h (2 Bft) S 182 0 min 0,000 mm 0,0 UV-I 0 W/m 12,4 C 12,9 C 9,7 km/h (2 Bft) 100,00 %
31.05.2016 01:55 13,3 C 94 % 1008,6 hPa 0,0 l/m 5,8 km/h (2 Bft) S-SW 212 0 min 0,000 mm 0,0 UV-I 0 W/m 12,4 C 13,3 C 8,0 km/h (2 Bft) 100,00 %
31.05.2016 01:56 13,3 C 94 % 1008,6 hPa 0,0 l/m 6,0 km/h (2 Bft) S-SW 206 0 min 0,000 mm 0,0 UV-I 0 W/m 12,4 C 13,3 C 9,7 km/h (2 Bft) 96,30 %
31.05.2016 01:57 13,3 C 94 % 1008,6 hPa 0,2 l/m 7,4 km/h (2 Bft) S 181 0 min 0,000 mm 0,0 UV-I 0 W/m 12,4 C 12,7 C 9,7 km/h (2 Bft) 95,65 %
31.05.2016 01:58 13,3 C 94 % 1008,6 hPa 0,0 l/m 5,4 km/h (1 Bft) SW 234 0 min 0,000 mm 0,0 UV-I 0 W/m 12,4 C 13,3 C 8,0 km/h (2 Bft) 100,00 %
31.05.2016 01:59 13,3 C 94 % 1008,6 hPa 0,0 l/m 5,1 km/h (1 Bft) S 182 0 min 0,000 mm 0,0 UV-I 0 W/m 12,4 C 13,3 C 6,4 km/h (2 Bft) 96,15 %
31.05.2016 02:00 13,3 C 95 % 1008,5 hPa 0,0 l/m 5,4 km/h (1 Bft) S-SW 208 0 min 0,000 mm 0,0 UV-I 0 W/m 12,5 C 13,3 C 8,0 km/h (2 Bft) 100,00 %
31.05.2016 02:02 13,3 C 95 % 1008,5 hPa 0,2 l/m 6,2 km/h (2 Bft) SW 214 0 min 0,000 mm 0,0 UV-I 0 W/m 12,5 C 13,3 C 9,7 km/h (2 Bft) 100,00 %
31.05.2016 02:03 13,3 C 95 % 1008,5 hPa 0,0 l/m 8,6 km/h (2 Bft) S-SW 205 0 min 0,000 mm 0,0 UV-I 0 W/m 12,5 C 12,0 C 11,3 km/h (2 Bft) 100,00 %
31.05.2016 02:04 13,3 C 95 % 1008,5 hPa 0,2 l/m 8,6 km/h (2 Bft) S 189 0 min 0,000 mm 0,0 UV-I 0 W/m 12,5 C 12,0 C 11,3 km/h (2 Bft) 100,00 %
31.05.2016 02:05 13,3 C 95 % 1008,5 hPa 0,0 l/m 7,7 km/h (2 Bft) S 179 0 min 0,000 mm 0,0 UV-I 0 W/m 12,5 C 12,5 C 9,7 km/h (2 Bft) 100,00 %
31.05.2016 02:06 13,3 C 95 % 1008,5 hPa 0,2 l/m 8,0 km/h (2 Bft) S-SW 213 0 min 0,000 mm 0,0 UV-I 0 W/m 12,5 C 12,3 C 9,7 km/h (2 Bft) 96,15 %
31.05.2016 02:07 13,3 C 95 % 1008,5 hPa 0,0 l/m 6,9 km/h (2 Bft) S-SO 163 0 min 0,000 mm 0,0 UV-I 0 W/m 12,5 C 13,0 C 9,7 km/h (2 Bft) 100,00 %
31.05.2016 02:08 13,3 C 95 % 1008,5 hPa 0,0 l/m 7,1 km/h (2 Bft) S-SW 198 0 min 0,000 mm 0,0 UV-I 0 W/m 12,5 C 12,9 C 9,7 km/h (2 Bft) 100,00 %
31.05.2016 02:09 13,3 C 95 % 1008,5 hPa 0,2 l/m 8,5 km/h (2 Bft) S 172 0 min 0,000 mm 0,0 UV-I 0 W/m 12,5 C 12,0 C 11,3 km/h (2 Bft) 100,00 %
31.05.2016 02:10 13,3 C 95 % 1008,5 hPa 0,0 l/m 8,5 km/h (2 Bft) S-SW 213 0 min 0,000 mm 0,0 UV-I 0 W/m 12,5 C 12,0 C 9,7 km/h (2 Bft) 100,00 %
31.05.2016 02:11 13,3 C 95 % 1008,5 hPa 0,2 l/m 8,0 km/h (2 Bft) S-SW 194 0 min 0,000 mm 0,0 UV-I 0 W/m 12,5 C 12,3 C 11,3 km/h (2 Bft) 100,00 %
31.05.2016 02:12 13,3 C 95 % 1008,5 hPa 0,0 l/m 10,8 km/h (2 Bft) S-SW 210 0 min 0,000 mm 0,0 UV-I 0 W/m 12,5 C 10,9 C 14,5 km/h (3 Bft) 100,00 %
31.05.2016 02:13 13,3 C 95 % 1008,5 hPa 0,2 l/m 10,3 km/h (2 Bft) SW 217 0 min 0,000 mm 0,0 UV-I 0 W/m 12,5 C 11,1 C 12,9 km/h (3 Bft) 100,00 %
31.05.2016 02:14 13,3 C 95 % 1008,5 hPa 0,0 l/m 9,0 km/h (2 Bft) S-SO 161 0 min 0,000 mm 0,0 UV-I 0 W/m 12,5 C 11,8 C 11,3 km/h (2 Bft) 100,00 %
31.05.2016 02:15 13,3 C 95 % 1008,5 hPa 0,2 l/m 9,7 km/h (2 Bft) SW 225 0 min 0,000 mm 0,0 UV-I 0 W/m 12,5 C 11,4 C 12,9 km/h (3 Bft) 96,30 %
31.05.2016 02:16 13,3 C 95 % 1008,5 hPa 0,0 l/m 8,3 km/h (2 Bft) S 181 0 min 0,000 mm 0,0 UV-I 0 W/m 12,5 C 12,1 C 14,5 km/h (3 Bft) 100,00 %
31.05.2016 02:17 13,3 C 95 % 1008,5 hPa 0,0 l/m 9,5 km/h (2 Bft) S-SW 194 0 min 0,000 mm 0,0 UV-I 0 W/m 12,5 C 11,5 C 14,5 km/h (3 Bft) 100,00 %
31.05.2016 02:18 13,3 C 95 % 1008,5 hPa 0,2 l/m 7,8 km/h (2 Bft) SW 220 0 min 0,000 mm 0,0 UV-I 0 W/m 12,5 C 12,4 C 9,7 km/h (2 Bft) 100,00 %
31.05.2016 02:19 13,3 C 95 % 1008,5 hPa 0,0 l/m 9,3 km/h (2 Bft) SW 223 0 min 0,000 mm 0,0 UV-I 0 W/m 12,5 C 11,6 C 12,9 km/h (3 Bft) 96,67 %
31.05.2016 02:20 13,3 C 95 % 1008,4 hPa 0,2 l/m 8,0 km/h (2 Bft) S-SW 197 0 min 0,000 mm 0,0 UV-I 0 W/m 12,5 C 12,3 C 11,3 km/h (2 Bft) 100,00 %
31.05.2016 02:21 13,3 C 95 % 1008,5 hPa 0,0 l/m 8,1 km/h (2 Bft) S 186 0 min 0,000 mm 0,0 UV-I 0 W/m 12,5 C 12,3 C 11,3 km/h (2 Bft) 100,00 %
31.05.2016 02:22 13,3 C 95 % 1008,5 hPa 0,2 l/m 9,1 km/h (2 Bft) S-SW 193 0 min 0,000 mm 0,0 UV-I 0 W/m 12,5 C 11,7 C 12,9 km/h (3 Bft) 100,00 %
31.05.2016 02:23 13,3 C 95 % 1008,4 hPa 0,0 l/m 7,8 km/h (2 Bft) S 177 0 min 0,000 mm 0,0 UV-I 0 W/m 12,5 C 12,4 C 11,3 km/h (2 Bft) 100,00 %
31.05.2016 02:24 13,3 C 95 % 1008,4 hPa 0,2 l/m 11,7 km/h (2 Bft) SW 218 0 min 0,000 mm 0,0 UV-I 0 W/m 12,5 C 10,4 C 16,1 km/h (3 Bft) 100,00 %
31.05.2016 02:25 13,3 C 95 % 1008,4 hPa 0,0 l/m 10,1 km/h (2 Bft) SW 216 0 min 0,000 mm 0,0 UV-I 0 W/m 12,5 C 11,2 C 12,9 km/h (3 Bft) 100,00 %
31.05.2016 02:26 13,3 C 95 % 1008,4 hPa 0,0 l/m 8,1 km/h (2 Bft) SW 233 0 min 0,000 mm 0,0 UV-I 0 W/m 12,5 C 12,3 C 11,3 km/h (2 Bft) 100,00 %
31.05.2016 02:27 13,3 C 95 % 1008,4 hPa 0,2 l/m 8,5 km/h (2 Bft) S 184 0 min 0,000 mm 0,0 UV-I 0 W/m 12,5 C 12,0 C 11,3 km/h (2 Bft) 96,15 %
31.05.2016 02:28 13,3 C 95 % 1008,4 hPa 0,2 l/m 8,9 km/h (2 Bft) SW 225 0 min 0,000 mm 0,0 UV-I 0 W/m 12,5 C 11,8 C 11,3 km/h (2 Bft) 95,83 %
31.05.2016 02:29 13,3 C 95 % 1008,4 hPa 0,0 l/m 9,7 km/h (2 Bft) SW 223 0 min 0,000 mm 0,0 UV-I 0 W/m 12,5 C 11,4 C 14,5 km/h (3 Bft) 95,65 %
31.05.2016 02:30 13,3 C 95 % 1008,4 hPa 0,0 l/m 8,3 km/h (2 Bft) S-SW 211 0 min 0,000 mm 0,0 UV-I 0 W/m 12,5 C 12,1 C 14,5 km/h (3 Bft) 95,83 %
31.05.2016 02:31 13,3 C 95 % 1008,4 hPa 0,2 l/m 10,1 km/h (2 Bft) S-SW 203 0 min 0,000 mm 0,0 UV-I 0 W/m 12,5 C 11,2 C 12,9 km/h (3 Bft) 95,65 %
31.05.2016 02:32 13,3 C 95 % 1008,4 hPa 0,0 l/m 8,2 km/h (2 Bft) S-SW 197 0 min 0,000 mm 0,0 UV-I 0 W/m 12,5 C 12,2 C 12,9 km/h (3 Bft) 96,30 %
31.05.2016 02:33 13,3 C 95 % 1008,4 hPa 0,2 l/m 7,2 km/h (2 Bft) SW 214 0 min 0,000 mm 0,0 UV-I 0 W/m 12,5 C 12,8 C 11,3 km/h (2 Bft) 100,00 %
31.05.2016 02:34 13,3 C 95 % 1008,5 hPa 0,0 l/m 10,4 km/h (2 Bft) S-SW 209 0 min 0,000 mm 0,0 UV-I 0 W/m 12,5 C 11,0 C 14,5 km/h (3 Bft) 100,00 %
31.05.2016 02:35 13,3 C 95 % 1008,4 hPa 0,0 l/m 10,3 km/h (2 Bft) S-SW 192 0 min 0,000 mm 0,0 UV-I 0 W/m 12,5 C 11,1 C 12,9 km/h (3 Bft) 100,00 %
31.05.2016 02:37 13,3 C 95 % 1008,4 hPa 0,2 l/m 8,6 km/h (2 Bft) S-SW 207 0 min 0,000 mm 0,0 UV-I 0 W/m 12,5 C 12,0 C 12,9 km/h (3 Bft) 98,11 %
31.05.2016 02:38 13,3 C 95 % 1008,4 hPa 0,2 l/m 10,3 km/h (2 Bft) S 188 0 min 0,000 mm 0,0 UV-I 0 W/m 12,5 C 11,1 C 14,5 km/h (3 Bft) 100,00 %
31.05.2016 02:39 13,3 C 95 % 1008,4 hPa 0,0 l/m 7,1 km/h (2 Bft) S 177 0 min 0,000 mm 0,0 UV-I 0 W/m 12,5 C 12,9 C 9,7 km/h (2 Bft) 100,00 %
31.05.2016 02:40 13,3 C 95 % 1008,4 hPa 0,0 l/m 9,5 km/h (2 Bft) S-SW 195 0 min 0,000 mm 0,0 UV-I 0 W/m 12,5 C 11,5 C 12,9 km/h (3 Bft) 100,00 %
31.05.2016 02:41 13,3 C 94 % 1008,3 hPa 0,2 l/m 9,3 km/h (2 Bft) SW 221 0 min 0,000 mm 0,0 UV-I 0 W/m 12,4 C 11,6 C 11,3 km/h (2 Bft) 96,30 %
31.05.2016 02:42 13,3 C 95 % 1008,3 hPa 0,0 l/m 7,8 km/h (2 Bft) SW 222 0 min 0,000 mm 0,0 UV-I 0 W/m 12,5 C 12,4 C 9,7 km/h (2 Bft) 100,00 %
31.05.2016 02:43 13,3 C 95 % 1008,3 hPa 0,2 l/m 9,7 km/h (2 Bft) SW 215 0 min 0,000 mm 0,0 UV-I 0 W/m 12,5 C 11,4 C 14,5 km/h (3 Bft) 100,00 %
31.05.2016 02:44 13,3 C 95 % 1008,3 hPa 0,0 l/m 9,0 km/h (2 Bft) S-SW 193 0 min 0,000 mm 0,0 UV-I 0 W/m 12,5 C 11,8 C 11,3 km/h (2 Bft) 100,00 %
31.05.2016 02:45 13,3 C 95 % 1008,3 hPa 0,0 l/m 9,2 km/h (2 Bft) S-SW 207 0 min 0,000 mm 0,0 UV-I 0 W/m 12,5 C 11,7 C 14,5 km/h (3 Bft) 100,00 %
31.05.2016 02:46 13,3 C 95 % 1008,3 hPa 0,2 l/m 9,2 km/h (2 Bft) S 188 0 min 0,000 mm 0,0 UV-I 0 W/m 12,5 C 11,7 C 12,9 km/h (3 Bft) 100,00 %
31.05.2016 02:47 13,3 C 95 % 1008,3 hPa 0,0 l/m 8,5 km/h (2 Bft) S-SW 200 0 min 0,000 mm 0,0 UV-I 0 W/m 12,5 C 12,0 C 16,1 km/h (3 Bft) 100,00 %
31.05.2016 02:48 13,3 C 95 % 1008,3 hPa 0,2 l/m 10,1 km/h (2 Bft) S-SW 206 0 min 0,000 mm 0,0 UV-I 0 W/m 12,5 C 11,2 C 12,9 km/h (3 Bft) 100,00 %
31.05.2016 02:49 13,3 C 95 % 1008,4 hPa 0,0 l/m 9,8 km/h (2 Bft) S 191 0 min 0,000 mm 0,0 UV-I 0 W/m 12,5 C 11,3 C 14,5 km/h (3 Bft) 91,67 %
31.05.2016 02:50 13,3 C 95 % 1008,3 hPa 0,0 l/m 8,2 km/h (2 Bft) SW 215 0 min 0,000 mm 0,0 UV-I 0 W/m 12,5 C 12,2 C 9,7 km/h (2 Bft) 100,00 %
31.05.2016 02:51 13,3 C 95 % 1008,4 hPa 0,0 l/m 9,1 km/h (2 Bft) S-SW 205 0 min 0,000 mm 0,0 UV-I 0 W/m 12,5 C 11,7 C 14,5 km/h (3 Bft) 96,97 %
31.05.2016 02:52 13,3 C 95 % 1008,3 hPa 0,0 l/m 10,8 km/h (2 Bft) S-SW 213 0 min 0,000 mm 0,0 UV-I 0 W/m 12,5 C 10,9 C 14,5 km/h (3 Bft) 100,00 %
31.05.2016 02:53 13,3 C 95 % 1008,3 hPa 0,2 l/m 9,4 km/h (2 Bft) SW 215 0 min 0,000 mm 0,0 UV-I 0 W/m 12,5 C 11,5 C 14,5 km/h (3 Bft) 96,67 %
31.05.2016 02:54 13,3 C 95 % 1008,3 hPa 0,0 l/m 6,0 km/h (2 Bft) S 183 0 min 0,000 mm 0,0 UV-I 0 W/m 12,5 C 13,3 C 9,7 km/h (2 Bft) 96,15 %
31.05.2016 02:55 13,3 C 95 % 1008,3 hPa 0,0 l/m 8,0 km/h (2 Bft) S-SW 193 0 min 0,000 mm 0,0 UV-I 0 W/m 12,5 C 12,3 C 11,3 km/h (2 Bft) 100,00 %
31.05.2016 02:56 13,3 C 95 % 1008,3 hPa 0,2 l/m 6,1 km/h (2 Bft) S-SW 197 0 min 0,000 mm 0,0 UV-I 0 W/m 12,5 C 13,3 C 8,0 km/h (2 Bft) 91,30 %
31.05.2016 02:57 13,3 C 95 % 1008,3 hPa 0,0 l/m 5,3 km/h (1 Bft) SW 232 0 min 0,000 mm 0,0 UV-I 0 W/m 12,5 C 13,3 C 8,0 km/h (2 Bft) 100,00 %
31.05.2016 02:58 13,3 C 95 % 1008,3 hPa 0,0 l/m 6,6 km/h (2 Bft) SW 220 0 min 0,000 mm 0,0 UV-I 0 W/m 12,5 C 13,2 C 9,7 km/h (2 Bft) 86,67 %
31.05.2016 02:59 13,3 C 95 % 1008,3 hPa 0,2 l/m 7,6 km/h (2 Bft) SW 229 0 min 0,000 mm 0,0 UV-I 0 W/m 12,5 C 12,6 C 12,9 km/h (3 Bft) 100,00 %
31.05.2016 03:00 13,3 C 95 % 1008,3 hPa 0,0 l/m 6,4 km/h (2 Bft) SW 229 0 min 0,000 mm 0,0 UV-I 0 W/m 12,5 C 13,3 C 12,9 km/h (3 Bft) 91,67 %
31.05.2016 03:02 13,3 C 95 % 1008,3 hPa 0,2 l/m 7,0 km/h (2 Bft) SW 228 0 min 0,000 mm 0,0 UV-I 0 W/m 12,5 C 12,9 C 9,7 km/h (2 Bft) 98,21 %
31.05.2016 03:03 13,3 C 95 % 1008,3 hPa 0,0 l/m 9,0 km/h (2 Bft) SW 234 0 min 0,000 mm 0,0 UV-I 0 W/m 12,5 C 11,8 C 12,9 km/h (3 Bft) 96,15 %
31.05.2016 03:04 13,3 C 95 % 1008,3 hPa 0,0 l/m 7,5 km/h (2 Bft) W-SW 242 0 min 0,000 mm 0,0 UV-I 0 W/m 12,5 C 12,6 C 9,7 km/h (2 Bft) 100,00 %
31.05.2016 03:05 13,3 C 95 % 1008,3 hPa 0,2 l/m 7,1 km/h (2 Bft) SW 234 0 min 0,000 mm 0,0 UV-I 0 W/m 12,5 C 12,9 C 11,3 km/h (2 Bft) 96,15 %
31.05.2016 03:06 13,3 C 95 % 1008,2 hPa 0,0 l/m 8,0 km/h (2 Bft) W 259 0 min 0,000 mm 0,0 UV-I 0 W/m 12,5 C 12,3 C 14,5 km/h (3 Bft) 100,00 %
31.05.2016 03:07 13,3 C 95 % 1008,2 hPa 0,0 l/m 7,8 km/h (2 Bft) W-SW 238 0 min 0,000 mm 0,0 UV-I 0 W/m 12,5 C 12,4 C 11,3 km/h (2 Bft) 96,15 %
31.05.2016 03:08 13,3 C 95 % 1008,3 hPa 0,0 l/m 7,2 km/h (2 Bft) S-SW 205 0 min 0,000 mm 0,0 UV-I 0 W/m 12,5 C 12,8 C 12,9 km/h (3 Bft) 100,00 %
31.05.2016 03:09 13,3 C 95 % 1008,3 hPa 0,0 l/m 5,2 km/h (1 Bft) S-SW 207 0 min 0,000 mm 0,0 UV-I 0 W/m 12,5 C 13,3 C 8,0 km/h (2 Bft) 95,65 %
31.05.2016 03:10 13,3 C 95 % 1008,2 hPa 0,0 l/m 4,7 km/h (1 Bft) S-SW 194 0 min 0,000 mm 0,0 UV-I 0 W/m 12,5 C 13,3 C 9,7 km/h (2 Bft) 100,00 %
31.05.2016 03:11 13,3 C 95 % 1008,2 hPa 0,0 l/m 7,2 km/h (2 Bft) S-SW 210 0 min 0,000 mm 0,0 UV-I 0 W/m 12,5 C 12,8 C 11,3 km/h (2 Bft) 96,15 %
31.05.2016 03:12 13,3 C 95 % 1008,3 hPa 0,0 l/m 4,0 km/h (1 Bft) S-SW 213 0 min 0,000 mm 0,0 UV-I 0 W/m 12,5 C 13,3 C 6,4 km/h (2 Bft) 100,00 %
31.05.2016 03:13 13,3 C 95 % 1008,2 hPa 0,0 l/m 5,2 km/h (1 Bft) SW 231 0 min 0,000 mm 0,0 UV-I 0 W/m 12,5 C 13,3 C 6,4 km/h (2 Bft) 93,33 %
31.05.2016 03:14 13,3 C 95 % 1008,2 hPa 0,0 l/m 6,2 km/h (2 Bft) SW 222 0 min 0,000 mm 0,0 UV-I 0 W/m 12,5 C 13,3 C 11,3 km/h (2 Bft) 97,73 %
31.05.2016 03:15 13,3 C 95 % 1008,2 hPa 0,2 l/m 7,9 km/h (2 Bft) S-SW 208 0 min 0,000 mm 0,0 UV-I 0 W/m 12,5 C 12,4 C 11,3 km/h (2 Bft) 100,00 %
31.05.2016 03:16 13,3 C 95 % 1008,2 hPa 0,0 l/m 6,1 km/h (2 Bft) SW 236 0 min 0,000 mm 0,0 UV-I 0 W/m 12,5 C 13,3 C 8,0 km/h (2 Bft) 93,33 %
31.05.2016 03:17 13,3 C 95 % 1008,2 hPa 0,0 l/m 5,4 km/h (1 Bft) SW 234 0 min 0,000 mm 0,0 UV-I 0 W/m 12,5 C 13,3 C 8,0 km/h (2 Bft) 100,00 %
31.05.2016 03:18 13,3 C 95 % 1008,2 hPa 0,0 l/m 7,2 km/h (2 Bft) SW 227 0 min 0,000 mm 0,0 UV-I 0 W/m 12,5 C 12,8 C 11,3 km/h (2 Bft) 96,15 %
31.05.2016 03:19 13,3 C 95 % 1008,2 hPa 0,0 l/m 6,6 km/h (2 Bft) SW 218 0 min 0,000 mm 0,0 UV-I 0 W/m 12,5 C 13,2 C 9,7 km/h (2 Bft) 100,00 %
31.05.2016 03:20 13,3 C 95 % 1008,2 hPa 0,0 l/m 5,8 km/h (2 Bft) SW 221 0 min 0,000 mm 0,0 UV-I 0 W/m 12,5 C 13,3 C 9,7 km/h (2 Bft) 95,65 %
31.05.2016 03:21 13,3 C 95 % 1008,2 hPa 0,0 l/m 6,8 km/h (2 Bft) SW 226 0 min 0,000 mm 0,0 UV-I 0 W/m 12,5 C 13,1 C 9,7 km/h (2 Bft) 96,15 %
31.05.2016 03:22 13,3 C 95 % 1008,2 hPa 0,0 l/m 6,9 km/h (2 Bft) SW 219 0 min 0,000 mm 0,0 UV-I 0 W/m 12,5 C 13,0 C 8,0 km/h (2 Bft) 96,30 %
31.05.2016 03:23 13,3 C 95 % 1008,2 hPa 0,0 l/m 4,2 km/h (1 Bft) SW 222 0 min 0,000 mm 0,0 UV-I 0 W/m 12,5 C 13,3 C 8,0 km/h (2 Bft) 100,00 %
31.05.2016 03:24 13,3 C 95 % 1008,2 hPa 0,0 l/m 4,6 km/h (1 Bft) SW 227 0 min 0,000 mm 0,0 UV-I 0 W/m 12,5 C 13,3 C 6,4 km/h (2 Bft) 100,00 %
31.05.2016 03:25 13,3 C 95 % 1008,2 hPa 0,0 l/m 4,8 km/h (1 Bft) SW 221 0 min 0,000 mm 0,0 UV-I 0 W/m 12,5 C 13,3 C 6,4 km/h (2 Bft) 100,00 %
31.05.2016 03:26 13,3 C 95 % 1008,2 hPa 0,0 l/m 4,6 km/h (1 Bft) SW 216 0 min 0,000 mm 0,0 UV-I 0 W/m 12,5 C 13,3 C 6,4 km/h (2 Bft) 100,00 %
31.05.2016 03:27 13,3 C 95 % 1008,2 hPa 0,0 l/m 4,1 km/h (1 Bft) W-SW 243 0 min 0,000 mm 0,0 UV-I 0 W/m 12,5 C 13,3 C 4,8 km/h (1 Bft) 96,30 %
31.05.2016 03:28 13,3 C 96 % 1008,2 hPa 0,0 l/m 5,7 km/h (1 Bft) W-SW 251 0 min 0,000 mm 0,0 UV-I 0 W/m 12,7 C 13,3 C 9,7 km/h (2 Bft) 100,00 %
31.05.2016 03:29 13,3 C 95 % 1008,2 hPa 0,0 l/m 6,9 km/h (2 Bft) W 263 0 min 0,000 mm 0,0 UV-I 0 W/m 12,5 C 13,0 C 9,7 km/h (2 Bft) 100,00 %
31.05.2016 03:30 13,3 C 95 % 1008,2 hPa 0,0 l/m 6,4 km/h (2 Bft) W-SW 250 0 min 0,000 mm 0,0 UV-I 0 W/m 12,5 C 13,3 C 9,7 km/h (2 Bft) 95,65 %
31.05.2016 03:31 13,3 C 96 % 1008,2 hPa 0,2 l/m 7,9 km/h (2 Bft) W-SW 257 0 min 0,000 mm 0,0 UV-I 0 W/m 12,7 C 12,4 C 12,9 km/h (3 Bft) 100,00 %
31.05.2016 03:32 13,3 C 96 % 1008,2 hPa 0,0 l/m 8,8 km/h (2 Bft) W-SW 252 0 min 0,000 mm 0,0 UV-I 0 W/m 12,7 C 11,9 C 12,9 km/h (3 Bft) 100,00 %
31.05.2016 03:33 13,3 C 95 % 1008,2 hPa 0,0 l/m 8,8 km/h (2 Bft) W-SW 252 0 min 0,000 mm 0,0 UV-I 0 W/m 12,5 C 11,9 C 11,3 km/h (2 Bft) 100,00 %
31.05.2016 03:34 13,3 C 95 % 1008,1 hPa 0,0 l/m 8,9 km/h (2 Bft) W 276 0 min 0,000 mm 0,0 UV-I 0 W/m 12,5 C 11,8 C 11,3 km/h (2 Bft) 100,00 %
31.05.2016 03:35 13,3 C 95 % 1008,1 hPa 0,0 l/m 7,0 km/h (2 Bft) W-SW 255 0 min 0,000 mm 0,0 UV-I 0 W/m 12,5 C 12,9 C 8,0 km/h (2 Bft) 100,00 %
31.05.2016 03:36 13,3 C 95 % 1008,1 hPa 0,0 l/m 5,5 km/h (1 Bft) W-SW 257 0 min 0,000 mm 0,0 UV-I 0 W/m 12,5 C 13,3 C 8,0 km/h (2 Bft) 100,00 %
31.05.2016 03:37 13,3 C 95 % 1008,1 hPa 0,0 l/m 9,7 km/h (2 Bft) W-SW 250 0 min 0,000 mm 0,0 UV-I 0 W/m 12,5 C 11,4 C 12,9 km/h (3 Bft) 100,00 %
31.05.2016 03:38 13,3 C 95 % 1008,1 hPa 0,0 l/m 6,7 km/h (2 Bft) W-SW 246 0 min 0,000 mm 0,0 UV-I 0 W/m 12,5 C 13,1 C 8,0 km/h (2 Bft) 100,00 %
31.05.2016 03:39 13,3 C 95 % 1008,1 hPa 0,0 l/m 7,3 km/h (2 Bft) W-SW 248 0 min 0,000 mm 0,0 UV-I 0 W/m 12,5 C 12,7 C 11,3 km/h (2 Bft) 100,00 %
31.05.2016 03:40 13,3 C 95 % 1008,2 hPa 0,0 l/m 6,8 km/h (2 Bft) W 264 0 min 0,000 mm 0,0 UV-I 0 W/m 12,5 C 13,1 C 9,7 km/h (2 Bft) 100,00 %
31.05.2016 03:41 13,3 C 95 % 1008,1 hPa 0,0 l/m 6,8 km/h (2 Bft) W-SW 249 0 min 0,000 mm 0,0 UV-I 0 W/m 12,5 C 13,1 C 9,7 km/h (2 Bft) 100,00 %
31.05.2016 03:42 13,3 C 95 % 1008,2 hPa 0,0 l/m 4,3 km/h (1 Bft) W-SW 249 0 min 0,000 mm 0,0 UV-I 0 W/m 12,5 C 13,3 C 4,8 km/h (1 Bft) 100,00 %
31.05.2016 03:43 13,3 C 95 % 1008,2 hPa 0,2 l/m 4,0 km/h (1 Bft) W-SW 250 0 min 0,000 mm 0,0 UV-I 0 W/m 12,5 C 13,3 C 4,8 km/h (1 Bft) 100,00 %
31.05.2016 03:44 13,3 C 95 % 1008,2 hPa 0,0 l/m 5,1 km/h (1 Bft) W-SW 248 0 min 0,000 mm 0,0 UV-I 0 W/m 12,5 C 13,3 C 6,4 km/h (2 Bft) 100,00 %
31.05.2016 03:45 13,3 C 95 % 1008,2 hPa 0,0 l/m 3,3 km/h (1 Bft) W-SW 245 0 min 0,000 mm 0,0 UV-I 0 W/m 12,5 C 13,3 C 4,8 km/h (1 Bft) 100,00 %
31.05.2016 03:46 13,3 C 95 % 1008,2 hPa 0,0 l/m 4,9 km/h (1 Bft) W-SW 244 0 min 0,000 mm 0,0 UV-I 0 W/m 12,5 C 13,3 C 6,4 km/h (2 Bft) 100,00 %
31.05.2016 03:47 13,3 C 95 % 1008,2 hPa 0,0 l/m 3,7 km/h (1 Bft) W-SW 246 0 min 0,000 mm 0,0 UV-I 0 W/m 12,5 C 13,3 C 4,8 km/h (1 Bft) 100,00 %
31.05.2016 03:48 13,3 C 95 % 1008,2 hPa 0,0 l/m 5,4 km/h (1 Bft) SW 232 0 min 0,000 mm 0,0 UV-I 0 W/m 12,5 C 13,3 C 8,0 km/h (2 Bft) 95,83 %
31.05.2016 03:49 13,3 C 95 % 1008,3 hPa 0,0 l/m 5,1 km/h (1 Bft) W-SW 252 0 min 0,000 mm 0,0 UV-I 0 W/m 12,5 C 13,3 C 6,4 km/h (2 Bft) 100,00 %
31.05.2016 03:50 13,3 C 95 % 1008,2 hPa 0,0 l/m 5,6 km/h (1 Bft) W-SW 241 0 min 0,000 mm 0,0 UV-I 0 W/m 12,5 C 13,3 C 6,4 km/h (2 Bft) 98,41 %
31.05.2016 03:51 13,3 C 95 % 1008,2 hPa 0,0 l/m 5,5 km/h (1 Bft) SW 229 0 min 0,000 mm 0,0 UV-I 0 W/m 12,5 C 13,3 C 8,0 km/h (2 Bft) 100,00 %
31.05.2016 03:52 13,4 C 95 % 1008,2 hPa 0,0 l/m 4,7 km/h (1 Bft) SW 217 0 min 0,000 mm 0,0 UV-I 0 W/m 12,6 C 13,4 C 6,4 km/h (2 Bft) 100,00 %
31.05.2016 03:53 13,3 C 95 % 1008,2 hPa 0,0 l/m 4,2 km/h (1 Bft) SW 221 0 min 0,000 mm 0,0 UV-I 0 W/m 12,5 C 13,3 C 4,8 km/h (1 Bft) 100,00 %
31.05.2016 03:54 13,4 C 95 % 1008,2 hPa 0,0 l/m 4,4 km/h (1 Bft) SW 233 0 min 0,000 mm 0,0 UV-I 0 W/m 12,6 C 13,4 C 6,4 km/h (2 Bft) 95,83 %
31.05.2016 03:55 13,4 C 95 % 1008,2 hPa 0,0 l/m 5,2 km/h (1 Bft) SW 225 0 min 0,000 mm 0,0 UV-I 0 W/m 12,6 C 13,4 C 8,0 km/h (2 Bft) 100,00 %
31.05.2016 03:56 13,4 C 95 % 1008,2 hPa 0,0 l/m 5,4 km/h (1 Bft) SW 234 0 min 0,000 mm 0,0 UV-I 0 W/m 12,6 C 13,4 C 8,0 km/h (2 Bft) 100,00 %
31.05.2016 03:57 13,4 C 95 % 1008,2 hPa 0,0 l/m 5,2 km/h (1 Bft) SW 235 0 min 0,000 mm 0,0 UV-I 0 W/m 12,6 C 13,4 C 6,4 km/h (2 Bft) 100,00 %
31.05.2016 03:58 13,4 C 95 % 1008,2 hPa 0,0 l/m 5,0 km/h (1 Bft) SW 225 0 min 0,000 mm 0,0 UV-I 0 W/m 12,6 C 13,4 C 6,4 km/h (2 Bft) 100,00 %
31.05.2016 03:59 13,4 C 95 % 1008,2 hPa 0,0 l/m 4,5 km/h (1 Bft) W 259 0 min 0,000 mm 0,0 UV-I 0 W/m 12,6 C 13,4 C 6,4 km/h (2 Bft) 100,00 %
31.05.2016 04:00 13,4 C 95 % 1008,2 hPa 0,0 l/m 4,7 km/h (1 Bft) W-SW 258 0 min 0,000 mm 0,0 UV-I 0 W/m 12,6 C 13,4 C 6,4 km/h (2 Bft) 100,00 %
31.05.2016 04:02 13,4 C 95 % 1008,2 hPa 0,0 l/m 5,3 km/h (1 Bft) W-SW 247 0 min 0,000 mm 0,0 UV-I 0 W/m 12,6 C 13,4 C 8,0 km/h (2 Bft) 95,45 %
31.05.2016 04:03 13,4 C 95 % 1008,2 hPa 0,0 l/m 4,6 km/h (1 Bft) SW 230 0 min 0,000 mm 0,0 UV-I 0 W/m 12,6 C 13,4 C 6,4 km/h (2 Bft) 96,30 %
31.05.2016 04:04 13,4 C 95 % 1008,2 hPa 0,0 l/m 6,0 km/h (2 Bft) W-SW 258 0 min 0,000 mm 0,0 UV-I 0 W/m 12,6 C 13,4 C 8,0 km/h (2 Bft) 100,00 %
31.05.2016 04:05 13,4 C 95 % 1008,2 hPa 0,0 l/m 6,2 km/h (2 Bft) W-SW 251 0 min 0,000 mm 0,0 UV-I 0 W/m 12,6 C 13,4 C 8,0 km/h (2 Bft) 100,00 %
31.05.2016 04:06 13,4 C 95 % 1008,2 hPa 0,0 l/m 6,6 km/h (2 Bft) SW 233 0 min 0,000 mm 0,0 UV-I 0 W/m 12,6 C 13,3 C 8,0 km/h (2 Bft) 100,00 %
31.05.2016 04:07 13,4 C 95 % 1008,2 hPa 0,0 l/m 5,3 km/h (1 Bft) W-SW 244 0 min 0,000 mm 0,0 UV-I 0 W/m 12,6 C 13,4 C 9,7 km/h (2 Bft) 100,00 %
31.05.2016 04:08 13,4 C 95 % 1008,2 hPa 0,0 l/m 5,0 km/h (1 Bft) W-SW 244 0 min 0,000 mm 0,0 UV-I 0 W/m 12,6 C 13,4 C 6,4 km/h (2 Bft) 100,00 %
31.05.2016 04:09 13,4 C 95 % 1008,2 hPa 0,0 l/m 5,3 km/h (1 Bft) SW 229 0 min 0,000 mm 0,0 UV-I 0 W/m 12,6 C 13,4 C 6,4 km/h (2 Bft) 100,00 %
31.05.2016 04:10 13,4 C 95 % 1008,2 hPa 0,0 l/m 3,8 km/h (1 Bft) SW 233 0 min 0,000 mm 0,0 UV-I 0 W/m 12,6 C 13,4 C 6,4 km/h (2 Bft) 95,65 %
31.05.2016 04:11 13,4 C 95 % 1008,2 hPa 0,0 l/m 4,1 km/h (1 Bft) SW 217 0 min 0,000 mm 0,0 UV-I 0 W/m 12,6 C 13,4 C 4,8 km/h (1 Bft) 100,00 %
31.05.2016 04:12 13,4 C 95 % 1008,2 hPa 0,0 l/m 5,6 km/h (1 Bft) SW 231 0 min 0,000 mm 0,0 UV-I 0 W/m 12,6 C 13,4 C 8,0 km/h (2 Bft) 100,00 %
31.05.2016 04:13 13,4 C 95 % 1008,2 hPa 0,0 l/m 4,8 km/h (1 Bft) W 262 0 min 0,000 mm 0,0 UV-I 0 W/m 12,6 C 13,4 C 6,4 km/h (2 Bft) 100,00 %
31.05.2016 04:14 13,4 C 95 % 1008,3 hPa 0,0 l/m 5,3 km/h (1 Bft) SW 227 0 min 0,000 mm 0,0 UV-I 0 W/m 12,6 C 13,4 C 6,4 km/h (2 Bft) 100,00 %
31.05.2016 04:15 13,4 C 95 % 1008,3 hPa 0,0 l/m 6,0 km/h (2 Bft) W-SW 243 0 min 0,000 mm 0,0 UV-I 0 W/m 12,6 C 13,4 C 9,7 km/h (2 Bft) 100,00 %
31.05.2016 04:16 13,4 C 95 % 1008,3 hPa 0,0 l/m 5,5 km/h (1 Bft) SW 234 0 min 0,000 mm 0,0 UV-I 0 W/m 12,6 C 13,4 C 6,4 km/h (2 Bft) 100,00 %
31.05.2016 04:17 13,4 C 95 % 1008,3 hPa 0,0 l/m 6,0 km/h (2 Bft) W-SW 254 0 min 0,000 mm 0,0 UV-I 0 W/m 12,6 C 13,4 C 8,0 km/h (2 Bft) 100,00 %
31.05.2016 04:18 13,4 C 95 % 1008,3 hPa 0,0 l/m 5,8 km/h (2 Bft) W-SW 253 0 min 0,000 mm 0,0 UV-I 0 W/m 12,6 C 13,4 C 8,0 km/h (2 Bft) 100,00 %
31.05.2016 04:19 13,4 C 95 % 1008,3 hPa 0,0 l/m 5,4 km/h (1 Bft) W-SW 252 0 min 0,000 mm 0,0 UV-I 0 W/m 12,6 C 13,4 C 8,0 km/h (2 Bft) 96,55 %
31.05.2016 04:20 13,5 C 95 % 1008,3 hPa 0,0 l/m 6,2 km/h (2 Bft) SW 224 0 min 0,000 mm 0,0 UV-I 0 W/m 12,7 C 13,5 C 8,0 km/h (2 Bft) 99,07 %
31.05.2016 04:21 13,5 C 95 % 1008,4 hPa 0,0 l/m 5,4 km/h (1 Bft) W-SW 244 0 min 0,000 mm 0,0 UV-I 0 W/m 12,7 C 13,5 C 8,0 km/h (2 Bft) 96,55 %
31.05.2016 04:22 13,5 C 95 % 1008,3 hPa 0,0 l/m 6,6 km/h (2 Bft) SW 236 0 min 0,000 mm 0,0 UV-I 0 W/m 12,7 C 13,4 C 8,0 km/h (2 Bft) 100,00 %
31.05.2016 04:23 13,5 C 95 % 1008,4 hPa 0,0 l/m 5,5 km/h (1 Bft) SW 235 0 min 0,000 mm 0,0 UV-I 0 W/m 12,7 C 13,5 C 6,4 km/h (2 Bft) 100,00 %
31.05.2016 04:24 13,5 C 95 % 1008,4 hPa 0,0 l/m 6,9 km/h (2 Bft) W-SW 244 0 min 0,000 mm 0,0 UV-I 0 W/m 12,7 C 13,2 C 9,7 km/h (2 Bft) 100,00 %
31.05.2016 04:25 13,5 C 95 % 1008,4 hPa 0,0 l/m 6,8 km/h (2 Bft) W-SW 244 0 min 0,000 mm 0,0 UV-I 0 W/m 12,7 C 13,3 C 9,7 km/h (2 Bft) 100,00 %
31.05.2016 04:26 13,5 C 95 % 1008,4 hPa 0,0 l/m 6,9 km/h (2 Bft) S-SW 207 0 min 0,000 mm 0,0 UV-I 0 W/m 12,7 C 13,2 C 12,9 km/h (3 Bft) 100,00 %
31.05.2016 04:27 13,5 C 95 % 1008,4 hPa 0,0 l/m 6,3 km/h (2 Bft) W-SW 240 0 min 0,000 mm 0,0 UV-I 0 W/m 12,7 C 13,5 C 8,0 km/h (2 Bft) 100,00 %
31.05.2016 04:28 13,5 C 95 % 1008,4 hPa 0,0 l/m 6,3 km/h (2 Bft) W-SW 243 0 min 0,000 mm 0,0 UV-I 0 W/m 12,7 C 13,5 C 11,3 km/h (2 Bft) 100,00 %
31.05.2016 04:29 13,5 C 95 % 1008,4 hPa 0,0 l/m 6,8 km/h (2 Bft) W-SW 248 0 min 0,000 mm 0,0 UV-I 0 W/m 12,7 C 13,3 C 11,3 km/h (2 Bft) 100,00 %
31.05.2016 04:30 13,5 C 95 % 1008,4 hPa 0,0 l/m 8,0 km/h (2 Bft) W-SW 244 0 min 0,000 mm 0,0 UV-I 0 W/m 12,7 C 12,5 C 11,3 km/h (2 Bft) 100,00 %
31.05.2016 04:31 13,5 C 95 % 1008,4 hPa 0,0 l/m 6,6 km/h (2 Bft) SW 232 0 min 0,000 mm 0,0 UV-I 0 W/m 12,7 C 13,4 C 11,3 km/h (2 Bft) 100,00 %
31.05.2016 04:32 13,5 C 95 % 1008,4 hPa 0,0 l/m 6,9 km/h (2 Bft) W-SW 257 0 min 0,000 mm 0,0 UV-I 0 W/m 12,7 C 13,2 C 9,7 km/h (2 Bft) 100,00 %
31.05.2016 04:33 13,5 C 95 % 1008,4 hPa 0,0 l/m 7,1 km/h (2 Bft) W 267 0 min 0,000 mm 0,0 UV-I 0 W/m 12,7 C 13,1 C 11,3 km/h (2 Bft) 100,00 %
31.05.2016 04:34 13,5 C 95 % 1008,4 hPa 0,0 l/m 7,2 km/h (2 Bft) W 262 0 min 0,000 mm 0,0 UV-I 0 W/m 12,7 C 13,0 C 11,3 km/h (2 Bft) 100,00 %
31.05.2016 04:35 13,6 C 95 % 1008,4 hPa 0,0 l/m 5,3 km/h (1 Bft) W-SW 253 0 min 0,000 mm 0,0 UV-I 0 W/m 12,8 C 13,6 C 6,4 km/h (2 Bft) 95,65 %
31.05.2016 04:36 13,6 C 95 % 1008,4 hPa 0,0 l/m 5,0 km/h (1 Bft) W-SW 243 0 min 0,000 mm 0,0 UV-I 0 W/m 12,8 C 13,6 C 6,4 km/h (2 Bft) 100,00 %
31.05.2016 04:37 13,6 C 95 % 1008,4 hPa 0,0 l/m 5,8 km/h (2 Bft) W-SW 244 0 min 0,000 mm 0,0 UV-I 0 W/m 12,8 C 13,6 C 8,0 km/h (2 Bft) 100,00 %
31.05.2016 04:38 13,6 C 95 % 1008,4 hPa 0,0 l/m 5,2 km/h (1 Bft) W-SW 242 0 min 0,000 mm 0,0 UV-I 0 W/m 12,8 C 13,6 C 6,4 km/h (2 Bft) 100,00 %
31.05.2016 04:39 13,6 C 95 % 1008,4 hPa 0,0 l/m 4,6 km/h (1 Bft) W-SW 237 0 min 0,000 mm 0,0 UV-I 0 W/m 12,8 C 13,6 C 6,4 km/h (2 Bft) 96,30 %
31.05.2016 04:40 13,6 C 95 % 1008,4 hPa 0,0 l/m 5,7 km/h (1 Bft) SW 233 0 min 0,000 mm 0,0 UV-I 0 W/m 12,8 C 13,6 C 8,0 km/h (2 Bft) 100,00 %
31.05.2016 04:41 13,6 C 95 % 1008,4 hPa 0,0 l/m 8,1 km/h (2 Bft) SW 226 0 min 0,000 mm 0,0 UV-I 0 W/m 12,8 C 12,6 C 9,7 km/h (2 Bft) 100,00 %
31.05.2016 04:42 13,6 C 95 % 1008,4 hPa 0,0 l/m 6,7 km/h (2 Bft) SW 225 0 min 0,000 mm 0,0 UV-I 0 W/m 12,8 C 13,4 C 8,0 km/h (2 Bft) 100,00 %
31.05.2016 04:43 13,6 C 95 % 1008,4 hPa 0,0 l/m 5,6 km/h (1 Bft) SW 232 0 min 0,000 mm 0,0 UV-I 0 W/m 12,8 C 13,6 C 8,0 km/h (2 Bft) 100,00 %
31.05.2016 04:44 13,6 C 95 % 1008,4 hPa 0,0 l/m 4,5 km/h (1 Bft) SW 215 0 min 0,000 mm 0,0 UV-I 0 W/m 12,8 C 13,6 C 6,4 km/h (2 Bft) 100,00 %
31.05.2016 04:45 13,6 C 95 % 1008,4 hPa 0,0 l/m 4,2 km/h (1 Bft) S-SW 209 0 min 0,000 mm 0,0 UV-I 0 W/m 12,8 C 13,6 C 6,4 km/h (2 Bft) 100,00 %
31.05.2016 04:46 13,6 C 95 % 1008,5 hPa 0,2 l/m 4,2 km/h (1 Bft) SW 235 0 min 0,000 mm 0,0 UV-I 0 W/m 12,8 C 13,6 C 6,4 km/h (2 Bft) 100,00 %
31.05.2016 04:47 13,6 C 95 % 1008,5 hPa 0,0 l/m 4,8 km/h (1 Bft) S-SW 199 0 min 0,000 mm 0,0 UV-I 0 W/m 12,8 C 13,6 C 8,0 km/h (2 Bft) 95,83 %
31.05.2016 04:48 13,6 C 95 % 1008,4 hPa 0,0 l/m 3,9 km/h (1 Bft) SW 221 0 min 0,000 mm 0,0 UV-I 0 W/m 12,8 C 13,6 C 6,4 km/h (2 Bft) 100,00 %
31.05.2016 04:49 13,6 C 95 % 1008,4 hPa 0,0 l/m 5,0 km/h (1 Bft) SW 225 0 min 0,000 mm 0,0 UV-I 0 W/m 12,8 C 13,6 C 6,4 km/h (2 Bft) 100,00 %
31.05.2016 04:50 13,6 C 95 % 1008,4 hPa 0,0 l/m 5,4 km/h (1 Bft) S 188 0 min 0,000 mm 0,0 UV-I 0 W/m 12,8 C 13,6 C 6,4 km/h (2 Bft) 100,00 %
31.05.2016 04:51 13,6 C 95 % 1008,4 hPa 0,0 l/m 5,1 km/h (1 Bft) SW 229 0 min 0,000 mm 0,0 UV-I 0 W/m 12,8 C 13,6 C 6,4 km/h (2 Bft) 95,83 %
31.05.2016 04:52 13,6 C 95 % 1008,5 hPa 0,0 l/m 3,4 km/h (1 Bft) SW 226 0 min 0,000 mm 0,0 UV-I 0 W/m 12,8 C 13,6 C 6,4 km/h (2 Bft) 100,00 %
31.05.2016 04:53 13,6 C 95 % 1008,4 hPa 0,0 l/m 4,3 km/h (1 Bft) SW 216 0 min 0,000 mm 0,0 UV-I 0 W/m 12,8 C 13,6 C 6,4 km/h (2 Bft) 95,83 %
31.05.2016 04:54 13,6 C 95 % 1008,4 hPa 0,0 l/m 2,4 km/h (1 Bft) S-SW 203 0 min 0,000 mm 0,0 UV-I 0 W/m 12,8 C 13,6 C 4,8 km/h (1 Bft) 91,30 %
31.05.2016 04:55 13,6 C 95 % 1008,5 hPa 0,0 l/m 5,3 km/h (1 Bft) SW 236 0 min 0,000 mm 0,0 UV-I 0 W/m 12,8 C 13,6 C 8,0 km/h (2 Bft) 100,00 %
31.05.2016 04:56 13,6 C 95 % 1008,4 hPa 0,0 l/m 4,6 km/h (1 Bft) SW 234 0 min 0,000 mm 0,0 UV-I 0 W/m 12,8 C 13,6 C 6,4 km/h (2 Bft) 95,65 %
31.05.2016 04:57 13,6 C 95 % 1008,4 hPa 0,0 l/m 5,1 km/h (1 Bft) S-SW 211 0 min 0,000 mm 0,0 UV-I 0 W/m 12,8 C 13,6 C 6,4 km/h (2 Bft) 100,00 %
31.05.2016 04:58 13,6 C 95 % 1008,4 hPa 0,0 l/m 3,2 km/h (1 Bft) S-SW 211 0 min 0,000 mm 0,0 UV-I 0 W/m 12,8 C 13,6 C 4,8 km/h (1 Bft) 86,96 %
31.05.2016 04:59 13,6 C 95 % 1008,4 hPa 0,0 l/m 4,7 km/h (1 Bft) SW 232 0 min 0,000 mm 0,0 UV-I 0 W/m 12,8 C 13,6 C 6,4 km/h (2 Bft) 100,00 %
31.05.2016 05:00 13,6 C 95 % 1008,5 hPa 0,0 l/m 4,5 km/h (1 Bft) SW 236 0 min 0,000 mm 0,0 UV-I 0 W/m 12,8 C 13,6 C 6,4 km/h (2 Bft) 91,67 %
31.05.2016 05:02 13,6 C 95 % 1008,5 hPa 0,2 l/m 3,9 km/h (1 Bft) SW 234 0 min 0,000 mm 0,0 UV-I 0 W/m 12,8 C 13,6 C 6,4 km/h (2 Bft) 97,96 %
31.05.2016 05:03 13,6 C 95 % 1008,5 hPa 0,0 l/m 4,3 km/h (1 Bft) SW 217 0 min 0,000 mm 0,0 UV-I 0 W/m 12,8 C 13,6 C 8,0 km/h (2 Bft) 100,00 %
31.05.2016 05:04 13,6 C 95 % 1008,5 hPa 0,0 l/m 6,2 km/h (2 Bft) S-SW 211 0 min 0,000 mm 0,0 UV-I 0 W/m 12,8 C 13,6 C 8,0 km/h (2 Bft) 95,83 %
31.05.2016 05:05 13,6 C 95 % 1008,5 hPa 0,0 l/m 4,8 km/h (1 Bft) S-SW 192 0 min 0,000 mm 0,0 UV-I 0 W/m 12,8 C 13,6 C 8,0 km/h (2 Bft) 95,65 %
31.05.2016 05:06 13,6 C 95 % 1008,5 hPa 0,0 l/m 6,3 km/h (2 Bft) S-SW 201 0 min 0,000 mm 0,0 UV-I 0 W/m 12,8 C 13,6 C 8,0 km/h (2 Bft) 100,00 %
31.05.2016 05:07 13,6 C 95 % 1008,4 hPa 0,0 l/m 5,9 km/h (2 Bft) S-SW 205 0 min 0,000 mm 0,0 UV-I 0 W/m 12,8 C 13,6 C 8,0 km/h (2 Bft) 91,30 %
31.05.2016 05:08 13,6 C 95 % 1008,4 hPa 0,0 l/m 4,0 km/h (1 Bft) SW 231 0 min 0,000 mm 0,0 UV-I 0 W/m 12,8 C 13,6 C 4,8 km/h (1 Bft) 100,00 %
31.05.2016 05:09 13,6 C 95 % 1008,4 hPa 0,0 l/m 4,1 km/h (1 Bft) S-SW 207 0 min 0,000 mm 0,0 UV-I 0 W/m 12,8 C 13,6 C 6,4 km/h (2 Bft) 91,30 %
31.05.2016 05:10 13,6 C 95 % 1008,4 hPa 0,0 l/m 4,4 km/h (1 Bft) S-SW 213 0 min 0,000 mm 0,0 UV-I 0 W/m 12,8 C 13,6 C 8,0 km/h (2 Bft) 95,83 %
31.05.2016 05:11 13,6 C 95 % 1008,4 hPa 0,0 l/m 4,8 km/h (1 Bft) S-SW 210 0 min 0,000 mm 0,0 UV-I 0 W/m 12,8 C 13,6 C 6,4 km/h (2 Bft) 95,65 %
31.05.2016 05:12 13,6 C 95 % 1008,4 hPa 0,0 l/m 4,0 km/h (1 Bft) SW 221 0 min 0,000 mm 0,0 UV-I 0 W/m 12,8 C 13,6 C 6,4 km/h (2 Bft) 100,00 %
31.05.2016 05:13 13,6 C 95 % 1008,4 hPa 0,0 l/m 4,0 km/h (1 Bft) S-SW 213 0 min 0,000 mm 0,0 UV-I 0 W/m 12,8 C 13,6 C 4,8 km/h (1 Bft) 91,30 %
31.05.2016 05:14 13,6 C 95 % 1008,4 hPa 0,0 l/m 3,0 km/h (1 Bft) S-SW 213 0 min 0,000 mm 0,0 UV-I 0 W/m 12,8 C 13,6 C 4,8 km/h (1 Bft) 91,67 %
31.05.2016 05:15 13,6 C 95 % 1008,4 hPa 0,2 l/m 5,1 km/h (1 Bft) S 182 0 min 0,000 mm 0,0 UV-I 0 W/m 12,8 C 13,6 C 8,0 km/h (2 Bft) 100,00 %
31.05.2016 05:16 13,6 C 95 % 1008,4 hPa 0,0 l/m 5,3 km/h (1 Bft) S 184 0 min 0,000 mm 0,0 UV-I 0 W/m 12,8 C 13,6 C 8,0 km/h (2 Bft) 91,67 %
31.05.2016 05:17 13,6 C 95 % 1008,4 hPa 0,0 l/m 6,6 km/h (2 Bft) S 186 0 min 0,000 mm 0,0 UV-I 0 W/m 12,8 C 13,5 C 8,0 km/h (2 Bft) 95,83 %
31.05.2016 05:18 13,6 C 95 % 1008,4 hPa 0,0 l/m 4,2 km/h (1 Bft) SW 216 0 min 0,000 mm 0,0 UV-I 0 W/m 12,8 C 13,6 C 4,8 km/h (1 Bft) 96,15 %
31.05.2016 05:19 13,6 C 95 % 1008,4 hPa 0,0 l/m 5,5 km/h (1 Bft) SW 217 0 min 0,000 mm 0,0 UV-I 0 W/m 12,8 C 13,6 C 8,0 km/h (2 Bft) 100,00 %
31.05.2016 05:20 13,6 C 95 % 1008,5 hPa 0,0 l/m 4,6 km/h (1 Bft) S-SW 210 0 min 0,000 mm 0,0 UV-I 0 W/m 12,8 C 13,6 C 6,4 km/h (2 Bft) 91,30 %
31.05.2016 05:21 13,6 C 95 % 1008,4 hPa 0,0 l/m 7,0 km/h (2 Bft) S 180 0 min 0,000 mm 0,0 UV-I 0 W/m 12,8 C 13,2 C 9,7 km/h (2 Bft) 96,30 %
31.05.2016 05:22 13,6 C 95 % 1008,4 hPa 0,2 l/m 8,2 km/h (2 Bft) S-SW 198 0 min 0,000 mm 0,0 UV-I 0 W/m 12,8 C 12,5 C 11,3 km/h (2 Bft) 100,00 %
31.05.2016 05:23 13,6 C 95 % 1008,4 hPa 0,0 l/m 5,9 km/h (2 Bft) W-SW 248 0 min 0,000 mm 0,0 UV-I 0 W/m 12,8 C 13,6 C 8,0 km/h (2 Bft) 96,30 %
31.05.2016 05:24 13,6 C 95 % 1008,4 hPa 0,0 l/m 5,2 km/h (1 Bft) SW 235 0 min 0,000 mm 0,0 UV-I 0 W/m 12,8 C 13,6 C 8,0 km/h (2 Bft) 100,00 %
31.05.2016 05:25 13,6 C 96 % 1008,4 hPa 0,0 l/m 5,4 km/h (1 Bft) SW 232 0 min 0,000 mm 0,0 UV-I 0 W/m 13,0 C 13,6 C 9,7 km/h (2 Bft) 100,00 %
31.05.2016 05:26 13,6 C 96 % 1008,4 hPa 0,0 l/m 4,8 km/h (1 Bft) SW 229 0 min 0,000 mm 0,0 UV-I 0 W/m 13,0 C 13,6 C 6,4 km/h (2 Bft) 91,30 %
31.05.2016 05:27 13,5 C 95 % 1008,4 hPa 0,0 l/m 6,9 km/h (2 Bft) SW 234 0 min 0,000 mm 0,0 UV-I 0 W/m 12,7 C 13,2 C 11,3 km/h (2 Bft) 95,83 %
31.05.2016 05:28 13,6 C 95 % 1008,4 hPa 0,0 l/m 7,0 km/h (2 Bft) SW 227 0 min 0,000 mm 0,0 UV-I 0 W/m 12,8 C 13,2 C 9,7 km/h (2 Bft) 100,00 %
31.05.2016 05:29 13,5 C 96 % 1008,4 hPa 0,0 l/m 3,6 km/h (1 Bft) S-SW 212 0 min 0,000 mm 0,0 UV-I 0 W/m 12,9 C 13,5 C 6,4 km/h (2 Bft) 100,00 %
31.05.2016 05:30 13,6 C 96 % 1008,4 hPa 0,2 l/m 4,9 km/h (1 Bft) SW 231 0 min 0,000 mm 0,0 UV-I 0 W/m 13,0 C 13,6 C 8,0 km/h (2 Bft) 100,00 %
31.05.2016 05:31 13,5 C 95 % 1008,4 hPa 0,0 l/m 6,6 km/h (2 Bft) SW 224 0 min 0,000 mm 0,0 UV-I 0 W/m 12,7 C 13,4 C 9,7 km/h (2 Bft) 100,00 %
31.05.2016 05:32 13,5 C 95 % 1008,4 hPa 0,0 l/m 9,9 km/h (2 Bft) W-SW 238 0 min 0,000 mm 0,0 UV-I 0 W/m 12,7 C 11,5 C 12,9 km/h (3 Bft) 91,30 %
31.05.2016 05:33 13,5 C 96 % 1008,4 hPa 0,2 l/m 7,4 km/h (2 Bft) SW 225 0 min 0,000 mm 0,0 UV-I 0 W/m 12,9 C 12,9 C 9,7 km/h (2 Bft) 100,00 %
31.05.2016 05:34 13,5 C 95 % 1008,4 hPa 0,0 l/m 4,7 km/h (1 Bft) SW 217 0 min 0,000 mm 0,0 UV-I 0 W/m 12,7 C 13,5 C 6,4 km/h (2 Bft) 92,86 %
31.05.2016 05:35 13,5 C 95 % 1008,4 hPa 0,0 l/m 4,4 km/h (1 Bft) S-SW 192 0 min 0,000 mm 0,0 UV-I 0 W/m 12,7 C 13,5 C 6,4 km/h (2 Bft) 100,00 %
31.05.2016 05:36 13,5 C 96 % 1008,4 hPa 0,0 l/m 6,1 km/h (2 Bft) SW 220 0 min 0,000 mm 0,0 UV-I 0 W/m 12,9 C 13,5 C 8,0 km/h (2 Bft) 95,83 %
31.05.2016 05:37 13,5 C 96 % 1008,4 hPa 0,0 l/m 5,6 km/h (1 Bft) SW 222 0 min 0,000 mm 0,0 UV-I 0 W/m 12,9 C 13,5 C 8,0 km/h (2 Bft) 95,65 %
31.05.2016 05:38 13,4 C 96 % 1008,4 hPa 0,0 l/m 6,1 km/h (2 Bft) S-SW 210 0 min 0,000 mm 0,0 UV-I 0 W/m 12,8 C 13,4 C 11,3 km/h (2 Bft) 100,00 %
31.05.2016 05:39 13,4 C 96 % 1008,4 hPa 0,0 l/m 4,5 km/h (1 Bft) SW 225 0 min 0,000 mm 0,0 UV-I 0 W/m 12,8 C 13,4 C 6,4 km/h (2 Bft) 100,00 %
31.05.2016 05:40 13,5 C 96 % 1008,4 hPa 0,0 l/m 5,1 km/h (1 Bft) S-SO 168 0 min 0,000 mm 0,0 UV-I 0 W/m 12,9 C 13,5 C 8,0 km/h (2 Bft) 100,00 %
31.05.2016 05:41 13,4 C 96 % 1008,4 hPa 0,2 l/m 6,2 km/h (2 Bft) S-SW 209 0 min 0,000 mm 0,0 UV-I 0 W/m 12,8 C 13,4 C 8,0 km/h (2 Bft) 100,00 %
31.05.2016 05:42 13,4 C 96 % 1008,4 hPa 0,0 l/m 7,0 km/h (2 Bft) SW 216 0 min 0,000 mm 0,0 UV-I 0 W/m 12,8 C 13,0 C 9,7 km/h (2 Bft) 100,00 %
31.05.2016 05:43 13,4 C 96 % 1008,4 hPa 0,0 l/m 5,6 km/h (1 Bft) S 172 0 min 0,000 mm 0,0 UV-I 0 W/m 12,8 C 13,4 C 8,0 km/h (2 Bft) 92,31 %
31.05.2016 05:44 13,5 C 96 % 1008,4 hPa 0,0 l/m 9,0 km/h (2 Bft) W-SW 244 0 min 0,000 mm 0,0 UV-I 5 W/m 12,9 C 12,0 C 14,5 km/h (3 Bft) 100,00 %
31.05.2016 05:45 13,5 C 96 % 1008,5 hPa 0,0 l/m 6,9 km/h (2 Bft) S-SW 205 0 min 0,000 mm 0,0 UV-I 5 W/m 12,9 C 13,2 C 9,7 km/h (2 Bft) 95,65 %
31.05.2016 05:46 13,5 C 96 % 1008,5 hPa 0,0 l/m 4,1 km/h (1 Bft) W 259 0 min 0,000 mm 0,0 UV-I 5 W/m 12,9 C 13,5 C 6,4 km/h (2 Bft) 100,00 %
31.05.2016 05:47 13,5 C 96 % 1008,5 hPa 0,0 l/m 4,8 km/h (1 Bft) SW 215 0 min 0,000 mm 0,0 UV-I 5 W/m 12,9 C 13,5 C 6,4 km/h (2 Bft) 100,00 %
31.05.2016 05:48 13,4 C 96 % 1008,5 hPa 0,0 l/m 3,6 km/h (1 Bft) SW 229 0 min 0,000 mm 0,0 UV-I 5 W/m 12,8 C 13,4 C 6,4 km/h (2 Bft) 100,00 %
31.05.2016 05:49 13,5 C 96 % 1008,5 hPa 0,0 l/m 6,4 km/h (2 Bft) W-SW 242 0 min 0,000 mm 0,0 UV-I 5 W/m 12,9 C 13,5 C 8,0 km/h (2 Bft) 95,65 %
31.05.2016 05:50 13,5 C 96 % 1008,5 hPa 0,0 l/m 3,2 km/h (1 Bft) W-SW 238 0 min 0,000 mm 0,0 UV-I 5 W/m 12,9 C 13,5 C 4,8 km/h (1 Bft) 100,00 %
31.05.2016 05:51 13,5 C 96 % 1008,5 hPa 0,2 l/m 3,5 km/h (1 Bft) S 185 0 min 0,000 mm 0,0 UV-I 5 W/m 12,9 C 13,5 C 6,4 km/h (2 Bft) 95,65 %
31.05.2016 05:52 13,4 C 96 % 1008,5 hPa 0,0 l/m 4,8 km/h (1 Bft) SW 221 0 min 0,000 mm 0,0 UV-I 7 W/m 12,8 C 13,4 C 6,4 km/h (2 Bft) 100,00 %
31.05.2016 05:53 13,4 C 96 % 1008,5 hPa 0,0 l/m 6,1 km/h (2 Bft) W-SW 248 0 min 0,000 mm 0,0 UV-I 7 W/m 12,8 C 13,4 C 8,0 km/h (2 Bft) 96,15 %
31.05.2016 05:54 13,4 C 96 % 1008,5 hPa 0,0 l/m 5,6 km/h (1 Bft) SW 219 0 min 0,000 mm 0,0 UV-I 7 W/m 12,8 C 13,4 C 9,7 km/h (2 Bft) 95,83 %
31.05.2016 05:55 13,4 C 96 % 1008,5 hPa 0,0 l/m 6,0 km/h (2 Bft) S-SW 205 0 min 0,000 mm 0,0 UV-I 7 W/m 12,8 C 13,4 C 8,0 km/h (2 Bft) 95,65 %
31.05.2016 05:56 13,4 C 96 % 1008,5 hPa 0,0 l/m 7,2 km/h (2 Bft) SW 219 0 min 0,000 mm 0,0 UV-I 7 W/m 12,8 C 12,9 C 11,3 km/h (2 Bft) 100,00 %
31.05.2016 05:57 13,4 C 96 % 1008,5 hPa 0,0 l/m 5,9 km/h (2 Bft) SW 235 0 min 0,000 mm 0,0 UV-I 9 W/m 12,8 C 13,4 C 9,7 km/h (2 Bft) 100,00 %
31.05.2016 05:58 13,4 C 96 % 1008,5 hPa 0,0 l/m 2,8 km/h (1 Bft) SW 217 0 min 0,000 mm 0,0 UV-I 9 W/m 12,8 C 13,4 C 4,8 km/h (1 Bft) 100,00 %
31.05.2016 05:59 13,4 C 96 % 1008,5 hPa 0,0 l/m 6,9 km/h (2 Bft) SW 229 0 min 0,000 mm 0,0 UV-I 9 W/m 12,8 C 13,1 C 9,7 km/h (2 Bft) 95,65 %
31.05.2016 06:00 13,4 C 96 % 1008,5 hPa 0,0 l/m 4,4 km/h (1 Bft) S 187 0 min 0,000 mm 0,0 UV-I 9 W/m 12,8 C 13,4 C 6,4 km/h (2 Bft) 100,00 %
31.05.2016 06:02 13,4 C 96 % 1008,5 hPa 0,0 l/m 6,4 km/h (2 Bft) SW 226 0 min 0,000 mm 0,0 UV-I 11 W/m 12,8 C 13,4 C 8,0 km/h (2 Bft) 97,87 %
31.05.2016 06:03 13,4 C 96 % 1008,5 hPa 0,0 l/m 6,6 km/h (2 Bft) SW 233 0 min 0,000 mm 0,0 UV-I 11 W/m 12,8 C 13,3 C 11,3 km/h (2 Bft) 100,00 %
31.05.2016 06:04 13,4 C 96 % 1008,5 hPa 0,0 l/m 7,0 km/h (2 Bft) W-SW 240 0 min 0,000 mm 0,0 UV-I 11 W/m 12,8 C 13,0 C 12,9 km/h (3 Bft) 100,00 %
31.05.2016 06:05 13,4 C 96 % 1008,5 hPa 0,2 l/m 6,4 km/h (2 Bft) SW 231 0 min 0,000 mm 0,0 UV-I 12 W/m 12,8 C 13,4 C 11,3 km/h (2 Bft) 100,00 %
31.05.2016 06:06 13,4 C 96 % 1008,4 hPa 0,0 l/m 6,9 km/h (2 Bft) SW 219 0 min 0,000 mm 0,0 UV-I 12 W/m 12,8 C 13,1 C 12,9 km/h (3 Bft) 95,65 %
31.05.2016 06:07 13,4 C 96 % 1008,4 hPa 0,0 l/m 7,9 km/h (2 Bft) SW 229 0 min 0,000 mm 0,0 UV-I 12 W/m 12,8 C 12,5 C 12,9 km/h (3 Bft) 100,00 %
31.05.2016 06:08 13,4 C 96 % 1008,4 hPa 0,0 l/m 10,1 km/h (2 Bft) SW 221 0 min 0,000 mm 0,0 UV-I 12 W/m 12,8 C 11,3 C 12,9 km/h (3 Bft) 100,00 %
31.05.2016 06:09 13,4 C 96 % 1008,4 hPa 0,0 l/m 8,3 km/h (2 Bft) W-SW 250 0 min 0,000 mm 0,0 UV-I 12 W/m 12,8 C 12,2 C 11,3 km/h (2 Bft) 100,00 %
31.05.2016 06:10 13,4 C 96 % 1008,4 hPa 0,0 l/m 7,0 km/h (2 Bft) SW 225 0 min 0,000 mm 0,0 UV-I 13 W/m 12,8 C 13,0 C 8,0 km/h (2 Bft) 100,00 %
31.05.2016 06:11 13,4 C 96 % 1008,4 hPa 0,0 l/m 8,2 km/h (2 Bft) SO 146 0 min 0,000 mm 0,0 UV-I 14 W/m 12,8 C 12,3 C 12,9 km/h (3 Bft) 100,00 %
31.05.2016 06:12 13,4 C 96 % 1008,4 hPa 0,0 l/m 7,0 km/h (2 Bft) W-SW 239 0 min 0,000 mm 0,0 UV-I 14 W/m 12,8 C 13,0 C 9,7 km/h (2 Bft) 95,65 %
31.05.2016 06:13 13,4 C 96 % 1008,4 hPa 0,0 l/m 7,5 km/h (2 Bft) SW 235 0 min 0,000 mm 0,0 UV-I 14 W/m 12,8 C 12,7 C 9,7 km/h (2 Bft) 100,00 %
31.05.2016 06:14 13,4 C 96 % 1008,4 hPa 0,0 l/m 6,4 km/h (2 Bft) W-SW 245 0 min 0,000 mm 0,0 UV-I 16 W/m 12,8 C 13,4 C 11,3 km/h (2 Bft) 100,00 %
31.05.2016 06:15 13,4 C 96 % 1008,4 hPa 0,0 l/m 7,3 km/h (2 Bft) W-SW 249 0 min 0,000 mm 0,0 UV-I 16 W/m 12,8 C 12,8 C 9,7 km/h (2 Bft) 100,00 %
31.05.2016 06:16 13,4 C 96 % 1008,4 hPa 0,0 l/m 5,1 km/h (1 Bft) S-SW 194 0 min 0,000 mm 0,0 UV-I 16 W/m 12,8 C 13,4 C 6,4 km/h (2 Bft) 96,15 %
31.05.2016 06:17 13,4 C 96 % 1008,4 hPa 0,0 l/m 7,9 km/h (2 Bft) SW 225 0 min 0,000 mm 0,0 UV-I 17 W/m 12,8 C 12,5 C 11,3 km/h (2 Bft) 100,00 %
31.05.2016 06:18 13,4 C 96 % 1008,4 hPa 0,0 l/m 5,1 km/h (1 Bft) S-SW 204 0 min 0,000 mm 0,0 UV-I 18 W/m 12,8 C 13,4 C 8,0 km/h (2 Bft) 100,00 %
31.05.2016 06:19 13,4 C 96 % 1008,5 hPa 0,0 l/m 6,9 km/h (2 Bft) S-SW 202 0 min 0,000 mm 0,0 UV-I 18 W/m 12,8 C 13,1 C 9,7 km/h (2 Bft) 100,00 %
31.05.2016 06:20 13,4 C 96 % 1008,5 hPa 0,0 l/m 5,7 km/h (1 Bft) S-SW 199 0 min 0,000 mm 0,0 UV-I 18 W/m 12,8 C 13,4 C 9,7 km/h (2 Bft) 100,00 %
31.05.2016 06:21 13,4 C 96 % 1008,5 hPa 0,0 l/m 5,7 km/h (1 Bft) S-SW 194 0 min 0,000 mm 0,0 UV-I 18 W/m 12,8 C 13,4 C 9,7 km/h (2 Bft) 100,00 %
31.05.2016 06:22 13,4 C 96 % 1008,4 hPa 0,2 l/m 6,6 km/h (2 Bft) SW 219 0 min 0,000 mm 0,0 UV-I 18 W/m 12,8 C 13,3 C 8,0 km/h (2 Bft) 100,00 %
31.05.2016 06:23 13,4 C 96 % 1008,4 hPa 0,0 l/m 5,4 km/h (1 Bft) S-SW 204 0 min 0,000 mm 0,0 UV-I 18 W/m 12,8 C 13,4 C 8,0 km/h (2 Bft) 95,65 %
31.05.2016 06:24 13,4 C 96 % 1008,4 hPa 0,0 l/m 5,3 km/h (1 Bft) W-SW 245 0 min 0,000 mm 0,0 UV-I 18 W/m 12,8 C 13,4 C 8,0 km/h (2 Bft) 95,83 %
31.05.2016 06:25 13,4 C 96 % 1008,4 hPa 0,0 l/m 9,3 km/h (2 Bft) W-SW 239 0 min 0,000 mm 0,0 UV-I 18 W/m 12,8 C 11,7 C 12,9 km/h (3 Bft) 95,65 %
31.05.2016 06:26 13,4 C 96 % 1008,5 hPa 0,0 l/m 5,3 km/h (1 Bft) S-SW 205 0 min 0,000 mm 0,0 UV-I 18 W/m 12,8 C 13,4 C 9,7 km/h (2 Bft) 100,00 %
31.05.2016 06:27 13,4 C 96 % 1008,5 hPa 0,0 l/m 6,0 km/h (2 Bft) SW 224 0 min 0,000 mm 0,0 UV-I 19 W/m 12,8 C 13,4 C 8,0 km/h (2 Bft) 100,00 %
31.05.2016 06:28 13,4 C 96 % 1008,5 hPa 0,0 l/m 5,2 km/h (1 Bft) S-SW 205 0 min 0,000 mm 0,0 UV-I 19 W/m 12,8 C 13,4 C 9,7 km/h (2 Bft) 95,83 %
31.05.2016 06:29 13,4 C 96 % 1008,4 hPa 0,0 l/m 6,8 km/h (2 Bft) S-SW 197 0 min 0,000 mm 0,0 UV-I 19 W/m 12,8 C 13,2 C 11,3 km/h (2 Bft) 100,00 %
31.05.2016 06:30 13,3 C 96 % 1008,5 hPa 0,0 l/m 6,7 km/h (2 Bft) W-SW 243 0 min 0,000 mm 0,0 UV-I 21 W/m 12,7 C 13,1 C 12,9 km/h (3 Bft) 100,00 %
31.05.2016 06:31 13,3 C 96 % 1008,4 hPa 0,0 l/m 7,2 km/h (2 Bft) S-SW 205 0 min 0,000 mm 0,0 UV-I 21 W/m 12,7 C 12,8 C 12,9 km/h (3 Bft) 100,00 %
31.05.2016 06:32 13,4 C 96 % 1008,4 hPa 0,0 l/m 6,6 km/h (2 Bft) S 178 0 min 0,000 mm 0,0 UV-I 22 W/m 12,8 C 13,3 C 11,3 km/h (2 Bft) 100,00 %
31.05.2016 06:33 13,4 C 96 % 1008,5 hPa 0,0 l/m 6,6 km/h (2 Bft) S-SW 201 0 min 0,000 mm 0,0 UV-I 23 W/m 12,8 C 13,3 C 8,0 km/h (2 Bft) 100,00 %
31.05.2016 06:34 13,3 C 96 % 1008,5 hPa 0,0 l/m 4,7 km/h (1 Bft) S 183 0 min 0,000 mm 0,0 UV-I 23 W/m 12,7 C 13,3 C 6,4 km/h (2 Bft) 100,00 %
31.05.2016 06:35 13,3 C 96 % 1008,5 hPa 0,0 l/m 5,6 km/h (1 Bft) S 173 0 min 0,000 mm 0,0 UV-I 24 W/m 12,7 C 13,3 C 8,0 km/h (2 Bft) 100,00 %
31.05.2016 06:36 13,3 C 96 % 1008,5 hPa 0,0 l/m 5,9 km/h (2 Bft) S-SW 200 0 min 0,000 mm 0,0 UV-I 25 W/m 12,7 C 13,3 C 8,0 km/h (2 Bft) 95,65 %
31.05.2016 06:37 13,3 C 96 % 1008,5 hPa 0,0 l/m 4,3 km/h (1 Bft) S-SW 207 0 min 0,000 mm 0,0 UV-I 25 W/m 12,7 C 13,3 C 6,4 km/h (2 Bft) 95,83 %
31.05.2016 06:38 13,4 C 96 % 1008,5 hPa 0,0 l/m 5,8 km/h (2 Bft) S-SW 198 0 min 0,000 mm 0,0 UV-I 26 W/m 12,8 C 13,4 C 8,0 km/h (2 Bft) 100,00 %
31.05.2016 06:39 13,4 C 96 % 1008,5 hPa 0,0 l/m 5,6 km/h (1 Bft) S-SW 207 0 min 0,000 mm 0,0 UV-I 26 W/m 12,8 C 13,4 C 6,4 km/h (2 Bft) 100,00 %
31.05.2016 06:40 13,4 C 96 % 1008,5 hPa 0,0 l/m 4,8 km/h (1 Bft) S-SW 193 0 min 0,000 mm 0,0 UV-I 26 W/m 12,8 C 13,4 C 6,4 km/h (2 Bft) 100,00 %
31.05.2016 06:41 13,4 C 96 % 1008,5 hPa 0,0 l/m 3,6 km/h (1 Bft) S-SW 194 0 min 0,000 mm 0,0 UV-I 27 W/m 12,8 C 13,4 C 8,0 km/h (2 Bft) 100,00 %
31.05.2016 06:42 13,4 C 96 % 1008,6 hPa 0,0 l/m 6,3 km/h (2 Bft) S-SW 192 0 min 0,000 mm 0,0 UV-I 28 W/m 12,8 C 13,4 C 8,0 km/h (2 Bft) 100,00 %
31.05.2016 06:43 13,4 C 96 % 1008,6 hPa 0,0 l/m 5,7 km/h (1 Bft) S-SW 200 0 min 0,000 mm 0,0 UV-I 30 W/m 12,8 C 13,4 C 6,4 km/h (2 Bft) 92,59 %
31.05.2016 06:44 13,4 C 96 % 1008,6 hPa 0,0 l/m 3,4 km/h (1 Bft) S 182 0 min 0,000 mm 0,0 UV-I 30 W/m 12,8 C 13,4 C 6,4 km/h (2 Bft) 95,65 %
31.05.2016 06:45 13,4 C 96 % 1008,6 hPa 0,0 l/m 3,5 km/h (1 Bft) S 182 0 min 0,000 mm 0,0 UV-I 32 W/m 12,8 C 13,4 C 6,4 km/h (2 Bft) 95,83 %
31.05.2016 06:46 13,4 C 96 % 1008,6 hPa 0,0 l/m 5,2 km/h (1 Bft) S-SW 195 0 min 0,000 mm 0,0 UV-I 32 W/m 12,8 C 13,4 C 6,4 km/h (2 Bft) 100,00 %
31.05.2016 06:47 13,4 C 96 % 1008,6 hPa 0,0 l/m 5,3 km/h (1 Bft) S 180 0 min 0,000 mm 0,0 UV-I 33 W/m 12,8 C 13,4 C 8,0 km/h (2 Bft) 95,83 %
31.05.2016 06:48 13,4 C 96 % 1008,6 hPa 0,0 l/m 4,5 km/h (1 Bft) S 174 0 min 0,000 mm 0,0 UV-I 33 W/m 12,8 C 13,4 C 6,4 km/h (2 Bft) 90,91 %
31.05.2016 06:49 13,4 C 96 % 1008,6 hPa 0,0 l/m 5,4 km/h (1 Bft) S-SO 159 0 min 0,000 mm 0,0 UV-I 33 W/m 12,8 C 13,4 C 8,0 km/h (2 Bft) 96,55 %
31.05.2016 06:50 13,4 C 96 % 1008,6 hPa 0,0 l/m 5,4 km/h (1 Bft) S 180 0 min 0,000 mm 0,0 UV-I 33 W/m 12,8 C 13,4 C 8,0 km/h (2 Bft) 100,00 %
31.05.2016 06:51 13,4 C 96 % 1008,6 hPa 0,0 l/m 5,0 km/h (1 Bft) S 186 0 min 0,000 mm 0,0 UV-I 33 W/m 12,8 C 13,4 C 8,0 km/h (2 Bft) 91,67 %
31.05.2016 06:52 13,4 C 95 % 1008,6 hPa 0,0 l/m 7,6 km/h (2 Bft) S 180 0 min 0,000 mm 0,0 UV-I 33 W/m 12,6 C 12,7 C 9,7 km/h (2 Bft) 100,00 %
31.05.2016 06:53 13,4 C 95 % 1008,6 hPa 0,0 l/m 7,8 km/h (2 Bft) S-SW 198 0 min 0,000 mm 0,0 UV-I 33 W/m 12,6 C 12,5 C 12,9 km/h (3 Bft) 95,83 %
31.05.2016 06:54 13,4 C 95 % 1008,6 hPa 0,0 l/m 8,7 km/h (2 Bft) S 189 0 min 0,000 mm 0,0 UV-I 33 W/m 12,6 C 12,0 C 11,3 km/h (2 Bft) 100,00 %
31.05.2016 06:55 13,4 C 95 % 1008,6 hPa 0,0 l/m 6,5 km/h (2 Bft) S 182 0 min 0,000 mm 0,0 UV-I 33 W/m 12,6 C 13,4 C 8,0 km/h (2 Bft) 91,67 %
31.05.2016 06:56 13,4 C 96 % 1008,6 hPa 0,0 l/m 6,5 km/h (2 Bft) S-SW 205 0 min 0,000 mm 0,0 UV-I 33 W/m 12,8 C 13,4 C 8,0 km/h (2 Bft) 95,65 %
31.05.2016 06:57 13,5 C 95 % 1008,6 hPa 0,0 l/m 8,3 km/h (2 Bft) S-SW 194 0 min 0,000 mm 0,0 UV-I 33 W/m 12,7 C 12,4 C 12,9 km/h (3 Bft) 100,00 %
31.05.2016 06:58 13,4 C 95 % 1008,6 hPa 0,0 l/m 7,2 km/h (2 Bft) S-SW 197 0 min 0,000 mm 0,0 UV-I 33 W/m 12,6 C 12,9 C 9,7 km/h (2 Bft) 91,67 %
31.05.2016 06:59 13,4 C 95 % 1008,6 hPa 0,0 l/m 6,6 km/h (2 Bft) S-SW 199 0 min 0,000 mm 0,0 UV-I 32 W/m 12,6 C 13,3 C 9,7 km/h (2 Bft) 100,00 %
31.05.2016 07:00 13,4 C 95 % 1008,6 hPa 0,0 l/m 7,1 km/h (2 Bft) S-SW 211 0 min 0,025 mm 0,0 UV-I 32 W/m 12,6 C 13,0 C 8,0 km/h (2 Bft) 95,83 %
31.05.2016 07:02 13,5 C 95 % 1008,7 hPa 0,0 l/m 8,6 km/h (2 Bft) S-SW 196 0 min 0,000 mm 0,0 UV-I 32 W/m 12,7 C 12,2 C 11,3 km/h (2 Bft) 97,87 %
31.05.2016 07:03 13,4 C 95 % 1008,8 hPa 0,0 l/m 9,0 km/h (2 Bft) S-SW 202 0 min 0,000 mm 0,0 UV-I 32 W/m 12,6 C 11,9 C 12,9 km/h (3 Bft) 100,00 %
31.05.2016 07:04 13,4 C 95 % 1008,7 hPa 0,0 l/m 7,8 km/h (2 Bft) S-SW 204 0 min 0,000 mm 0,0 UV-I 32 W/m 12,6 C 12,5 C 11,3 km/h (2 Bft) 96,77 %
31.05.2016 07:05 13,4 C 95 % 1008,8 hPa 0,0 l/m 6,9 km/h (2 Bft) W-SW 237 0 min 0,000 mm 0,0 UV-I 32 W/m 12,6 C 13,1 C 11,3 km/h (2 Bft) 100,00 %
31.05.2016 07:06 13,5 C 95 % 1008,7 hPa 0,0 l/m 8,3 km/h (2 Bft) W-SW 244 0 min 0,000 mm 0,0 UV-I 33 W/m 12,7 C 12,4 C 12,9 km/h (3 Bft) 95,83 %
31.05.2016 07:07 13,5 C 95 % 1008,7 hPa 0,0 l/m 6,6 km/h (2 Bft) SW 235 0 min 0,000 mm 0,0 UV-I 33 W/m 12,7 C 13,4 C 9,7 km/h (2 Bft) 95,65 %
31.05.2016 07:08 13,5 C 95 % 1008,8 hPa 0,0 l/m 8,7 km/h (2 Bft) SW 229 0 min 0,000 mm 0,0 UV-I 36 W/m 12,7 C 12,1 C 11,3 km/h (2 Bft) 100,00 %
31.05.2016 07:09 13,5 C 95 % 1008,8 hPa 0,0 l/m 6,8 km/h (2 Bft) SW 233 0 min 0,000 mm 0,0 UV-I 38 W/m 12,7 C 13,3 C 11,3 km/h (2 Bft) 95,65 %
31.05.2016 07:10 13,5 C 95 % 1008,8 hPa 0,0 l/m 7,4 km/h (2 Bft) SW 228 0 min 0,000 mm 0,0 UV-I 39 W/m 12,7 C 12,9 C 9,7 km/h (2 Bft) 100,00 %
31.05.2016 07:11 13,5 C 95 % 1008,8 hPa 0,0 l/m 6,9 km/h (2 Bft) SW 221 0 min 0,000 mm 0,0 UV-I 40 W/m 12,7 C 13,2 C 9,7 km/h (2 Bft) 95,65 %
31.05.2016 07:12 13,5 C 95 % 1008,7 hPa 0,0 l/m 7,6 km/h (2 Bft) SW 229 0 min 0,000 mm 0,0 UV-I 40 W/m 12,7 C 12,8 C 9,7 km/h (2 Bft) 100,00 %
31.05.2016 07:13 13,5 C 95 % 1008,7 hPa 0,0 l/m 8,7 km/h (2 Bft) SW 233 0 min 0,000 mm 0,0 UV-I 42 W/m 12,7 C 12,1 C 11,3 km/h (2 Bft) 91,30 %
31.05.2016 07:14 13,5 C 95 % 1008,7 hPa 0,0 l/m 7,2 km/h (2 Bft) W-SW 250 0 min 0,000 mm 0,0 UV-I 42 W/m 12,7 C 13,0 C 11,3 km/h (2 Bft) 91,67 %
31.05.2016 07:15 13,5 C 95 % 1008,7 hPa 0,0 l/m 6,8 km/h (2 Bft) S-SW 193 0 min 0,000 mm 0,0 UV-I 43 W/m 12,7 C 13,3 C 9,7 km/h (2 Bft) 100,00 %
31.05.2016 07:16 13,6 C 95 % 1008,7 hPa 0,2 l/m 6,6 km/h (2 Bft) SW 234 0 min 0,000 mm 0,0 UV-I 45 W/m 12,8 C 13,5 C 9,7 km/h (2 Bft) 95,65 %
31.05.2016 07:17 13,6 C 95 % 1008,7 hPa 0,0 l/m 7,5 km/h (2 Bft) W-SW 244 0 min 0,000 mm 0,0 UV-I 47 W/m 12,8 C 12,9 C 11,3 km/h (2 Bft) 100,00 %
31.05.2016 07:18 13,6 C 95 % 1008,7 hPa 0,0 l/m 7,7 km/h (2 Bft) W-SW 246 0 min 0,000 mm 0,0 UV-I 47 W/m 12,8 C 12,8 C 11,3 km/h (2 Bft) 96,15 %
31.05.2016 07:19 13,6 C 95 % 1008,7 hPa 0,0 l/m 8,7 km/h (2 Bft) SW 215 0 min 0,000 mm 0,0 UV-I 49 W/m 12,8 C 12,2 C 12,9 km/h (3 Bft) 100,00 %
31.05.2016 07:20 13,6 C 95 % 1008,7 hPa 0,0 l/m 9,6 km/h (2 Bft) W-SW 240 0 min 0,000 mm 0,0 UV-I 50 W/m 12,8 C 11,8 C 14,5 km/h (3 Bft) 91,67 %
31.05.2016 07:21 13,6 C 95 % 1008,7 hPa 0,0 l/m 10,3 km/h (2 Bft) W 261 0 min 0,000 mm 0,0 UV-I 52 W/m 12,8 C 11,4 C 14,5 km/h (3 Bft) 100,00 %
31.05.2016 07:22 13,6 C 95 % 1008,7 hPa 0,0 l/m 8,9 km/h (2 Bft) W-SW 245 0 min 0,000 mm 0,0 UV-I 53 W/m 12,8 C 12,1 C 12,9 km/h (3 Bft) 95,65 %
31.05.2016 07:23 13,6 C 95 % 1008,6 hPa 0,0 l/m 9,4 km/h (2 Bft) W-SW 256 0 min 0,000 mm 0,0 UV-I 54 W/m 12,8 C 11,9 C 12,9 km/h (3 Bft) 91,67 %
31.05.2016 07:24 13,6 C 96 % 1008,7 hPa 0,0 l/m 9,0 km/h (2 Bft) W-SW 244 0 min 0,000 mm 0,0 UV-I 56 W/m 13,0 C 12,1 C 12,9 km/h (3 Bft) 100,00 %
31.05.2016 07:25 13,6 C 95 % 1008,7 hPa 0,0 l/m 7,9 km/h (2 Bft) W-SW 253 0 min 0,000 mm 0,0 UV-I 57 W/m 12,8 C 12,7 C 12,9 km/h (3 Bft) 100,00 %
31.05.2016 07:26 13,6 C 95 % 1008,6 hPa 0,0 l/m 6,4 km/h (2 Bft) SW 235 0 min 0,000 mm 0,0 UV-I 58 W/m 12,8 C 13,6 C 9,7 km/h (2 Bft) 100,00 %
31.05.2016 07:27 13,6 C 95 % 1008,6 hPa 0,0 l/m 9,1 km/h (2 Bft) W-SW 242 0 min 0,000 mm 0,0 UV-I 58 W/m 12,8 C 12,0 C 11,3 km/h (2 Bft) 100,00 %
31.05.2016 07:28 13,6 C 95 % 1008,7 hPa 0,0 l/m 8,7 km/h (2 Bft) W-SW 246 0 min 0,000 mm 0,0 UV-I 60 W/m 12,8 C 12,2 C 12,9 km/h (3 Bft) 100,00 %
31.05.2016 07:29 13,7 C 95 % 1008,7 hPa 0,0 l/m 9,3 km/h (2 Bft) SW 232 0 min 0,000 mm 0,0 UV-I 60 W/m 12,9 C 12,0 C 12,9 km/h (3 Bft) 100,00 %
31.05.2016 07:30 13,7 C 95 % 1008,7 hPa 0,0 l/m 10,0 km/h (2 Bft) SW 232 0 min 0,000 mm 0,0 UV-I 60 W/m 12,9 C 11,7 C 17,7 km/h (3 Bft) 100,00 %
31.05.2016 07:31 13,7 C 95 % 1008,7 hPa 0,0 l/m 8,4 km/h (2 Bft) W-SW 246 0 min 0,000 mm 0,0 UV-I 62 W/m 12,9 C 12,5 C 12,9 km/h (3 Bft) 100,00 %
31.05.2016 07:32 13,7 C 95 % 1008,7 hPa 0,0 l/m 11,3 km/h (2 Bft) W-SW 245 0 min 0,000 mm 0,0 UV-I 62 W/m 12,9 C 11,1 C 16,1 km/h (3 Bft) 91,30 %
31.05.2016 07:33 13,7 C 95 % 1008,7 hPa 0,0 l/m 8,1 km/h (2 Bft) W 259 0 min 0,000 mm 0,0 UV-I 64 W/m 12,9 C 12,7 C 11,3 km/h (2 Bft) 100,00 %
31.05.2016 07:34 13,7 C 95 % 1008,7 hPa 0,0 l/m 9,7 km/h (2 Bft) W-SW 242 0 min 0,000 mm 0,0 UV-I 65 W/m 12,9 C 11,8 C 14,5 km/h (3 Bft) 100,00 %
31.05.2016 07:35 13,7 C 95 % 1008,7 hPa 0,0 l/m 9,3 km/h (2 Bft) SW 223 0 min 0,000 mm 0,0 UV-I 65 W/m 12,9 C 12,0 C 12,9 km/h (3 Bft) 100,00 %
31.05.2016 07:36 13,7 C 95 % 1008,7 hPa 0,0 l/m 9,3 km/h (2 Bft) SW 224 0 min 0,000 mm 0,0 UV-I 67 W/m 12,9 C 12,0 C 12,9 km/h (3 Bft) 100,00 %
31.05.2016 07:37 13,7 C 94 % 1008,7 hPa 0,0 l/m 9,7 km/h (2 Bft) W-SW 250 0 min 0,000 mm 0,0 UV-I 67 W/m 12,8 C 11,8 C 14,5 km/h (3 Bft) 100,00 %
31.05.2016 07:38 13,7 C 94 % 1008,7 hPa 0,0 l/m 11,4 km/h (2 Bft) W-SW 243 0 min 0,000 mm 0,0 UV-I 67 W/m 12,8 C 11,0 C 17,7 km/h (3 Bft) 100,00 %
31.05.2016 07:39 13,8 C 94 % 1008,7 hPa 0,0 l/m 9,0 km/h (2 Bft) W 268 0 min 0,000 mm 0,0 UV-I 67 W/m 12,9 C 12,3 C 14,5 km/h (3 Bft) 95,65 %
31.05.2016 07:40 13,8 C 94 % 1008,7 hPa 0,0 l/m 12,0 km/h (2 Bft) W-SW 240 0 min 0,000 mm 0,0 UV-I 67 W/m 12,9 C 10,9 C 17,7 km/h (3 Bft) 100,00 %
31.05.2016 07:41 13,8 C 94 % 1008,8 hPa 0,0 l/m 11,1 km/h (2 Bft) W-SW 242 0 min 0,000 mm 0,0 UV-I 69 W/m 12,9 C 11,3 C 14,5 km/h (3 Bft) 100,00 %
31.05.2016 07:42 13,8 C 94 % 1008,8 hPa 0,0 l/m 8,5 km/h (2 Bft) W-SW 245 0 min 0,000 mm 0,0 UV-I 69 W/m 12,9 C 12,6 C 12,9 km/h (3 Bft) 100,00 %
31.05.2016 07:43 13,8 C 94 % 1008,7 hPa 0,0 l/m 9,1 km/h (2 Bft) W 261 0 min 0,000 mm 0,0 UV-I 69 W/m 12,9 C 12,2 C 14,5 km/h (3 Bft) 100,00 %
31.05.2016 07:44 13,8 C 94 % 1008,8 hPa 0,0 l/m 8,2 km/h (2 Bft) W-SW 238 0 min 0,000 mm 0,0 UV-I 69 W/m 12,9 C 12,7 C 11,3 km/h (2 Bft) 100,00 %
31.05.2016 07:45 13,8 C 94 % 1008,7 hPa 0,0 l/m 9,2 km/h (2 Bft) W-SW 254 0 min 0,000 mm 0,0 UV-I 69 W/m 12,9 C 12,2 C 12,9 km/h (3 Bft) 100,00 %
31.05.2016 07:46 13,8 C 94 % 1008,7 hPa 0,0 l/m 7,0 km/h (2 Bft) W 276 0 min 0,000 mm 0,0 UV-I 69 W/m 12,9 C 13,4 C 9,7 km/h (2 Bft) 100,00 %
31.05.2016 07:47 13,8 C 94 % 1008,7 hPa 0,0 l/m 10,4 km/h (2 Bft) SW 234 0 min 0,000 mm 0,0 UV-I 69 W/m 12,9 C 11,6 C 16,1 km/h (3 Bft) 100,00 %
31.05.2016 07:48 13,8 C 94 % 1008,8 hPa 0,0 l/m 9,1 km/h (2 Bft) SW 229 0 min 0,000 mm 0,0 UV-I 70 W/m 12,9 C 12,2 C 12,9 km/h (3 Bft) 95,83 %
31.05.2016 07:49 13,8 C 93 % 1008,8 hPa 0,0 l/m 7,2 km/h (2 Bft) W 259 0 min 0,000 mm 0,0 UV-I 70 W/m 12,7 C 13,3 C 11,3 km/h (2 Bft) 100,00 %
31.05.2016 07:50 13,8 C 93 % 1008,8 hPa 0,0 l/m 7,2 km/h (2 Bft) W-SW 244 0 min 0,000 mm 0,0 UV-I 70 W/m 12,7 C 13,3 C 9,7 km/h (2 Bft) 100,00 %
31.05.2016 07:51 13,8 C 94 % 1008,8 hPa 0,0 l/m 6,0 km/h (2 Bft) W 259 0 min 0,000 mm 0,0 UV-I 71 W/m 12,9 C 13,8 C 9,7 km/h (2 Bft) 95,65 %
31.05.2016 07:52 13,9 C 94 % 1008,8 hPa 0,0 l/m 7,2 km/h (2 Bft) SW 232 0 min 0,000 mm 0,0 UV-I 72 W/m 12,9 C 13,4 C 11,3 km/h (2 Bft) 100,00 %
31.05.2016 07:53 13,9 C 94 % 1008,8 hPa 0,0 l/m 8,4 km/h (2 Bft) SW 236 0 min 0,000 mm 0,0 UV-I 72 W/m 12,9 C 12,7 C 12,9 km/h (3 Bft) 100,00 %
31.05.2016 07:54 13,9 C 94 % 1008,8 hPa 0,0 l/m 6,4 km/h (2 Bft) W-SW 250 0 min 0,000 mm 0,0 UV-I 74 W/m 12,9 C 13,9 C 9,7 km/h (2 Bft) 100,00 %
31.05.2016 07:55 13,9 C 94 % 1008,8 hPa 0,0 l/m 5,6 km/h (1 Bft) SW 225 0 min 0,000 mm 0,0 UV-I 76 W/m 12,9 C 13,9 C 8,0 km/h (2 Bft) 100,00 %
31.05.2016 07:56 13,9 C 94 % 1008,8 hPa 0,0 l/m 6,6 km/h (2 Bft) SW 234 0 min 0,000 mm 0,0 UV-I 77 W/m 12,9 C 13,8 C 8,0 km/h (2 Bft) 100,00 %
31.05.2016 07:57 13,9 C 94 % 1008,8 hPa 0,0 l/m 5,9 km/h (2 Bft) S-SW 203 0 min 0,000 mm 0,0 UV-I 77 W/m 12,9 C 13,9 C 8,0 km/h (2 Bft) 95,83 %
31.05.2016 07:58 13,9 C 94 % 1008,8 hPa 0,0 l/m 5,6 km/h (1 Bft) W 259 0 min 0,000 mm 0,0 UV-I 79 W/m 12,9 C 13,9 C 8,0 km/h (2 Bft) 100,00 %
31.05.2016 07:59 13,9 C 94 % 1008,8 hPa 0,0 l/m 5,4 km/h (1 Bft) S-SW 211 0 min 0,000 mm 0,0 UV-I 81 W/m 12,9 C 13,9 C 8,0 km/h (2 Bft) 100,00 %
31.05.2016 08:00 13,9 C 94 % 1008,8 hPa 0,0 l/m 6,0 km/h (2 Bft) SW 220 0 min 0,026 mm 0,0 UV-I 82 W/m 12,9 C 13,9 C 8,0 km/h (2 Bft) 100,00 %
31.05.2016 08:02 13,9 C 94 % 1008,8 hPa 0,0 l/m 5,7 km/h (1 Bft) W-SW 248 0 min 0,000 mm 0,0 UV-I 84 W/m 12,9 C 13,9 C 8,0 km/h (2 Bft) 100,00 %
31.05.2016 08:03 13,9 C 94 % 1008,9 hPa 0,0 l/m 3,2 km/h (1 Bft) W-SW 248 0 min 0,000 mm 0,0 UV-I 85 W/m 12,9 C 13,9 C 4,8 km/h (1 Bft) 100,00 %
31.05.2016 08:04 13,9 C 94 % 1008,9 hPa 0,0 l/m 4,7 km/h (1 Bft) W-SW 239 0 min 0,000 mm 0,0 UV-I 86 W/m 12,9 C 13,9 C 8,0 km/h (2 Bft) 95,65 %
31.05.2016 08:05 14,0 C 94 % 1008,9 hPa 0,0 l/m 7,8 km/h (2 Bft) SW 217 0 min 0,000 mm 0,0 UV-I 86 W/m 13,0 C 13,2 C 9,7 km/h (2 Bft) 100,00 %
31.05.2016 08:06 14,0 C 94 % 1008,9 hPa 0,0 l/m 6,1 km/h (2 Bft) SW 216 0 min 0,000 mm 0,0 UV-I 88 W/m 13,0 C 14,0 C 8,0 km/h (2 Bft) 100,00 %
31.05.2016 08:07 14,0 C 94 % 1008,9 hPa 0,0 l/m 5,0 km/h (1 Bft) W-SW 247 0 min 0,000 mm 0,0 UV-I 89 W/m 13,0 C 14,0 C 6,4 km/h (2 Bft) 95,83 %
31.05.2016 08:08 14,1 C 94 % 1008,9 hPa 0,0 l/m 3,0 km/h (1 Bft) SW 234 0 min 0,000 mm 0,0 UV-I 91 W/m 13,1 C 14,1 C 6,4 km/h (2 Bft) 100,00 %
31.05.2016 08:09 14,1 C 94 % 1008,9 hPa 0,0 l/m 3,9 km/h (1 Bft) SW 234 0 min 0,000 mm 0,0 UV-I 91 W/m 13,1 C 14,1 C 6,4 km/h (2 Bft) 100,00 %
31.05.2016 08:10 14,1 C 94 % 1008,9 hPa 0,0 l/m 3,6 km/h (1 Bft) SW 234 0 min 0,000 mm 0,0 UV-I 90 W/m 13,1 C 14,1 C 4,8 km/h (1 Bft) 100,00 %
31.05.2016 08:11 14,1 C 94 % 1009,0 hPa 0,0 l/m 3,0 km/h (1 Bft) S 182 0 min 0,000 mm 0,0 UV-I 90 W/m 13,1 C 14,1 C 4,8 km/h (1 Bft) 95,83 %
31.05.2016 08:12 14,1 C 94 % 1009,0 hPa 0,0 l/m 3,1 km/h (1 Bft) S-SW 208 0 min 0,000 mm 0,0 UV-I 90 W/m 13,1 C 14,1 C 4,8 km/h (1 Bft) 100,00 %
31.05.2016 08:13 14,1 C 94 % 1009,0 hPa 0,0 l/m 5,2 km/h (1 Bft) S-SO 167 0 min 0,000 mm 0,0 UV-I 90 W/m 13,1 C 14,1 C 8,0 km/h (2 Bft) 100,00 %
31.05.2016 08:14 14,1 C 94 % 1009,0 hPa 0,0 l/m 4,3 km/h (1 Bft) S 184 0 min 0,000 mm 0,0 UV-I 91 W/m 13,1 C 14,1 C 6,4 km/h (2 Bft) 100,00 %
31.05.2016 08:15 14,1 C 94 % 1009,1 hPa 0,0 l/m 3,0 km/h (1 Bft) S 184 0 min 0,000 mm 0,0 UV-I 94 W/m 13,1 C 14,1 C 4,8 km/h (1 Bft) 100,00 %
31.05.2016 08:16 14,1 C 94 % 1009,1 hPa 0,0 l/m 4,5 km/h (1 Bft) S-SW 207 0 min 0,000 mm 0,0 UV-I 97 W/m 13,1 C 14,1 C 6,4 km/h (2 Bft) 100,00 %
31.05.2016 08:17 14,1 C 94 % 1009,1 hPa 0,0 l/m 7,0 km/h (2 Bft) S-SW 197 0 min 0,000 mm 0,0 UV-I 97 W/m 13,1 C 13,7 C 9,7 km/h (2 Bft) 100,00 %
31.05.2016 08:18 14,1 C 94 % 1009,1 hPa 0,0 l/m 5,2 km/h (1 Bft) S-SW 196 0 min 0,000 mm 0,0 UV-I 96 W/m 13,1 C 14,1 C 6,4 km/h (2 Bft) 100,00 %
31.05.2016 08:19 14,1 C 94 % 1009,1 hPa 0,0 l/m 3,2 km/h (1 Bft) S 181 0 min 0,000 mm 0,0 UV-I 95 W/m 13,1 C 14,1 C 6,4 km/h (2 Bft) 100,00 %
31.05.2016 08:20 14,1 C 94 % 1009,1 hPa 0,0 l/m 3,7 km/h (1 Bft) S-SW 192 0 min 0,000 mm 0,0 UV-I 98 W/m 13,1 C 14,1 C 6,4 km/h (2 Bft) 100,00 %
31.05.2016 08:21 14,1 C 94 % 1009,1 hPa 0,0 l/m 3,2 km/h (1 Bft) S-SW 201 0 min 0,000 mm 0,0 UV-I 107 W/m 13,1 C 14,1 C 4,8 km/h (1 Bft) 100,00 %
31.05.2016 08:22 14,1 C 94 % 1009,1 hPa 0,0 l/m 3,6 km/h (1 Bft) S-SW 194 0 min 0,000 mm 0,4 UV-I 114 W/m 13,1 C 14,1 C 6,4 km/h (2 Bft) 100,00 %
31.05.2016 08:23 14,1 C 94 % 1009,1 hPa 0,0 l/m 5,2 km/h (1 Bft) SW 233 0 min 0,000 mm 0,5 UV-I 120 W/m 13,1 C 14,1 C 8,0 km/h (2 Bft) 100,00 %
31.05.2016 08:24 14,2 C 94 % 1009,1 hPa 0,0 l/m 4,7 km/h (1 Bft) SW 217 0 min 0,000 mm 0,5 UV-I 122 W/m 13,2 C 14,2 C 6,4 km/h (2 Bft) 100,00 %
31.05.2016 08:25 14,2 C 94 % 1009,1 hPa 0,0 l/m 3,7 km/h (1 Bft) S 189 0 min 0,000 mm 0,5 UV-I 125 W/m 13,2 C 14,2 C 4,8 km/h (1 Bft) 100,00 %
31.05.2016 08:26 14,2 C 95 % 1009,1 hPa 0,0 l/m 5,4 km/h (1 Bft) S-SO 166 0 min 0,000 mm 0,5 UV-I 128 W/m 13,4 C 14,2 C 8,0 km/h (2 Bft) 100,00 %
31.05.2016 08:27 14,2 C 95 % 1009,1 hPa 0,0 l/m 6,7 km/h (2 Bft) S 188 0 min 0,000 mm 0,6 UV-I 131 W/m 13,4 C 14,0 C 9,7 km/h (2 Bft) 100,00 %
31.05.2016 08:28 14,2 C 94 % 1009,1 hPa 0,0 l/m 4,7 km/h (1 Bft) SW 215 0 min 0,000 mm 0,6 UV-I 135 W/m 13,2 C 14,2 C 6,4 km/h (2 Bft) 100,00 %
31.05.2016 08:29 14,2 C 94 % 1009,2 hPa 0,0 l/m 3,9 km/h (1 Bft) S-SW 198 0 min 0,000 mm 0,6 UV-I 139 W/m 13,2 C 14,2 C 6,4 km/h (2 Bft) 100,00 %
31.05.2016 08:30 14,3 C 95 % 1009,1 hPa 0,0 l/m 4,7 km/h (1 Bft) S 188 0 min 0,000 mm 0,6 UV-I 142 W/m 13,5 C 14,3 C 6,4 km/h (2 Bft) 100,00 %
31.05.2016 08:31 14,3 C 95 % 1009,2 hPa 0,0 l/m 2,2 km/h (1 Bft) SW 214 0 min 0,000 mm 0,6 UV-I 145 W/m 13,5 C 14,3 C 4,8 km/h (1 Bft) 95,65 %
31.05.2016 08:32 14,3 C 94 % 1009,2 hPa 0,0 l/m 4,8 km/h (1 Bft) SW 217 0 min 0,000 mm 0,6 UV-I 146 W/m 13,3 C 14,3 C 6,4 km/h (2 Bft) 100,00 %
31.05.2016 08:33 14,3 C 95 % 1009,2 hPa 0,0 l/m 7,3 km/h (2 Bft) SW 220 0 min 0,000 mm 0,6 UV-I 148 W/m 13,5 C 13,8 C 9,7 km/h (2 Bft) 100,00 %
31.05.2016 08:34 14,3 C 95 % 1009,2 hPa 0,0 l/m 4,8 km/h (1 Bft) SW 218 0 min 0,000 mm 0,6 UV-I 149 W/m 13,5 C 14,3 C 6,4 km/h (2 Bft) 100,00 %
31.05.2016 08:35 14,3 C 94 % 1009,2 hPa 0,0 l/m 8,0 km/h (2 Bft) W-SW 248 0 min 0,000 mm 0,6 UV-I 152 W/m 13,3 C 13,4 C 12,9 km/h (3 Bft) 100,00 %
31.05.2016 08:36 14,3 C 95 % 1009,3 hPa 0,0 l/m 6,5 km/h (2 Bft) S-SW 197 0 min 0,000 mm 0,7 UV-I 155 W/m 13,5 C 14,3 C 9,7 km/h (2 Bft) 100,00 %
31.05.2016 08:37 14,3 C 95 % 1009,2 hPa 0,0 l/m 7,5 km/h (2 Bft) SW 223 0 min 0,000 mm 0,7 UV-I 156 W/m 13,5 C 13,7 C 11,3 km/h (2 Bft) 100,00 %
31.05.2016 08:38 14,3 C 95 % 1009,2 hPa 0,0 l/m 7,8 km/h (2 Bft) SW 234 0 min 0,000 mm 0,7 UV-I 157 W/m 13,5 C 13,5 C 11,3 km/h (2 Bft) 95,65 %
31.05.2016 08:39 14,4 C 94 % 1009,2 hPa 0,0 l/m 9,5 km/h (2 Bft) W-SW 238 0 min 0,000 mm 0,7 UV-I 161 W/m 13,4 C 12,7 C 14,5 km/h (3 Bft) 100,00 %
31.05.2016 08:40 14,4 C 94 % 1009,2 hPa 0,0 l/m 8,2 km/h (2 Bft) SW 230 0 min 0,000 mm 0,7 UV-I 163 W/m 13,4 C 13,4 C 9,7 km/h (2 Bft) 100,00 %
31.05.2016 08:41 14,4 C 94 % 1009,2 hPa 0,0 l/m 8,9 km/h (2 Bft) S-SW 208 0 min 0,000 mm 0,7 UV-I 165 W/m 13,4 C 13,0 C 12,9 km/h (3 Bft) 100,00 %
31.05.2016 08:42 14,4 C 94 % 1009,2 hPa 0,0 l/m 9,2 km/h (2 Bft) SW 227 0 min 0,000 mm 0,7 UV-I 166 W/m 13,4 C 12,8 C 12,9 km/h (3 Bft) 100,00 %
31.05.2016 08:43 14,4 C 94 % 1009,2 hPa 0,0 l/m 7,7 km/h (2 Bft) W-SW 249 0 min 0,000 mm 0,7 UV-I 167 W/m 13,4 C 13,6 C 14,5 km/h (3 Bft) 96,30 %
31.05.2016 08:44 14,4 C 94 % 1009,2 hPa 0,0 l/m 8,9 km/h (2 Bft) SW 223 0 min 0,000 mm 0,7 UV-I 168 W/m 13,4 C 13,0 C 11,3 km/h (2 Bft) 100,00 %
31.05.2016 08:45 14,4 C 94 % 1009,2 hPa 0,0 l/m 9,9 km/h (2 Bft) S-SW 209 0 min 0,000 mm 0,8 UV-I 169 W/m 13,4 C 12,5 C 14,5 km/h (3 Bft) 100,00 %
31.05.2016 08:46 14,4 C 94 % 1009,2 hPa 0,0 l/m 7,5 km/h (2 Bft) SW 216 0 min 0,000 mm 0,8 UV-I 171 W/m 13,4 C 13,8 C 9,7 km/h (2 Bft) 100,00 %
31.05.2016 08:47 14,5 C 95 % 1009,2 hPa 0,0 l/m 10,3 km/h (2 Bft) S-SW 213 0 min 0,000 mm 0,8 UV-I 171 W/m 13,7 C 12,4 C 14,5 km/h (3 Bft) 100,00 %
31.05.2016 08:48 14,5 C 94 % 1009,2 hPa 0,0 l/m 7,9 km/h (2 Bft) SW 236 0 min 0,000 mm 0,8 UV-I 171 W/m 13,5 C 13,6 C 12,9 km/h (3 Bft) 100,00 %
31.05.2016 08:49 14,5 C 94 % 1009,2 hPa 0,0 l/m 9,4 km/h (2 Bft) W-SW 245 0 min 0,000 mm 0,8 UV-I 171 W/m 13,5 C 12,9 C 12,9 km/h (3 Bft) 95,83 %
31.05.2016 08:50 14,5 C 94 % 1009,2 hPa 0,0 l/m 9,3 km/h (2 Bft) SW 235 0 min 0,000 mm 0,8 UV-I 171 W/m 13,5 C 12,9 C 12,9 km/h (3 Bft) 100,00 %
31.05.2016 08:51 14,6 C 94 % 1009,3 hPa 0,0 l/m 8,4 km/h (2 Bft) SW 229 0 min 0,000 mm 0,8 UV-I 172 W/m 13,6 C 13,5 C 12,9 km/h (3 Bft) 95,83 %
31.05.2016 08:52 14,6 C 94 % 1009,3 hPa 0,0 l/m 8,0 km/h (2 Bft) W-SW 251 0 min 0,000 mm 0,8 UV-I 174 W/m 13,6 C 13,7 C 11,3 km/h (2 Bft) 100,00 %
31.05.2016 08:53 14,6 C 94 % 1009,3 hPa 0,0 l/m 5,2 km/h (1 Bft) SW 236 0 min 0,000 mm 0,8 UV-I 177 W/m 13,6 C 14,6 C 8,0 km/h (2 Bft) 91,67 %
31.05.2016 08:54 14,6 C 94 % 1009,2 hPa 0,0 l/m 6,2 km/h (2 Bft) SW 225 0 min 0,000 mm 0,8 UV-I 181 W/m 13,6 C 14,6 C 11,3 km/h (2 Bft) 100,00 %
31.05.2016 08:55 14,6 C 94 % 1009,3 hPa 0,0 l/m 6,0 km/h (2 Bft) SW 214 0 min 0,000 mm 0,8 UV-I 181 W/m 13,6 C 14,6 C 8,0 km/h (2 Bft) 95,65 %
31.05.2016 08:56 14,6 C 95 % 1009,3 hPa 0,0 l/m 7,0 km/h (2 Bft) W 273 0 min 0,000 mm 0,8 UV-I 184 W/m 13,8 C 14,3 C 11,3 km/h (2 Bft) 95,83 %
31.05.2016 08:57 14,6 C 94 % 1009,3 hPa 0,0 l/m 10,9 km/h (2 Bft) W-SW 257 0 min 0,000 mm 0,9 UV-I 188 W/m 13,6 C 12,3 C 14,5 km/h (3 Bft) 95,65 %
31.05.2016 08:58 14,6 C 94 % 1009,3 hPa 0,0 l/m 10,4 km/h (2 Bft) SW 221 0 min 0,000 mm 0,9 UV-I 194 W/m 13,6 C 12,5 C 14,5 km/h (3 Bft) 95,83 %
31.05.2016 08:59 14,6 C 94 % 1009,3 hPa 0,0 l/m 9,2 km/h (2 Bft) SW 231 0 min 0,000 mm 0,9 UV-I 199 W/m 13,6 C 13,1 C 12,9 km/h (3 Bft) 100,00 %
31.05.2016 09:00 14,6 C 94 % 1009,3 hPa 0,0 l/m 8,5 km/h (2 Bft) SW 215 0 min 0,000 mm 0,9 UV-I 207 W/m 13,6 C 13,4 C 12,9 km/h (3 Bft) 95,83 %
31.05.2016 09:02 14,7 C 94 % 1009,3 hPa 0,0 l/m 6,7 km/h (2 Bft) W-SW 248 0 min 0,076 mm 1,0 UV-I 216 W/m 13,7 C 14,5 C 11,3 km/h (2 Bft) 96,00 %
31.05.2016 09:03 14,7 C 94 % 1009,4 hPa 0,0 l/m 10,7 km/h (2 Bft) W-SW 251 0 min 0,000 mm 1,0 UV-I 214 W/m 13,7 C 12,5 C 14,5 km/h (3 Bft) 100,00 %
31.05.2016 09:04 14,7 C 93 % 1009,4 hPa 0,0 l/m 8,0 km/h (2 Bft) W-SW 248 0 min 0,000 mm 1,0 UV-I 213 W/m 13,6 C 13,8 C 11,3 km/h (2 Bft) 95,83 %
31.05.2016 09:05 14,6 C 93 % 1009,4 hPa 0,0 l/m 9,0 km/h (2 Bft) W 271 0 min 0,000 mm 1,0 UV-I 210 W/m 13,5 C 13,2 C 12,9 km/h (3 Bft) 95,65 %
31.05.2016 09:06 14,6 C 93 % 1009,4 hPa 0,0 l/m 8,8 km/h (2 Bft) W 263 0 min 0,000 mm 1,0 UV-I 207 W/m 13,5 C 13,3 C 12,9 km/h (3 Bft) 95,83 %
31.05.2016 09:07 14,7 C 93 % 1009,4 hPa 0,0 l/m 11,7 km/h (2 Bft) SW 228 0 min 0,000 mm 1,0 UV-I 205 W/m 13,6 C 12,0 C 17,7 km/h (3 Bft) 100,00 %
31.05.2016 09:08 14,7 C 93 % 1009,4 hPa 0,0 l/m 4,6 km/h (1 Bft) W-SW 254 0 min 0,000 mm 0,9 UV-I 200 W/m 13,6 C 14,7 C 8,0 km/h (2 Bft) 96,30 %
31.05.2016 09:09 14,7 C 93 % 1009,4 hPa 0,0 l/m 9,5 km/h (2 Bft) W-SW 245 0 min 0,000 mm 0,9 UV-I 191 W/m 13,6 C 13,0 C 14,5 km/h (3 Bft) 95,65 %
31.05.2016 09:10 14,6 C 93 % 1009,4 hPa 0,0 l/m 7,1 km/h (2 Bft) SW 224 0 min 0,000 mm 0,9 UV-I 185 W/m 13,5 C 14,2 C 11,3 km/h (2 Bft) 100,00 %
31.05.2016 09:11 14,6 C 93 % 1009,5 hPa 0,0 l/m 9,7 km/h (2 Bft) W-SW 240 0 min 0,000 mm 0,9 UV-I 182 W/m 13,5 C 12,8 C 12,9 km/h (3 Bft) 95,83 %
31.05.2016 09:12 14,6 C 92 % 1009,5 hPa 0,0 l/m 8,7 km/h (2 Bft) W-SW 250 0 min 0,000 mm 0,9 UV-I 181 W/m 13,3 C 13,3 C 12,9 km/h (3 Bft) 100,00 %
31.05.2016 09:13 14,6 C 93 % 1009,4 hPa 0,0 l/m 6,3 km/h (2 Bft) W 262 0 min 0,000 mm 0,9 UV-I 184 W/m 13,5 C 14,6 C 9,7 km/h (2 Bft) 95,83 %
31.05.2016 09:14 14,6 C 93 % 1009,5 hPa 0,0 l/m 9,3 km/h (2 Bft) W-SW 252 0 min 0,000 mm 0,9 UV-I 186 W/m 13,5 C 13,0 C 12,9 km/h (3 Bft) 95,65 %
31.05.2016 09:15 14,6 C 93 % 1009,4 hPa 0,0 l/m 8,6 km/h (2 Bft) W-SW 243 0 min 0,000 mm 0,9 UV-I 183 W/m 13,5 C 13,4 C 12,9 km/h (3 Bft) 96,30 %
31.05.2016 09:16 14,6 C 93 % 1009,4 hPa 0,0 l/m 6,8 km/h (2 Bft) W-SW 238 0 min 0,000 mm 0,9 UV-I 188 W/m 13,5 C 14,4 C 9,7 km/h (2 Bft) 92,31 %
31.05.2016 09:17 14,6 C 93 % 1009,5 hPa 0,0 l/m 13,1 km/h (3 Bft) W 262 0 min 0,000 mm 0,9 UV-I 190 W/m 13,5 C 11,4 C 16,1 km/h (3 Bft) 100,00 %
31.05.2016 09:18 14,6 C 93 % 1009,4 hPa 0,0 l/m 7,5 km/h (2 Bft) W-SW 244 0 min 0,000 mm 0,9 UV-I 190 W/m 13,5 C 14,0 C 12,9 km/h (3 Bft) 95,65 %
31.05.2016 09:19 14,6 C 93 % 1009,4 hPa 0,0 l/m 8,6 km/h (2 Bft) SW 234 0 min 0,000 mm 0,9 UV-I 198 W/m 13,5 C 13,4 C 17,7 km/h (3 Bft) 100,00 %
31.05.2016 09:20 14,6 C 93 % 1009,4 hPa 0,0 l/m 12,5 km/h (3 Bft) W 263 0 min 0,000 mm 1,0 UV-I 206 W/m 13,5 C 11,6 C 19,3 km/h (3 Bft) 95,65 %
31.05.2016 09:21 14,6 C 93 % 1009,4 hPa 0,0 l/m 13,2 km/h (3 Bft) W-SW 241 0 min 0,000 mm 1,0 UV-I 216 W/m 13,5 C 11,3 C 19,3 km/h (3 Bft) 100,00 %
31.05.2016 09:22 14,6 C 93 % 1009,4 hPa 0,0 l/m 10,4 km/h (2 Bft) SW 233 0 min 0,000 mm 1,0 UV-I 216 W/m 13,5 C 12,5 C 14,5 km/h (3 Bft) 92,86 %
31.05.2016 09:23 14,6 C 94 % 1009,3 hPa 0,0 l/m 6,6 km/h (2 Bft) W-SW 258 0 min 0,000 mm 1,1 UV-I 217 W/m 13,6 C 14,5 C 11,3 km/h (2 Bft) 100,00 %
31.05.2016 09:24 14,6 C 94 % 1009,4 hPa 0,0 l/m 6,9 km/h (2 Bft) W-SW 256 0 min 0,000 mm 1,1 UV-I 217 W/m 13,6 C 14,3 C 11,3 km/h (2 Bft) 95,65 %
31.05.2016 09:25 14,6 C 94 % 1009,4 hPa 0,0 l/m 10,0 km/h (2 Bft) S-SW 203 0 min 0,000 mm 1,1 UV-I 211 W/m 13,6 C 12,7 C 16,1 km/h (3 Bft) 100,00 %
31.05.2016 09:26 14,6 C 94 % 1009,4 hPa 0,0 l/m 9,1 km/h (2 Bft) W-SW 252 0 min 0,000 mm 1,0 UV-I 206 W/m 13,6 C 13,1 C 16,1 km/h (3 Bft) 100,00 %
31.05.2016 09:27 14,6 C 94 % 1009,4 hPa 0,0 l/m 6,9 km/h (2 Bft) W-NW 290 0 min 0,000 mm 1,0 UV-I 201 W/m 13,6 C 14,3 C 12,9 km/h (3 Bft) 100,00 %
31.05.2016 09:28 14,6 C 94 % 1009,5 hPa 0,0 l/m 3,9 km/h (1 Bft) W-NW 284 0 min 0,000 mm 1,0 UV-I 195 W/m 13,6 C 14,6 C 6,4 km/h (2 Bft) 100,00 %
31.05.2016 09:29 14,6 C 94 % 1009,5 hPa 0,0 l/m 6,6 km/h (2 Bft) SW 232 0 min 0,000 mm 1,0 UV-I 193 W/m 13,6 C 14,5 C 11,3 km/h (2 Bft) 96,30 %
31.05.2016 09:30 14,6 C 93 % 1009,5 hPa 0,0 l/m 7,0 km/h (2 Bft) SW 235 0 min 0,000 mm 1,0 UV-I 190 W/m 13,5 C 14,3 C 9,7 km/h (2 Bft) 95,65 %
31.05.2016 09:31 14,6 C 94 % 1009,5 hPa 0,0 l/m 7,9 km/h (2 Bft) W-SW 257 0 min 0,000 mm 1,0 UV-I 187 W/m 13,6 C 13,7 C 11,3 km/h (2 Bft) 100,00 %
31.05.2016 09:32 14,6 C 93 % 1009,5 hPa 0,2 l/m 9,9 km/h (2 Bft) W-SW 241 0 min 0,000 mm 1,0 UV-I 188 W/m 13,5 C 12,7 C 17,7 km/h (3 Bft) 100,00 %
31.05.2016 09:33 14,6 C 93 % 1009,5 hPa 0,0 l/m 11,0 km/h (2 Bft) W-SW 250 0 min 0,000 mm 1,0 UV-I 192 W/m 13,5 C 12,2 C 14,5 km/h (3 Bft) 100,00 %
31.05.2016 09:34 14,5 C 93 % 1009,5 hPa 0,0 l/m 9,9 km/h (2 Bft) W 265 0 min 0,000 mm 1,0 UV-I 196 W/m 13,4 C 12,6 C 16,1 km/h (3 Bft) 100,00 %
31.05.2016 09:35 14,5 C 92 % 1009,5 hPa 0,0 l/m 10,0 km/h (2 Bft) W-SW 244 0 min 0,000 mm 1,1 UV-I 199 W/m 13,2 C 12,6 C 17,7 km/h (3 Bft) 100,00 %
31.05.2016 09:36 14,4 C 92 % 1009,5 hPa 0,0 l/m 10,8 km/h (2 Bft) SW 232 0 min 0,000 mm 1,1 UV-I 201 W/m 13,1 C 12,1 C 14,5 km/h (3 Bft) 100,00 %
31.05.2016 09:37 14,5 C 93 % 1009,5 hPa 0,0 l/m 7,2 km/h (2 Bft) S 187 0 min 0,000 mm 1,1 UV-I 203 W/m 13,4 C 14,0 C 9,7 km/h (2 Bft) 100,00 %
31.05.2016 09:38 14,5 C 92 % 1009,5 hPa 0,0 l/m 9,9 km/h (2 Bft) W-SW 254 0 min 0,000 mm 1,1 UV-I 202 W/m 13,2 C 12,6 C 14,5 km/h (3 Bft) 100,00 %
31.05.2016 09:39 14,5 C 93 % 1009,6 hPa 0,0 l/m 10,8 km/h (2 Bft) W 259 0 min 0,000 mm 1,1 UV-I 200 W/m 13,4 C 12,2 C 14,5 km/h (3 Bft) 100,00 %
31.05.2016 09:40 14,4 C 92 % 1009,6 hPa 0,0 l/m 7,8 km/h (2 Bft) W-SW 248 0 min 0,000 mm 1,1 UV-I 198 W/m 13,1 C 13,6 C 14,5 km/h (3 Bft) 100,00 %
31.05.2016 09:41 14,4 C 92 % 1009,6 hPa 0,0 l/m 12,3 km/h (3 Bft) W 267 0 min 0,000 mm 1,0 UV-I 193 W/m 13,1 C 11,5 C 16,1 km/h (3 Bft) 100,00 %
31.05.2016 09:42 14,4 C 92 % 1009,6 hPa 0,0 l/m 6,4 km/h (2 Bft) W-SW 241 0 min 0,000 mm 1,0 UV-I 188 W/m 13,1 C 14,4 C 9,7 km/h (2 Bft) 100,00 %
31.05.2016 09:43 14,4 C 92 % 1009,6 hPa 0,0 l/m 5,0 km/h (1 Bft) W 260 0 min 0,000 mm 1,0 UV-I 186 W/m 13,1 C 14,4 C 9,7 km/h (2 Bft) 95,65 %
31.05.2016 09:44 14,4 C 93 % 1009,6 hPa 0,0 l/m 6,4 km/h (2 Bft) SW 217 0 min 0,000 mm 1,0 UV-I 183 W/m 13,3 C 14,4 C 9,7 km/h (2 Bft) 100,00 %
31.05.2016 09:45 14,5 C 94 % 1009,6 hPa 0,0 l/m 4,8 km/h (1 Bft) W-SW 238 0 min 0,000 mm 1,0 UV-I 183 W/m 13,5 C 14,5 C 6,4 km/h (2 Bft) 97,14 %
31.05.2016 09:46 14,6 C 94 % 1009,6 hPa 0,0 l/m 5,4 km/h (1 Bft) SW 231 0 min 0,000 mm 1,0 UV-I 184 W/m 13,6 C 14,6 C 6,4 km/h (2 Bft) 100,00 %
31.05.2016 09:47 14,6 C 94 % 1009,6 hPa 0,0 l/m 4,8 km/h (1 Bft) W-SW 246 0 min 0,000 mm 1,0 UV-I 185 W/m 13,6 C 14,6 C 6,4 km/h (2 Bft) 95,65 %
31.05.2016 09:48 14,6 C 94 % 1009,5 hPa 0,0 l/m 6,6 km/h (2 Bft) SW 225 0 min 0,000 mm 1,0 UV-I 184 W/m 13,6 C 14,5 C 9,7 km/h (2 Bft) 100,00 %
31.05.2016 09:49 14,6 C 94 % 1009,5 hPa 0,0 l/m 5,5 km/h (1 Bft) W-SW 244 0 min 0,000 mm 0,9 UV-I 179 W/m 13,6 C 14,6 C 8,0 km/h (2 Bft) 100,00 %
31.05.2016 09:50 14,6 C 93 % 1009,5 hPa 0,0 l/m 9,5 km/h (2 Bft) W-SW 253 0 min 0,000 mm 0,9 UV-I 172 W/m 13,5 C 12,9 C 16,1 km/h (3 Bft) 100,00 %
31.05.2016 09:51 14,6 C 93 % 1009,5 hPa 0,0 l/m 11,4 km/h (2 Bft) SW 232 0 min 0,000 mm 0,9 UV-I 166 W/m 13,5 C 12,1 C 17,7 km/h (3 Bft) 96,15 %
31.05.2016 09:52 14,6 C 93 % 1009,5 hPa 0,0 l/m 8,8 km/h (2 Bft) W-SW 253 0 min 0,000 mm 0,9 UV-I 162 W/m 13,5 C 13,3 C 12,9 km/h (3 Bft) 100,00 %
31.05.2016 09:53 14,6 C 93 % 1009,5 hPa 0,0 l/m 8,7 km/h (2 Bft) S-SW 207 0 min 0,000 mm 0,8 UV-I 159 W/m 13,5 C 13,3 C 14,5 km/h (3 Bft) 100,00 %
31.05.2016 09:54 14,6 C 93 % 1009,5 hPa 0,0 l/m 5,4 km/h (1 Bft) W-SW 252 0 min 0,000 mm 0,8 UV-I 157 W/m 13,5 C 14,6 C 8,0 km/h (2 Bft) 100,00 %
31.05.2016 09:55 14,6 C 93 % 1009,5 hPa 0,0 l/m 6,2 km/h (2 Bft) SW 235 0 min 0,000 mm 0,8 UV-I 156 W/m 13,5 C 14,6 C 11,3 km/h (2 Bft) 100,00 %
31.05.2016 09:56 14,6 C 94 % 1009,5 hPa 0,0 l/m 9,0 km/h (2 Bft) W-SW 240 0 min 0,000 mm 0,9 UV-I 163 W/m 13,6 C 13,2 C 12,9 km/h (3 Bft) 100,00 %
31.05.2016 09:57 14,6 C 94 % 1009,5 hPa 0,0 l/m 4,6 km/h (1 Bft) SW 219 0 min 0,000 mm 0,9 UV-I 171 W/m 13,6 C 14,6 C 8,0 km/h (2 Bft) 100,00 %
31.05.2016 09:58 14,6 C 93 % 1009,5 hPa 0,0 l/m 6,5 km/h (2 Bft) W 259 0 min 0,000 mm 1,0 UV-I 182 W/m 13,5 C 14,6 C 12,9 km/h (3 Bft) 95,65 %
31.05.2016 09:59 14,6 C 94 % 1009,5 hPa 0,0 l/m 8,2 km/h (2 Bft) SW 217 0 min 0,000 mm 1,0 UV-I 194 W/m 13,6 C 13,6 C 11,3 km/h (2 Bft) 100,00 %
31.05.2016 10:00 14,6 C 94 % 1009,5 hPa 0,0 l/m 10,1 km/h (2 Bft) W-SW 256 0 min 0,102 mm 1,1 UV-I 204 W/m 13,6 C 12,6 C 14,5 km/h (3 Bft) 100,00 %
31.05.2016 10:02 14,6 C 94 % 1009,6 hPa 0,0 l/m 8,8 km/h (2 Bft) W 262 0 min 0,000 mm 1,2 UV-I 222 W/m 13,6 C 13,3 C 16,1 km/h (3 Bft) 100,00 %
31.05.2016 10:03 14,6 C 94 % 1009,5 hPa 0,0 l/m 7,3 km/h (2 Bft) SW 229 0 min 0,000 mm 1,3 UV-I 239 W/m 13,6 C 14,1 C 11,3 km/h (2 Bft) 100,00 %
31.05.2016 10:04 14,6 C 94 % 1009,5 hPa 0,0 l/m 9,0 km/h (2 Bft) W-NW 290 0 min 0,000 mm 1,4 UV-I 250 W/m 13,6 C 13,2 C 12,9 km/h (3 Bft) 95,65 %
31.05.2016 10:05 14,7 C 94 % 1009,5 hPa 0,0 l/m 7,4 km/h (2 Bft) SW 225 0 min 0,000 mm 1,4 UV-I 262 W/m 13,7 C 14,1 C 11,3 km/h (2 Bft) 100,00 %
31.05.2016 10:06 14,7 C 94 % 1009,5 hPa 0,0 l/m 6,8 km/h (2 Bft) W-SW 244 0 min 0,000 mm 1,6 UV-I 278 W/m 13,7 C 14,5 C 9,7 km/h (2 Bft) 92,31 %
31.05.2016 10:07 14,8 C 94 % 1009,5 hPa 0,0 l/m 7,2 km/h (2 Bft) SW 216 0 min 0,000 mm 1,6 UV-I 294 W/m 13,8 C 14,3 C 11,3 km/h (2 Bft) 100,00 %
31.05.2016 10:08 14,8 C 94 % 1009,6 hPa 0,0 l/m 8,0 km/h (2 Bft) SW 234 0 min 0,000 mm 1,7 UV-I 319 W/m 13,8 C 13,9 C 12,9 km/h (3 Bft) 100,00 %
31.05.2016 10:09 14,8 C 94 % 1009,5 hPa 0,0 l/m 9,2 km/h (2 Bft) W 261 0 min 0,000 mm 1,8 UV-I 342 W/m 13,8 C 13,3 C 12,9 km/h (3 Bft) 91,67 %
31.05.2016 10:10 14,8 C 93 % 1009,6 hPa 0,0 l/m 8,0 km/h (2 Bft) W-SW 257 0 min 0,000 mm 1,8 UV-I 352 W/m 13,7 C 13,9 C 11,3 km/h (2 Bft) 96,15 %
31.05.2016 10:11 14,9 C 94 % 1009,5 hPa 0,0 l/m 6,0 km/h (2 Bft) W-SW 253 0 min 0,000 mm 1,8 UV-I 354 W/m 13,9 C 14,9 C 11,3 km/h (2 Bft) 100,00 %
31.05.2016 10:12 15,0 C 94 % 1009,6 hPa 0,0 l/m 9,1 km/h (2 Bft) W-SW 250 0 min 0,000 mm 1,8 UV-I 343 W/m 14,0 C 13,5 C 12,9 km/h (3 Bft) 100,00 %
31.05.2016 10:13 15,1 C 94 % 1009,6 hPa 0,0 l/m 7,7 km/h (2 Bft) W 267 0 min 0,000 mm 1,8 UV-I 342 W/m 14,1 C 14,4 C 12,9 km/h (3 Bft) 100,00 %
31.05.2016 10:14 15,1 C 94 % 1009,5 hPa 0,0 l/m 12,7 km/h (3 Bft) W 275 0 min 0,000 mm 1,9 UV-I 341 W/m 14,1 C 12,1 C 17,7 km/h (3 Bft) 95,65 %
31.05.2016 10:15 15,1 C 93 % 1009,6 hPa 0,0 l/m 11,3 km/h (2 Bft) W-SW 247 0 min 0,000 mm 1,9 UV-I 344 W/m 14,0 C 12,7 C 14,5 km/h (3 Bft) 100,00 %
31.05.2016 10:16 15,1 C 93 % 1009,6 hPa 0,0 l/m 9,9 km/h (2 Bft) W-SW 244 0 min 0,000 mm 2,0 UV-I 362 W/m 14,0 C 13,3 C 12,9 km/h (3 Bft) 100,00 %
31.05.2016 10:17 15,1 C 93 % 1009,7 hPa 0,0 l/m 11,0 km/h (2 Bft) SW 226 0 min 0,000 mm 2,1 UV-I 375 W/m 14,0 C 12,8 C 16,1 km/h (3 Bft) 100,00 %
31.05.2016 10:18 15,2 C 93 % 1009,6 hPa 0,0 l/m 6,5 km/h (2 Bft) S 181 0 min 0,000 mm 2,2 UV-I 379 W/m 14,1 C 15,2 C 14,5 km/h (3 Bft) 100,00 %
31.05.2016 10:19 15,2 C 93 % 1009,7 hPa 0,0 l/m 8,9 km/h (2 Bft) W 259 0 min 0,000 mm 2,2 UV-I 389 W/m 14,1 C 13,9 C 11,3 km/h (2 Bft) 100,00 %
31.05.2016 10:20 15,2 C 93 % 1009,6 hPa 0,0 l/m 8,6 km/h (2 Bft) W-SW 244 0 min 0,000 mm 2,2 UV-I 381 W/m 14,1 C 14,0 C 14,5 km/h (3 Bft) 100,00 %
31.05.2016 10:21 15,3 C 94 % 1009,6 hPa 0,0 l/m 13,4 km/h (3 Bft) W-SW 238 0 min 0,000 mm 2,1 UV-I 373 W/m 14,3 C 12,1 C 17,7 km/h (3 Bft) 95,65 %
31.05.2016 10:22 15,3 C 93 % 1009,6 hPa 0,0 l/m 12,1 km/h (2 Bft) SW 228 0 min 0,000 mm 2,1 UV-I 362 W/m 14,2 C 12,6 C 20,9 km/h (4 Bft) 100,00 %
31.05.2016 10:23 15,3 C 91 % 1009,6 hPa 0,0 l/m 11,9 km/h (2 Bft) SW 222 0 min 0,000 mm 2,0 UV-I 351 W/m 13,8 C 12,7 C 17,7 km/h (3 Bft) 100,00 %
31.05.2016 10:24 15,2 C 91 % 1009,6 hPa 0,0 l/m 14,9 km/h (3 Bft) S 188 0 min 0,000 mm 1,9 UV-I 333 W/m 13,7 C 11,5 C 20,9 km/h (4 Bft) 100,00 %
31.05.2016 10:25 15,2 C 91 % 1009,7 hPa 0,0 l/m 12,9 km/h (3 Bft) SW 229 0 min 0,000 mm 1,9 UV-I 321 W/m 13,7 C 12,2 C 17,7 km/h (3 Bft) 95,65 %
31.05.2016 10:26 15,2 C 91 % 1009,7 hPa 0,0 l/m 18,5 km/h (3 Bft) S 171 0 min 0,000 mm 1,9 UV-I 318 W/m 13,7 C 10,4 C 24,1 km/h (4 Bft) 100,00 %
31.05.2016 10:27 15,2 C 91 % 1009,7 hPa 0,0 l/m 14,0 km/h (3 Bft) SW 232 0 min 0,000 mm 1,9 UV-I 315 W/m 13,7 C 11,8 C 17,7 km/h (3 Bft) 95,65 %
31.05.2016 10:28 15,2 C 91 % 1009,7 hPa 0,0 l/m 14,9 km/h (3 Bft) W-SW 250 0 min 0,000 mm 1,9 UV-I 311 W/m 13,7 C 11,5 C 19,3 km/h (3 Bft) 100,00 %
31.05.2016 10:29 15,2 C 91 % 1009,7 hPa 0,0 l/m 9,7 km/h (2 Bft) W 263 0 min 0,000 mm 1,9 UV-I 303 W/m 13,7 C 13,5 C 16,1 km/h (3 Bft) 100,00 %
31.05.2016 10:30 15,2 C 91 % 1009,7 hPa 0,0 l/m 11,2 km/h (2 Bft) W 265 0 min 0,000 mm 1,8 UV-I 290 W/m 13,7 C 12,8 C 16,1 km/h (3 Bft) 100,00 %
31.05.2016 10:31 15,2 C 92 % 1009,7 hPa 0,0 l/m 13,9 km/h (3 Bft) W 265 0 min 0,000 mm 1,8 UV-I 281 W/m 13,9 C 11,8 C 17,7 km/h (3 Bft) 100,00 %
31.05.2016 10:32 15,2 C 92 % 1009,7 hPa 0,0 l/m 7,4 km/h (2 Bft) W-SW 246 0 min 0,000 mm 1,8 UV-I 273 W/m 13,9 C 14,6 C 14,5 km/h (3 Bft) 100,00 %
31.05.2016 10:33 15,2 C 92 % 1009,7 hPa 0,0 l/m 12,3 km/h (3 Bft) SW 235 0 min 0,000 mm 1,7 UV-I 264 W/m 13,9 C 12,4 C 16,1 km/h (3 Bft) 100,00 %
31.05.2016 10:34 15,2 C 92 % 1009,7 hPa 0,0 l/m 12,9 km/h (3 Bft) SW 215 0 min 0,000 mm 1,7 UV-I 254 W/m 13,9 C 12,2 C 16,1 km/h (3 Bft) 100,00 %
31.05.2016 10:35 15,2 C 91 % 1009,7 hPa 0,0 l/m 9,8 km/h (2 Bft) W-SW 245 0 min 0,000 mm 1,6 UV-I 243 W/m 13,7 C 13,4 C 14,5 km/h (3 Bft) 100,00 %
31.05.2016 10:36 15,2 C 91 % 1009,7 hPa 0,0 l/m 13,1 km/h (3 Bft) SW 236 0 min 0,000 mm 1,5 UV-I 232 W/m 13,7 C 12,1 C 19,3 km/h (3 Bft) 100,00 %
31.05.2016 10:37 15,2 C 91 % 1009,7 hPa 0,0 l/m 11,1 km/h (2 Bft) W-SW 248 0 min 0,000 mm 1,4 UV-I 223 W/m 13,7 C 12,9 C 14,5 km/h (3 Bft) 100,00 %
31.05.2016 10:38 15,2 C 91 % 1009,7 hPa 0,0 l/m 10,9 km/h (2 Bft) S-SW 209 0 min 0,000 mm 1,4 UV-I 218 W/m 13,7 C 12,9 C 19,3 km/h (3 Bft) 100,00 %
31.05.2016 10:39 15,2 C 91 % 1009,7 hPa 0,0 l/m 9,7 km/h (2 Bft) W 267 0 min 0,000 mm 1,4 UV-I 215 W/m 13,7 C 13,5 C 14,5 km/h (3 Bft) 95,83 %
31.05.2016 10:40 15,1 C 91 % 1009,7 hPa 0,0 l/m 9,4 km/h (2 Bft) W-SW 246 0 min 0,000 mm 1,4 UV-I 209 W/m 13,6 C 13,5 C 16,1 km/h (3 Bft) 96,15 %
31.05.2016 10:41 15,2 C 92 % 1009,8 hPa 0,0 l/m 9,0 km/h (2 Bft) S-SW 211 0 min 0,000 mm 1,4 UV-I 208 W/m 13,9 C 13,8 C 14,5 km/h (3 Bft) 100,00 %
31.05.2016 10:42 15,2 C 93 % 1009,7 hPa 0,0 l/m 5,0 km/h (1 Bft) SW 235 0 min 0,000 mm 1,5 UV-I 216 W/m 14,1 C 15,2 C 6,4 km/h (2 Bft) 100,00 %
31.05.2016 10:43 15,2 C 92 % 1009,8 hPa 0,0 l/m 8,0 km/h (2 Bft) W-NW 298 0 min 0,000 mm 1,6 UV-I 237 W/m 13,9 C 14,3 C 12,9 km/h (3 Bft) 100,00 %
31.05.2016 10:44 15,2 C 92 % 1009,8 hPa 0,0 l/m 6,9 km/h (2 Bft) W-SW 245 0 min 0,000 mm 1,8 UV-I 265 W/m 13,9 C 14,9 C 11,3 km/h (2 Bft) 100,00 %
31.05.2016 10:45 15,2 C 92 % 1009,8 hPa 0,0 l/m 8,8 km/h (2 Bft) SW 232 0 min 0,000 mm 2,0 UV-I 295 W/m 13,9 C 13,9 C 11,3 km/h (2 Bft) 100,00 %
31.05.2016 10:46 15,2 C 92 % 1009,8 hPa 0,0 l/m 10,1 km/h (2 Bft) W-SW 250 0 min 0,000 mm 2,2 UV-I 322 W/m 13,9 C 13,3 C 16,1 km/h (3 Bft) 100,00 %
31.05.2016 10:47 15,2 C 92 % 1009,8 hPa 0,0 l/m 12,7 km/h (3 Bft) W-SW 251 0 min 0,000 mm 2,4 UV-I 341 W/m 13,9 C 12,2 C 16,1 km/h (3 Bft) 100,00 %
31.05.2016 10:48 15,2 C 92 % 1009,8 hPa 0,0 l/m 13,0 km/h (3 Bft) W-SW 258 0 min 0,000 mm 2,4 UV-I 353 W/m 13,9 C 12,1 C 19,3 km/h (3 Bft) 100,00 %
31.05.2016 10:49 15,2 C 92 % 1009,8 hPa 0,0 l/m 11,1 km/h (2 Bft) W-SW 254 0 min 0,000 mm 2,5 UV-I 357 W/m 13,9 C 12,9 C 20,9 km/h (4 Bft) 100,00 %
31.05.2016 10:50 15,2 C 92 % 1009,9 hPa 0,0 l/m 15,6 km/h (3 Bft) W-SW 244 0 min 0,000 mm 2,5 UV-I 365 W/m 13,9 C 11,2 C 22,5 km/h (4 Bft) 95,83 %
31.05.2016 10:51 15,2 C 92 % 1009,9 hPa 0,0 l/m 14,4 km/h (3 Bft) SW 234 0 min 0,000 mm 2,6 UV-I 373 W/m 13,9 C 11,6 C 19,3 km/h (3 Bft) 100,00 %
31.05.2016 10:52 15,3 C 92 % 1009,9 hPa 0,0 l/m 8,8 km/h (2 Bft) SW 235 0 min 0,000 mm 2,6 UV-I 385 W/m 14,0 C 14,0 C 11,3 km/h (2 Bft) 95,83 %
31.05.2016 10:53 15,3 C 93 % 1009,9 hPa 0,0 l/m 8,0 km/h (2 Bft) SW 236 0 min 0,000 mm 2,8 UV-I 408 W/m 14,2 C 14,4 C 11,3 km/h (2 Bft) 96,15 %
31.05.2016 10:54 15,4 C 93 % 1009,9 hPa 0,0 l/m 11,9 km/h (2 Bft) W-SW 244 0 min 0,000 mm 2,8 UV-I 417 W/m 14,3 C 12,8 C 17,7 km/h (3 Bft) 100,00 %
31.05.2016 10:55 15,4 C 92 % 1009,9 hPa 0,0 l/m 11,2 km/h (2 Bft) W-SW 252 1 min 0,000 mm 2,8 UV-I 439 W/m 14,1 C 13,0 C 19,3 km/h (3 Bft) 95,65 %
31.05.2016 10:56 15,4 C 92 % 1009,9 hPa 0,0 l/m 10,6 km/h (2 Bft) W 263 1 min 0,000 mm 3,0 UV-I 476 W/m 14,1 C 13,3 C 16,1 km/h (3 Bft) 100,00 %
31.05.2016 10:57 15,5 C 92 % 1009,9 hPa 0,0 l/m 14,4 km/h (3 Bft) SW 223 1 min 0,000 mm 3,0 UV-I 468 W/m 14,2 C 12,0 C 20,9 km/h (4 Bft) 91,30 %
31.05.2016 11:00 15,6 C 91 % 1009,9 hPa 0,0 l/m 9,2 km/h (2 Bft) S-SW 204 0 min 0,177 mm 2,6 UV-I 411 W/m 14,1 C 14,1 C 12,9 km/h (3 Bft) 96,05 %
31.05.2016 11:02 15,5 C 91 % 1010,0 hPa 0,0 l/m 12,4 km/h (3 Bft) W-SW 251 0 min 0,000 mm 2,3 UV-I 369 W/m 14,0 C 12,7 C 19,3 km/h (3 Bft) 97,87 %
31.05.2016 11:03 15,5 C 91 % 1009,8 hPa 0,0 l/m 10,2 km/h (2 Bft) W-SW 247 0 min 0,000 mm 2,3 UV-I 350 W/m 14,0 C 13,6 C 14,5 km/h (3 Bft) 100,00 %
31.05.2016 11:04 15,6 C 92 % 1009,9 hPa 0,0 l/m 13,1 km/h (3 Bft) W-SW 248 0 min 0,000 mm 2,5 UV-I 378 W/m 14,3 C 12,6 C 16,1 km/h (3 Bft) 91,30 %
31.05.2016 11:05 15,6 C 92 % 1009,9 hPa 0,2 l/m 12,8 km/h (3 Bft) S-SW 206 0 min 0,000 mm 2,7 UV-I 424 W/m 14,3 C 12,7 C 19,3 km/h (3 Bft) 95,83 %
31.05.2016 11:06 15,6 C 91 % 1009,9 hPa 0,0 l/m 12,9 km/h (3 Bft) W-SW 238 0 min 0,000 mm 2,6 UV-I 385 W/m 14,1 C 12,6 C 17,7 km/h (3 Bft) 95,65 %
31.05.2016 11:07 15,6 C 91 % 1009,9 hPa 0,0 l/m 11,0 km/h (2 Bft) SW 221 0 min 0,000 mm 2,5 UV-I 381 W/m 14,1 C 13,4 C 17,7 km/h (3 Bft) 100,00 %
31.05.2016 11:08 15,6 C 92 % 1009,9 hPa 0,0 l/m 11,2 km/h (2 Bft) SW 227 0 min 0,000 mm 2,7 UV-I 405 W/m 14,3 C 13,3 C 16,1 km/h (3 Bft) 92,31 %
31.05.2016 11:09 15,6 C 91 % 1009,9 hPa 0,0 l/m 9,9 km/h (2 Bft) SW 234 0 min 0,000 mm 2,7 UV-I 406 W/m 14,1 C 13,8 C 14,5 km/h (3 Bft) 95,83 %
31.05.2016 11:10 15,6 C 92 % 1009,9 hPa 0,0 l/m 10,8 km/h (2 Bft) S-SW 207 0 min 0,000 mm 2,7 UV-I 415 W/m 14,3 C 13,4 C 16,1 km/h (3 Bft) 100,00 %
31.05.2016 11:11 15,7 C 92 % 1009,9 hPa 0,0 l/m 7,2 km/h (2 Bft) SW 234 0 min 0,000 mm 2,8 UV-I 423 W/m 14,4 C 15,3 C 11,3 km/h (2 Bft) 95,65 %
31.05.2016 11:12 15,7 C 93 % 1009,9 hPa 0,0 l/m 6,2 km/h (2 Bft) W 273 1 min 0,000 mm 3,0 UV-I 481 W/m 14,6 C 15,7 C 12,9 km/h (3 Bft) 95,83 %
31.05.2016 11:13 15,7 C 93 % 1009,9 hPa 0,0 l/m 8,7 km/h (2 Bft) W 271 1 min 0,000 mm 3,1 UV-I 504 W/m 14,6 C 14,5 C 11,3 km/h (2 Bft) 95,65 %
31.05.2016 11:14 15,8 C 92 % 1009,8 hPa 0,0 l/m 13,3 km/h (3 Bft) W-SW 237 1 min 0,000 mm 3,4 UV-I 504 W/m 14,5 C 12,7 C 24,1 km/h (4 Bft) 100,00 %
31.05.2016 11:15 15,8 C 91 % 1009,8 hPa 0,0 l/m 12,9 km/h (3 Bft) S-SW 207 1 min 0,000 mm 3,4 UV-I 515 W/m 14,3 C 12,9 C 17,7 km/h (3 Bft) 96,15 %
31.05.2016 11:16 15,8 C 92 % 1009,8 hPa 0,0 l/m 10,9 km/h (2 Bft) W 259 1 min 0,000 mm 3,5 UV-I 522 W/m 14,5 C 13,6 C 14,5 km/h (3 Bft) 95,83 %
31.05.2016 11:17 15,8 C 92 % 1009,8 hPa 0,0 l/m 10,7 km/h (2 Bft) W-SW 253 1 min 0,000 mm 3,5 UV-I 521 W/m 14,5 C 13,7 C 14,5 km/h (3 Bft) 100,00 %
31.05.2016 11:18 15,9 C 92 % 1009,8 hPa 0,0 l/m 14,6 km/h (3 Bft) W 265 1 min 0,000 mm 3,5 UV-I 520 W/m 14,6 C 12,4 C 20,9 km/h (4 Bft) 95,83 %
31.05.2016 11:19 15,9 C 92 % 1009,8 hPa 0,0 l/m 13,7 km/h (3 Bft) W-SW 244 1 min 0,000 mm 3,6 UV-I 523 W/m 14,6 C 12,7 C 20,9 km/h (4 Bft) 100,00 %
31.05.2016 11:20 16,0 C 92 % 1009,8 hPa 0,0 l/m 17,8 km/h (3 Bft) W-SW 252 1 min 0,000 mm 3,6 UV-I 522 W/m 14,7 C 11,6 C 24,1 km/h (4 Bft) 95,83 %
31.05.2016 11:21 16,0 C 91 % 1009,8 hPa 0,0 l/m 14,4 km/h (3 Bft) W-SW 238 1 min 0,000 mm 3,4 UV-I 500 W/m 14,5 C 12,6 C 22,5 km/h (4 Bft) 96,15 %
31.05.2016 11:22 16,0 C 90 % 1009,8 hPa 0,0 l/m 13,2 km/h (3 Bft) W 269 1 min 0,000 mm 3,2 UV-I 458 W/m 14,4 C 13,0 C 22,5 km/h (4 Bft) 100,00 %
31.05.2016 11:23 16,0 C 91 % 1009,8 hPa 0,0 l/m 9,9 km/h (2 Bft) SW 216 0 min 0,000 mm 2,8 UV-I 405 W/m 14,5 C 14,3 C 16,1 km/h (3 Bft) 100,00 %
31.05.2016 11:24 16,1 C 91 % 1009,8 hPa 0,0 l/m 15,4 km/h (3 Bft) W-SW 247 0 min 0,000 mm 2,5 UV-I 354 W/m 14,6 C 12,4 C 24,1 km/h (4 Bft) 95,83 %
31.05.2016 11:25 16,1 C 91 % 1009,8 hPa 0,0 l/m 10,3 km/h (2 Bft) SW 230 0 min 0,000 mm 2,4 UV-I 349 W/m 14,6 C 14,2 C 17,7 km/h (3 Bft) 95,65 %
31.05.2016 11:26 16,1 C 92 % 1009,8 hPa 0,0 l/m 10,9 km/h (2 Bft) W 260 0 min 0,000 mm 2,5 UV-I 352 W/m 14,8 C 14,0 C 16,1 km/h (3 Bft) 100,00 %
31.05.2016 11:27 16,1 C 90 % 1009,8 hPa 0,0 l/m 10,9 km/h (2 Bft) SW 220 0 min 0,000 mm 2,7 UV-I 373 W/m 14,5 C 14,0 C 16,1 km/h (3 Bft) 100,00 %
31.05.2016 11:28 16,1 C 91 % 1009,8 hPa 0,0 l/m 11,5 km/h (2 Bft) W-SW 253 0 min 0,000 mm 2,5 UV-I 364 W/m 14,6 C 13,7 C 16,1 km/h (3 Bft) 100,00 %
31.05.2016 11:29 16,0 C 89 % 1009,9 hPa 0,0 l/m 16,4 km/h (3 Bft) SW 223 0 min 0,000 mm 2,2 UV-I 314 W/m 14,2 C 12,0 C 20,9 km/h (4 Bft) 100,00 %
31.05.2016 11:30 16,0 C 89 % 1009,9 hPa 0,0 l/m 13,3 km/h (3 Bft) SW 222 0 min 0,000 mm 2,3 UV-I 337 W/m 14,2 C 13,0 C 17,7 km/h (3 Bft) 100,00 %
31.05.2016 11:31 15,9 C 89 % 1009,9 hPa 0,0 l/m 13,9 km/h (3 Bft) W 267 0 min 0,000 mm 2,6 UV-I 371 W/m 14,1 C 12,6 C 20,9 km/h (4 Bft) 100,00 %
31.05.2016 11:32 15,9 C 89 % 1009,9 hPa 0,0 l/m 13,9 km/h (3 Bft) W-SW 246 0 min 0,000 mm 2,7 UV-I 384 W/m 14,1 C 12,6 C 19,3 km/h (3 Bft) 100,00 %
31.05.2016 11:33 15,9 C 88 % 1009,9 hPa 0,0 l/m 15,6 km/h (3 Bft) W 259 0 min 0,000 mm 2,8 UV-I 390 W/m 13,9 C 12,1 C 22,5 km/h (4 Bft) 100,00 %
31.05.2016 11:34 15,9 C 88 % 1009,9 hPa 0,0 l/m 15,7 km/h (3 Bft) W-SW 239 0 min 0,000 mm 2,7 UV-I 383 W/m 13,9 C 12,1 C 22,5 km/h (4 Bft) 91,67 %
31.05.2016 11:35 15,8 C 89 % 1010,0 hPa 0,0 l/m 8,7 km/h (2 Bft) W 275 0 min 0,000 mm 2,5 UV-I 357 W/m 14,0 C 14,6 C 12,9 km/h (3 Bft) 100,00 %
31.05.2016 11:36 15,8 C 89 % 1010,0 hPa 0,0 l/m 8,6 km/h (2 Bft) SW 234 0 min 0,000 mm 2,1 UV-I 314 W/m 14,0 C 14,6 C 14,5 km/h (3 Bft) 100,00 %
31.05.2016 11:37 15,8 C 89 % 1010,0 hPa 0,0 l/m 12,3 km/h (3 Bft) W-SW 250 0 min 0,000 mm 2,0 UV-I 292 W/m 14,0 C 13,1 C 16,1 km/h (3 Bft) 100,00 %
31.05.2016 11:38 15,8 C 89 % 1010,0 hPa 0,0 l/m 11,4 km/h (2 Bft) W-SW 248 0 min 0,000 mm 1,7 UV-I 268 W/m 14,0 C 13,4 C 17,7 km/h (3 Bft) 100,00 %
31.05.2016 11:39 15,8 C 90 % 1010,0 hPa 0,0 l/m 4,8 km/h (1 Bft) SW 230 0 min 0,000 mm 1,6 UV-I 252 W/m 14,2 C 15,8 C 9,7 km/h (2 Bft) 100,00 %
31.05.2016 11:40 15,7 C 90 % 1010,0 hPa 0,0 l/m 7,8 km/h (2 Bft) W 271 0 min 0,000 mm 1,8 UV-I 269 W/m 14,1 C 14,9 C 12,9 km/h (3 Bft) 100,00 %
31.05.2016 11:41 15,7 C 89 % 1010,0 hPa 0,0 l/m 9,9 km/h (2 Bft) W-NW 291 0 min 0,000 mm 1,8 UV-I 282 W/m 13,9 C 13,9 C 16,1 km/h (3 Bft) 95,83 %
31.05.2016 11:42 15,7 C 91 % 1010,0 hPa 0,0 l/m 10,5 km/h (2 Bft) W-SW 248 0 min 0,000 mm 1,8 UV-I 281 W/m 14,2 C 13,7 C 14,5 km/h (3 Bft) 100,00 %
31.05.2016 11:43 15,7 C 90 % 1010,1 hPa 0,0 l/m 12,9 km/h (3 Bft) W-SW 255 0 min 0,000 mm 1,7 UV-I 256 W/m 14,1 C 12,7 C 17,7 km/h (3 Bft) 100,00 %
31.05.2016 11:44 15,6 C 89 % 1010,0 hPa 0,0 l/m 13,6 km/h (3 Bft) W-NW 285 0 min 0,000 mm 1,6 UV-I 239 W/m 13,8 C 12,4 C 20,9 km/h (4 Bft) 100,00 %
31.05.2016 11:45 15,6 C 89 % 1010,1 hPa 0,0 l/m 6,5 km/h (2 Bft) W-SW 252 0 min 0,000 mm 1,5 UV-I 227 W/m 13,8 C 15,6 C 9,7 km/h (2 Bft) 91,67 %
31.05.2016 11:46 15,5 C 89 % 1010,1 hPa 0,0 l/m 7,1 km/h (2 Bft) W 265 0 min 0,000 mm 1,5 UV-I 223 W/m 13,7 C 15,1 C 14,5 km/h (3 Bft) 100,00 %
31.05.2016 11:47 15,4 C 89 % 1010,1 hPa 0,0 l/m 7,6 km/h (2 Bft) SW 232 0 min 0,000 mm 1,6 UV-I 233 W/m 13,6 C 14,7 C 12,9 km/h (3 Bft) 100,00 %
31.05.2016 11:48 15,4 C 90 % 1010,1 hPa 0,0 l/m 12,2 km/h (2 Bft) W-NW 300 0 min 0,000 mm 1,6 UV-I 239 W/m 13,8 C 12,7 C 17,7 km/h (3 Bft) 96,15 %
31.05.2016 11:49 15,4 C 90 % 1010,1 hPa 0,0 l/m 13,7 km/h (3 Bft) W 277 0 min 0,000 mm 1,6 UV-I 239 W/m 13,8 C 12,1 C 20,9 km/h (4 Bft) 100,00 %
31.05.2016 11:50 15,3 C 89 % 1010,1 hPa 0,0 l/m 12,2 km/h (2 Bft) W-NW 292 0 min 0,000 mm 1,6 UV-I 233 W/m 13,5 C 12,5 C 19,3 km/h (3 Bft) 100,00 %
31.05.2016 11:51 15,3 C 89 % 1010,1 hPa 0,0 l/m 11,6 km/h (2 Bft) W 280 0 min 0,000 mm 1,5 UV-I 226 W/m 13,5 C 12,8 C 17,7 km/h (3 Bft) 100,00 %
31.05.2016 11:52 15,3 C 89 % 1010,1 hPa 0,0 l/m 9,5 km/h (2 Bft) W 265 0 min 0,000 mm 1,4 UV-I 221 W/m 13,5 C 13,7 C 17,7 km/h (3 Bft) 100,00 %
31.05.2016 11:53 15,3 C 89 % 1010,1 hPa 0,0 l/m 9,3 km/h (2 Bft) W-SW 254 0 min 0,000 mm 1,4 UV-I 211 W/m 13,5 C 13,8 C 14,5 km/h (3 Bft) 100,00 %
31.05.2016 11:54 15,2 C 89 % 1010,1 hPa 0,0 l/m 8,6 km/h (2 Bft) NW 311 0 min 0,000 mm 1,3 UV-I 204 W/m 13,4 C 14,0 C 14,5 km/h (3 Bft) 100,00 %
31.05.2016 11:55 15,2 C 89 % 1010,1 hPa 0,0 l/m 7,5 km/h (2 Bft) W-SW 238 0 min 0,000 mm 1,4 UV-I 212 W/m 13,4 C 14,6 C 11,3 km/h (2 Bft) 100,00 %
31.05.2016 11:56 15,2 C 89 % 1010,2 hPa 0,0 l/m 5,6 km/h (1 Bft) W-SW 252 0 min 0,000 mm 1,5 UV-I 228 W/m 13,4 C 15,2 C 11,3 km/h (2 Bft) 100,00 %
31.05.2016 11:57 15,2 C 90 % 1010,2 hPa 0,0 l/m 7,6 km/h (2 Bft) W-NW 298 0 min 0,000 mm 1,6 UV-I 246 W/m 13,6 C 14,5 C 11,3 km/h (2 Bft) 100,00 %
31.05.2016 11:58 15,3 C 90 % 1010,2 hPa 0,0 l/m 9,7 km/h (2 Bft) W-SW 248 0 min 0,000 mm 1,7 UV-I 257 W/m 13,7 C 13,6 C 16,1 km/h (3 Bft) 100,00 %
31.05.2016 11:59 15,3 C 90 % 1010,2 hPa 0,0 l/m 7,1 km/h (2 Bft) W-SW 238 0 min 0,000 mm 1,7 UV-I 248 W/m 13,7 C 14,9 C 9,7 km/h (2 Bft) 98,34 %
31.05.2016 12:00 15,3 C 90 % 1010,2 hPa 0,0 l/m 13,3 km/h (3 Bft) W-SW 248 0 min 0,000 mm 1,7 UV-I 247 W/m 13,7 C 12,1 C 17,7 km/h (3 Bft) 97,37 %
31.05.2016 12:02 15,4 C 91 % 1010,3 hPa 0,0 l/m 6,4 km/h (2 Bft) W-SW 248 0 min 0,204 mm 1,7 UV-I 251 W/m 13,9 C 15,4 C 11,3 km/h (2 Bft) 100,00 %
31.05.2016 12:03 15,4 C 90 % 1010,3 hPa 0,0 l/m 6,9 km/h (2 Bft) W-SW 254 0 min 0,000 mm 1,7 UV-I 246 W/m 13,8 C 15,1 C 11,3 km/h (2 Bft) 100,00 %
31.05.2016 12:04 15,4 C 90 % 1010,2 hPa 0,0 l/m 6,7 km/h (2 Bft) W-NW 284 0 min 0,000 mm 1,7 UV-I 252 W/m 13,8 C 15,2 C 9,7 km/h (2 Bft) 96,30 %
31.05.2016 12:05 15,4 C 91 % 1010,2 hPa 0,0 l/m 9,3 km/h (2 Bft) W-SW 252 0 min 0,000 mm 1,8 UV-I 269 W/m 13,9 C 13,9 C 12,9 km/h (3 Bft) 100,00 %
31.05.2016 12:10 15,7 C 90 % 1010,2 hPa 0,0 l/m 9,7 km/h (2 Bft) W-SW 247 0 min 0,000 mm 2,4 UV-I 348 W/m 14,1 C 14,0 C 19,3 km/h (3 Bft) 100,00 %
31.05.2016 12:14 15,8 C 89 % 1010,3 hPa 0,0 l/m 9,6 km/h (2 Bft) SW 229 0 min 0,000 mm 2,7 UV-I 382 W/m 14,0 C 14,2 C 16,1 km/h (3 Bft) 99,03 %
31.05.2016 12:15 15,8 C 89 % 1010,3 hPa 0,0 l/m 10,5 km/h (2 Bft) W-SW 244 1 min 0,000 mm 3,4 UV-I 483 W/m 14,0 C 13,8 C 16,1 km/h (3 Bft) 100,00 %
31.05.2016 12:16 15,8 C 88 % 1010,3 hPa 0,0 l/m 16,2 km/h (3 Bft) W 279 1 min 0,000 mm 3,6 UV-I 552 W/m 13,8 C 11,8 C 20,9 km/h (4 Bft) 100,00 %
31.05.2016 12:17 15,9 C 88 % 1010,3 hPa 0,0 l/m 10,2 km/h (2 Bft) W-NW 284 1 min 0,000 mm 3,7 UV-I 511 W/m 13,9 C 14,0 C 16,1 km/h (3 Bft) 91,30 %
31.05.2016 12:18 15,9 C 88 % 1010,3 hPa 0,0 l/m 7,5 km/h (2 Bft) SW 234 1 min 0,000 mm 3,7 UV-I 522 W/m 13,9 C 15,3 C 14,5 km/h (3 Bft) 100,00 %
31.05.2016 12:19 16,0 C 89 % 1010,3 hPa 0,0 l/m 9,6 km/h (2 Bft) W-NW 283 1 min 0,000 mm 4,8 UV-I 561 W/m 14,2 C 14,4 C 14,5 km/h (3 Bft) 95,65 %
31.05.2016 12:20 16,1 C 89 % 1010,3 hPa 0,0 l/m 11,3 km/h (2 Bft) W 273 1 min 0,000 mm 6,1 UV-I 561 W/m 14,3 C 13,8 C 17,7 km/h (3 Bft) 100,00 %
31.05.2016 12:21 16,2 C 89 % 1010,3 hPa 0,0 l/m 10,7 km/h (2 Bft) W-SW 242 1 min 0,000 mm 5,0 UV-I 561 W/m 14,4 C 14,2 C 14,5 km/h (3 Bft) 100,00 %
31.05.2016 12:22 16,4 C 91 % 1010,3 hPa 0,0 l/m 11,7 km/h (2 Bft) W-SW 256 1 min 0,000 mm 5,3 UV-I 809 W/m 14,9 C 14,0 C 17,7 km/h (3 Bft) 95,83 %
31.05.2016 12:23 16,5 C 89 % 1010,4 hPa 0,0 l/m 13,4 km/h (3 Bft) W-NW 297 1 min 0,000 mm 5,0 UV-I 789 W/m 14,7 C 13,5 C 20,9 km/h (4 Bft) 100,00 %
31.05.2016 12:24 16,5 C 87 % 1010,3 hPa 0,0 l/m 15,3 km/h (3 Bft) W-SW 240 1 min 0,000 mm 5,0 UV-I 733 W/m 14,3 C 12,9 C 24,1 km/h (4 Bft) 100,00 %
31.05.2016 12:25 16,5 C 85 % 1010,4 hPa 0,0 l/m 13,9 km/h (3 Bft) W-SW 251 1 min 0,000 mm 4,6 UV-I 659 W/m 14,0 C 13,4 C 19,3 km/h (3 Bft) 100,00 %
31.05.2016 12:26 16,5 C 86 % 1010,4 hPa 0,0 l/m 10,6 km/h (2 Bft) W-SW 250 1 min 0,000 mm 4,5 UV-I 632 W/m 14,1 C 14,5 C 17,7 km/h (3 Bft) 100,00 %
31.05.2016 12:27 16,5 C 86 % 1010,4 hPa 0,0 l/m 14,0 km/h (3 Bft) W-SW 247 1 min 0,000 mm 4,6 UV-I 630 W/m 14,1 C 13,3 C 20,9 km/h (4 Bft) 100,00 %
31.05.2016 12:28 16,4 C 86 % 1010,4 hPa 0,0 l/m 9,6 km/h (2 Bft) W-SW 241 1 min 0,000 mm 4,9 UV-I 693 W/m 14,1 C 14,8 C 14,5 km/h (3 Bft) 100,00 %
31.05.2016 12:29 16,5 C 86 % 1010,5 hPa 0,0 l/m 10,7 km/h (2 Bft) SW 217 1 min 0,000 mm 5,4 UV-I 719 W/m 14,1 C 14,5 C 16,1 km/h (3 Bft) 100,00 %
31.05.2016 12:30 16,6 C 87 % 1010,5 hPa 0,0 l/m 10,3 km/h (2 Bft) W-SW 252 1 min 0,000 mm 5,2 UV-I 847 W/m 14,4 C 14,8 C 17,7 km/h (3 Bft) 100,00 %
31.05.2016 12:31 16,6 C 87 % 1010,5 hPa 0,0 l/m 7,6 km/h (2 Bft) SW 223 1 min 0,000 mm 4,4 UV-I 730 W/m 14,4 C 16,0 C 14,5 km/h (3 Bft) 100,00 %
31.05.2016 12:32 16,7 C 87 % 1010,5 hPa 0,0 l/m 11,6 km/h (2 Bft) W-SW 242 1 min 0,000 mm 5,0 UV-I 612 W/m 14,5 C 14,4 C 17,7 km/h (3 Bft) 100,00 %
31.05.2016 12:33 16,7 C 88 % 1010,5 hPa 0,0 l/m 13,7 km/h (3 Bft) W 260 1 min 0,000 mm 4,6 UV-I 642 W/m 14,7 C 13,7 C 20,9 km/h (4 Bft) 100,00 %
31.05.2016 12:34 16,7 C 85 % 1010,6 hPa 0,0 l/m 12,8 km/h (3 Bft) W-SW 239 1 min 0,000 mm 4,2 UV-I 601 W/m 14,2 C 14,0 C 17,7 km/h (3 Bft) 100,00 %
31.05.2016 12:35 16,7 C 85 % 1010,6 hPa 0,0 l/m 12,3 km/h (3 Bft) W-SW 255 1 min 0,000 mm 4,1 UV-I 588 W/m 14,2 C 14,1 C 17,7 km/h (3 Bft) 100,00 %
31.05.2016 12:36 16,6 C 85 % 1010,6 hPa 0,0 l/m 12,7 km/h (3 Bft) W-SW 238 1 min 0,000 mm 3,8 UV-I 556 W/m 14,1 C 13,9 C 19,3 km/h (3 Bft) 100,00 %
31.05.2016 12:37 16,6 C 86 % 1010,6 hPa 0,0 l/m 16,8 km/h (3 Bft) W 262 1 min 0,000 mm 3,9 UV-I 507 W/m 14,2 C 12,6 C 24,1 km/h (4 Bft) 100,00 %
31.05.2016 12:38 16,6 C 84 % 1010,6 hPa 0,0 l/m 20,7 km/h (4 Bft) W 265 1 min 0,000 mm 4,3 UV-I 533 W/m 13,9 C 11,7 C 24,1 km/h (4 Bft) 95,65 %
31.05.2016 12:39 16,6 C 85 % 1010,6 hPa 0,0 l/m 16,7 km/h (3 Bft) W 267 1 min 0,000 mm 5,1 UV-I 564 W/m 14,1 C 12,6 C 20,9 km/h (4 Bft) 100,00 %
31.05.2016 12:40 16,5 C 85 % 1010,5 hPa 0,0 l/m 16,2 km/h (3 Bft) W-SW 248 1 min 0,000 mm 4,9 UV-I 601 W/m 14,0 C 12,7 C 25,7 km/h (4 Bft) 100,00 %
31.05.2016 12:41 16,5 C 84 % 1010,5 hPa 0,0 l/m 14,8 km/h (3 Bft) W-SW 238 1 min 0,000 mm 5,7 UV-I 603 W/m 13,8 C 13,1 C 22,5 km/h (4 Bft) 100,00 %
31.05.2016 12:42 16,6 C 86 % 1010,5 hPa 0,0 l/m 12,2 km/h (2 Bft) W-SW 248 1 min 0,000 mm 6,1 UV-I 603 W/m 14,2 C 14,0 C 16,1 km/h (3 Bft) 100,00 %
31.05.2016 12:43 16,6 C 86 % 1010,5 hPa 0,0 l/m 12,2 km/h (2 Bft) W-SW 252 1 min 0,000 mm 6,7 UV-I 822 W/m 14,2 C 14,0 C 19,3 km/h (3 Bft) 100,00 %
31.05.2016 12:44 16,7 C 85 % 1010,5 hPa 0,0 l/m 19,9 km/h (4 Bft) W-SW 246 1 min 0,000 mm 6,6 UV-I 976 W/m 14,2 C 12,0 C 29,0 km/h (5 Bft) 100,00 %
31.05.2016 12:45 16,8 C 85 % 1010,4 hPa 0,0 l/m 16,8 km/h (3 Bft) W-NW 302 1 min 0,000 mm 6,9 UV-I 1035 W/m 14,3 C 12,9 C 25,7 km/h (4 Bft) 100,00 %
31.05.2016 12:46 16,8 C 86 % 1010,4 hPa 0,0 l/m 16,4 km/h (3 Bft) SW 236 1 min 0,000 mm 7,3 UV-I 1125 W/m 14,4 C 13,0 C 27,4 km/h (4 Bft) 91,30 %
31.05.2016 12:47 16,9 C 84 % 1010,5 hPa 0,0 l/m 19,0 km/h (3 Bft) W-SW 241 1 min 0,000 mm 7,3 UV-I 1124 W/m 14,2 C 12,4 C 29,0 km/h (5 Bft) 100,00 %
31.05.2016 12:48 17,1 C 86 % 1010,5 hPa 0,0 l/m 18,7 km/h (3 Bft) W 274 1 min 0,000 mm 7,2 UV-I 1107 W/m 14,7 C 12,8 C 25,7 km/h (4 Bft) 95,65 %
31.05.2016 12:49 17,1 C 82 % 1010,5 hPa 0,0 l/m 19,0 km/h (3 Bft) W-SW 248 1 min 0,000 mm 7,1 UV-I 1074 W/m 14,0 C 12,7 C 24,1 km/h (4 Bft) 100,00 %
31.05.2016 12:50 17,1 C 81 % 1010,5 hPa 0,0 l/m 18,9 km/h (3 Bft) W 269 1 min 0,000 mm 7,0 UV-I 1035 W/m 13,8 C 12,7 C 24,1 km/h (4 Bft) 95,65 %
31.05.2016 12:51 16,9 C 80 % 1010,5 hPa 0,0 l/m 20,1 km/h (4 Bft) W 260 1 min 0,000 mm 6,5 UV-I 1070 W/m 13,4 C 12,2 C 29,0 km/h (5 Bft) 91,67 %
31.05.2016 12:52 17,0 C 82 % 1010,5 hPa 0,0 l/m 10,7 km/h (2 Bft) SW 235 1 min 0,000 mm 6,7 UV-I 1061 W/m 13,9 C 15,1 C 17,7 km/h (3 Bft) 100,00 %
31.05.2016 12:53 17,1 C 82 % 1010,5 hPa 0,0 l/m 12,5 km/h (3 Bft) W-NW 288 1 min 0,000 mm 6,6 UV-I 1007 W/m 14,0 C 14,5 C 17,7 km/h (3 Bft) 95,83 %
31.05.2016 12:54 17,1 C 84 % 1010,5 hPa 0,0 l/m 11,6 km/h (2 Bft) SW 232 1 min 0,000 mm 6,4 UV-I 1007 W/m 14,4 C 14,8 C 16,1 km/h (3 Bft) 100,00 %
31.05.2016 12:55 17,3 C 82 % 1010,5 hPa 0,0 l/m 10,8 km/h (2 Bft) W-NW 286 1 min 0,000 mm 6,5 UV-I 1007 W/m 14,2 C 15,4 C 19,3 km/h (3 Bft) 92,31 %
31.05.2016 12:56 17,3 C 82 % 1010,5 hPa 0,0 l/m 11,3 km/h (2 Bft) SW 231 1 min 0,000 mm 6,0 UV-I 1007 W/m 14,2 C 15,2 C 14,5 km/h (3 Bft) 100,00 %
31.05.2016 12:57 17,3 C 83 % 1010,5 hPa 0,0 l/m 15,2 km/h (3 Bft) S-SW 192 1 min 0,000 mm 5,7 UV-I 750 W/m 14,4 C 13,9 C 27,4 km/h (4 Bft) 92,86 %
31.05.2016 12:58 17,2 C 81 % 1010,5 hPa 0,0 l/m 16,8 km/h (3 Bft) W-NW 296 1 min 0,000 mm 5,9 UV-I 784 W/m 13,9 C 13,4 C 22,5 km/h (4 Bft) 100,00 %
31.05.2016 12:59 17,3 C 83 % 1010,4 hPa 0,0 l/m 18,5 km/h (3 Bft) SW 236 1 min 0,000 mm 5,8 UV-I 784 W/m 14,4 C 13,1 C 25,7 km/h (4 Bft) 96,15 %
31.05.2016 13:00 17,4 C 84 % 1010,5 hPa 0,0 l/m 10,0 km/h (2 Bft) W-SW 243 1 min 0,381 mm 7,9 UV-I 994 W/m 14,7 C 15,8 C 14,5 km/h (3 Bft) 95,83 %
31.05.2016 13:02 17,6 C 83 % 1010,4 hPa 0,0 l/m 16,1 km/h (3 Bft) SW 217 2 min 0,000 mm 7,7 UV-I 1150 W/m 14,7 C 14,0 C 20,9 km/h (4 Bft) 93,62 %
31.05.2016 13:03 17,7 C 81 % 1010,4 hPa 0,0 l/m 15,7 km/h (3 Bft) W-NW 289 1 min 0,000 mm 7,7 UV-I 1106 W/m 14,4 C 14,3 C 20,9 km/h (4 Bft) 100,00 %
31.05.2016 13:04 17,7 C 82 % 1010,4 hPa 0,0 l/m 16,4 km/h (3 Bft) W-SW 240 1 min 0,000 mm 7,5 UV-I 1110 W/m 14,6 C 14,1 C 25,7 km/h (4 Bft) 95,83 %
31.05.2016 13:05 17,7 C 81 % 1010,4 hPa 0,0 l/m 16,4 km/h (3 Bft) SW 233 1 min 0,000 mm 7,4 UV-I 1147 W/m 14,4 C 14,1 C 24,1 km/h (4 Bft) 86,96 %
31.05.2016 13:06 17,7 C 81 % 1010,4 hPa 0,0 l/m 15,6 km/h (3 Bft) W 262 1 min 0,000 mm 6,4 UV-I 1187 W/m 14,4 C 14,3 C 24,1 km/h (4 Bft) 95,83 %
31.05.2016 13:07 17,6 C 79 % 1010,4 hPa 0,0 l/m 17,8 km/h (3 Bft) W 278 1 min 0,000 mm 3,9 UV-I 715 W/m 13,9 C 13,6 C 24,1 km/h (4 Bft) 100,00 %
31.05.2016 13:08 17,5 C 82 % 1010,4 hPa 0,0 l/m 16,9 km/h (3 Bft) W-SW 253 0 min 0,000 mm 4,6 UV-I 432 W/m 14,4 C 13,7 C 27,4 km/h (4 Bft) 95,83 %
31.05.2016 13:09 17,4 C 80 % 1010,4 hPa 0,0 l/m 16,2 km/h (3 Bft) W-SW 242 0 min 0,000 mm 6,8 UV-I 432 W/m 13,9 C 13,8 C 25,7 km/h (4 Bft) 95,65 %
31.05.2016 13:10 17,4 C 82 % 1010,4 hPa 0,0 l/m 15,4 km/h (3 Bft) SW 235 0 min 0,000 mm 7,4 UV-I 432 W/m 14,3 C 14,0 C 24,1 km/h (4 Bft) 100,00 %
31.05.2016 13:11 17,5 C 83 % 1010,4 hPa 0,0 l/m 11,9 km/h (2 Bft) W 271 0 min 0,000 mm 6,5 UV-I 432 W/m 14,6 C 15,2 C 19,3 km/h (3 Bft) 91,30 %
31.05.2016 13:12 17,7 C 84 % 1010,4 hPa 0,0 l/m 14,1 km/h (3 Bft) SW 222 0 min 0,000 mm 5,9 UV-I 432 W/m 15,0 C 14,7 C 20,9 km/h (4 Bft) 100,00 %
31.05.2016 13:13 17,8 C 81 % 1010,4 hPa 0,0 l/m 14,2 km/h (3 Bft) W 271 0 min 0,000 mm 4,2 UV-I 432 W/m 14,5 C 14,8 C 22,5 km/h (4 Bft) 95,83 %
31.05.2016 13:14 17,8 C 82 % 1010,3 hPa 0,0 l/m 15,6 km/h (3 Bft) W-SW 252 0 min 0,000 mm 5,2 UV-I 432 W/m 14,7 C 14,4 C 20,9 km/h (4 Bft) 100,00 %
31.05.2016 13:15 17,8 C 81 % 1010,4 hPa 0,0 l/m 15,8 km/h (3 Bft) W-SW 248 0 min 0,000 mm 6,0 UV-I 432 W/m 14,5 C 14,4 C 25,7 km/h (4 Bft) 91,67 %
31.05.2016 13:16 17,8 C 82 % 1010,4 hPa 0,0 l/m 15,3 km/h (3 Bft) W-SW 248 0 min 0,000 mm 6,1 UV-I 432 W/m 14,7 C 14,5 C 19,3 km/h (3 Bft) 100,00 %
31.05.2016 13:17 17,7 C 79 % 1010,4 hPa 0,0 l/m 20,4 km/h (4 Bft) W 281 0 min 0,000 mm 4,6 UV-I 437 W/m 14,0 C 13,1 C 30,6 km/h (5 Bft) 100,00 %
31.05.2016 13:18 17,7 C 78 % 1010,4 hPa 0,0 l/m 22,6 km/h (4 Bft) W-SW 248 0 min 0,000 mm 5,3 UV-I 446 W/m 13,8 C 12,7 C 30,6 km/h (5 Bft) 95,65 %
31.05.2016 13:19 17,6 C 80 % 1010,3 hPa 0,0 l/m 17,0 km/h (3 Bft) W-SW 245 1 min 0,000 mm 6,5 UV-I 987 W/m 14,1 C 13,8 C 22,5 km/h (4 Bft) 95,83 %
31.05.2016 13:20 17,6 C 79 % 1010,4 hPa 0,0 l/m 16,8 km/h (3 Bft) W-SW 254 1 min 0,000 mm 5,1 UV-I 1215 W/m 13,9 C 13,9 C 20,9 km/h (4 Bft) 100,00 %
31.05.2016 13:21 17,5 C 80 % 1010,4 hPa 0,0 l/m 16,1 km/h (3 Bft) SW 225 1 min 0,000 mm 4,1 UV-I 1201 W/m 14,0 C 13,9 C 25,7 km/h (4 Bft) 91,67 %
31.05.2016 13:22 17,4 C 79 % 1010,4 hPa 0,0 l/m 14,0 km/h (3 Bft) W-SW 254 1 min 0,000 mm 4,6 UV-I 1201 W/m 13,7 C 14,4 C 20,9 km/h (4 Bft) 95,65 %
31.05.2016 13:23 17,4 C 79 % 1010,4 hPa 0,0 l/m 12,8 km/h (3 Bft) W 267 1 min 0,000 mm 3,9 UV-I 912 W/m 13,7 C 14,8 C 16,1 km/h (3 Bft) 100,00 %
31.05.2016 13:24 17,3 C 81 % 1010,4 hPa 0,0 l/m 7,2 km/h (2 Bft) W-SW 248 0 min 0,000 mm 4,0 UV-I 446 W/m 14,0 C 16,9 C 19,3 km/h (3 Bft) 95,65 %
31.05.2016 13:25 17,4 C 79 % 1010,5 hPa 0,0 l/m 16,2 km/h (3 Bft) W 264 0 min 0,000 mm 5,8 UV-I 464 W/m 13,7 C 13,8 C 22,5 km/h (4 Bft) 100,00 %
31.05.2016 13:26 17,4 C 81 % 1010,3 hPa 0,2 l/m 14,3 km/h (3 Bft) W-NW 282 0 min 0,000 mm 6,6 UV-I 464 W/m 14,1 C 14,3 C 27,4 km/h (4 Bft) 100,00 %
31.05.2016 13:27 17,5 C 81 % 1010,4 hPa 0,0 l/m 7,7 km/h (2 Bft) S 188 0 min 0,000 mm 4,7 UV-I 464 W/m 14,2 C 16,9 C 12,9 km/h (3 Bft) 100,00 %
31.05.2016 13:28 17,6 C 83 % 1010,5 hPa 0,0 l/m 15,3 km/h (3 Bft) W-SW 245 0 min 0,000 mm 4,1 UV-I 464 W/m 14,7 C 14,3 C 22,5 km/h (4 Bft) 95,65 %
31.05.2016 13:29 17,6 C 81 % 1010,5 hPa 0,0 l/m 19,4 km/h (3 Bft) W-SW 247 0 min 0,000 mm 7,2 UV-I 464 W/m 14,3 C 13,2 C 30,6 km/h (5 Bft) 95,83 %
31.05.2016 13:30 17,7 C 80 % 1010,5 hPa 0,0 l/m 18,0 km/h (3 Bft) W-SW 254 1 min 0,000 mm 6,8 UV-I 816 W/m 14,2 C 13,7 C 24,1 km/h (4 Bft) 100,00 %
31.05.2016 13:31 17,7 C 78 % 1010,4 hPa 0,0 l/m 21,4 km/h (4 Bft) W-SW 245 1 min 0,000 mm 6,6 UV-I 1113 W/m 13,8 C 12,9 C 29,0 km/h (5 Bft) 95,65 %
31.05.2016 13:32 17,6 C 78 % 1010,4 hPa 0,0 l/m 17,2 km/h (3 Bft) W 268 1 min 0,000 mm 5,8 UV-I 856 W/m 13,7 C 13,8 C 24,1 km/h (4 Bft) 100,00 %
31.05.2016 13:33 17,6 C 79 % 1010,4 hPa 0,0 l/m 19,7 km/h (3 Bft) SW 233 1 min 0,000 mm 4,1 UV-I 764 W/m 13,9 C 13,2 C 25,7 km/h (4 Bft) 100,00 %
31.05.2016 13:34 17,5 C 80 % 1010,5 hPa 0,0 l/m 12,8 km/h (3 Bft) W-SW 242 0 min 0,000 mm 3,4 UV-I 478 W/m 14,0 C 14,9 C 20,9 km/h (4 Bft) 100,00 %
31.05.2016 13:35 17,4 C 80 % 1010,5 hPa 0,0 l/m 17,7 km/h (3 Bft) SW 231 0 min 0,000 mm 2,7 UV-I 398 W/m 13,9 C 13,4 C 22,5 km/h (4 Bft) 100,00 %
31.05.2016 13:36 17,4 C 82 % 1010,4 hPa 0,0 l/m 16,5 km/h (3 Bft) SW 222 0 min 0,000 mm 3,7 UV-I 287 W/m 14,3 C 13,7 C 22,5 km/h (4 Bft) 100,00 %
31.05.2016 13:37 17,3 C 81 % 1010,5 hPa 0,0 l/m 12,5 km/h (3 Bft) W-SW 239 0 min 0,000 mm 4,6 UV-I 287 W/m 14,0 C 14,8 C 24,1 km/h (4 Bft) 100,00 %
31.05.2016 13:38 17,3 C 79 % 1010,4 hPa 0,0 l/m 16,0 km/h (3 Bft) W 267 0 min 0,000 mm 6,5 UV-I 287 W/m 13,6 C 13,7 C 22,5 km/h (4 Bft) 100,00 %
31.05.2016 13:39 17,4 C 82 % 1010,4 hPa 0,0 l/m 15,4 km/h (3 Bft) W 276 1 min 0,000 mm 7,5 UV-I 1235 W/m 14,3 C 14,0 C 22,5 km/h (4 Bft) 100,00 %
31.05.2016 13:40 17,7 C 82 % 1010,4 hPa 0,0 l/m 14,8 km/h (3 Bft) W-SW 248 1 min 0,000 mm 7,3 UV-I 1254 W/m 14,6 C 14,5 C 24,1 km/h (4 Bft) 100,00 %
31.05.2016 13:41 17,8 C 80 % 1010,5 hPa 0,0 l/m 20,0 km/h (4 Bft) W-SW 242 1 min 0,000 mm 7,5 UV-I 1232 W/m 14,3 C 13,4 C 27,4 km/h (4 Bft) 100,00 %
31.05.2016 13:42 17,8 C 79 % 1010,4 hPa 0,0 l/m 18,4 km/h (3 Bft) W-SW 254 1 min 0,000 mm 6,1 UV-I 1215 W/m 14,1 C 13,7 C 22,5 km/h (4 Bft) 100,00 %
31.05.2016 13:43 17,8 C 79 % 1010,4 hPa 0,0 l/m 17,2 km/h (3 Bft) W-SW 242 1 min 0,000 mm 6,0 UV-I 1215 W/m 14,1 C 14,0 C 25,7 km/h (4 Bft) 95,65 %
31.05.2016 13:44 17,8 C 81 % 1010,4 hPa 0,0 l/m 19,1 km/h (3 Bft) W-SW 251 1 min 0,000 mm 7,4 UV-I 1156 W/m 14,5 C 13,6 C 27,4 km/h (4 Bft) 100,00 %
31.05.2016 13:45 17,9 C 79 % 1010,4 hPa 0,0 l/m 22,7 km/h (4 Bft) W-SW 246 1 min 0,000 mm 6,9 UV-I 1086 W/m 14,2 C 13,0 C 30,6 km/h (5 Bft) 100,00 %
31.05.2016 13:46 17,9 C 79 % 1010,4 hPa 0,0 l/m 18,2 km/h (3 Bft) SW 231 1 min 0,000 mm 6,3 UV-I 1093 W/m 14,2 C 13,9 C 24,1 km/h (4 Bft) 100,00 %
31.05.2016 13:47 17,9 C 79 % 1010,4 hPa 0,0 l/m 17,8 km/h (3 Bft) W-SW 247 1 min 0,000 mm 6,4 UV-I 1093 W/m 14,2 C 14,0 C 24,1 km/h (4 Bft) 100,00 %
31.05.2016 13:48 17,9 C 78 % 1010,4 hPa 0,0 l/m 14,6 km/h (3 Bft) W-SW 247 1 min 0,000 mm 6,3 UV-I 1093 W/m 14,0 C 14,8 C 22,5 km/h (4 Bft) 100,00 %
31.05.2016 13:49 17,9 C 79 % 1010,4 hPa 0,0 l/m 19,0 km/h (3 Bft) W 259 1 min 0,000 mm 5,2 UV-I 1093 W/m 14,2 C 13,7 C 25,7 km/h (4 Bft) 100,00 %
31.05.2016 13:50 17,8 C 77 % 1010,4 hPa 0,0 l/m 21,9 km/h (4 Bft) SW 228 1 min 0,000 mm 5,1 UV-I 1093 W/m 13,7 C 13,0 C 27,4 km/h (4 Bft) 100,00 %
31.05.2016 13:51 17,7 C 77 % 1010,4 hPa 0,0 l/m 18,6 km/h (3 Bft) W-SW 254 1 min 0,000 mm 4,1 UV-I 1093 W/m 13,6 C 13,5 C 25,7 km/h (4 Bft) 100,00 %
31.05.2016 13:52 17,7 C 77 % 1010,4 hPa 0,0 l/m 20,3 km/h (4 Bft) W-SW 255 1 min 0,000 mm 5,3 UV-I 1093 W/m 13,6 C 13,2 C 30,6 km/h (5 Bft) 95,83 %
31.05.2016 13:53 17,6 C 79 % 1010,4 hPa 0,0 l/m 18,9 km/h (3 Bft) W-SW 246 1 min 0,000 mm 6,1 UV-I 1093 W/m 13,9 C 13,4 C 24,1 km/h (4 Bft) 100,00 %
31.05.2016 13:54 17,6 C 80 % 1010,4 hPa 0,0 l/m 15,5 km/h (3 Bft) W-SW 252 1 min 0,000 mm 5,3 UV-I 1093 W/m 14,1 C 14,2 C 24,1 km/h (4 Bft) 95,65 %
31.05.2016 13:55 17,6 C 79 % 1010,4 hPa 0,0 l/m 16,8 km/h (3 Bft) SW 224 1 min 0,000 mm 4,2 UV-I 1093 W/m 13,9 C 13,9 C 24,1 km/h (4 Bft) 100,00 %
31.05.2016 13:56 17,6 C 83 % 1010,5 hPa 0,0 l/m 14,2 km/h (3 Bft) S-SW 212 1 min 0,000 mm 5,7 UV-I 1093 W/m 14,7 C 14,6 C 19,3 km/h (3 Bft) 95,65 %
31.05.2016 13:57 17,6 C 81 % 1010,4 hPa 0,0 l/m 14,9 km/h (3 Bft) W-SW 239 1 min 0,000 mm 6,3 UV-I 932 W/m 14,3 C 14,4 C 20,9 km/h (4 Bft) 100,00 %
31.05.2016 13:58 17,6 C 80 % 1010,4 hPa 0,0 l/m 12,9 km/h (3 Bft) W 269 0 min 0,000 mm 4,0 UV-I 448 W/m 14,1 C 15,0 C 19,3 km/h (3 Bft) 100,00 %
31.05.2016 13:59 17,6 C 81 % 1010,4 hPa 0,0 l/m 13,3 km/h (3 Bft) W 262 1 min 0,000 mm 4,3 UV-I 482 W/m 14,3 C 14,8 C 19,3 km/h (3 Bft) 100,00 %
31.05.2016 14:00 17,6 C 80 % 1010,4 hPa 0,0 l/m 8,8 km/h (2 Bft) W 260 1 min 0,000 mm 4,1 UV-I 501 W/m 14,1 C 16,5 C 19,3 km/h (3 Bft) 95,65 %
31.05.2016 14:02 17,7 C 82 % 1010,4 hPa 0,0 l/m 12,6 km/h (3 Bft) W-SW 240 2 min 0,482 mm 4,7 UV-I 518 W/m 14,6 C 15,2 C 25,7 km/h (4 Bft) 97,96 %
31.05.2016 14:03 17,8 C 82 % 1010,4 hPa 0,0 l/m 16,7 km/h (3 Bft) W-SW 242 1 min 0,000 mm 4,9 UV-I 543 W/m 14,7 C 14,1 C 19,3 km/h (3 Bft) 100,00 %
31.05.2016 14:04 17,8 C 80 % 1010,5 hPa 0,0 l/m 14,4 km/h (3 Bft) W 260 1 min 0,000 mm 4,2 UV-I 546 W/m 14,3 C 14,8 C 22,5 km/h (4 Bft) 91,30 %
31.05.2016 14:05 17,7 C 80 % 1010,5 hPa 0,0 l/m 15,1 km/h (3 Bft) SW 231 1 min 0,000 mm 4,6 UV-I 592 W/m 14,2 C 14,4 C 33,8 km/h (5 Bft) 100,00 %
31.05.2016 14:06 17,7 C 78 % 1010,4 hPa 0,0 l/m 21,4 km/h (4 Bft) SW 221 1 min 0,000 mm 5,2 UV-I 628 W/m 13,8 C 12,9 C 30,6 km/h (5 Bft) 95,65 %
31.05.2016 14:07 17,6 C 78 % 1010,5 hPa 0,0 l/m 21,2 km/h (4 Bft) W-SW 257 1 min 0,000 mm 4,5 UV-I 628 W/m 13,7 C 12,9 C 29,0 km/h (5 Bft) 100,00 %
31.05.2016 14:08 17,5 C 77 % 1010,5 hPa 0,0 l/m 21,3 km/h (4 Bft) SW 216 0 min 0,000 mm 3,2 UV-I 415 W/m 13,4 C 12,7 C 30,6 km/h (5 Bft) 100,00 %
31.05.2016 14:09 17,4 C 79 % 1010,4 hPa 0,0 l/m 20,3 km/h (4 Bft) SW 226 0 min 0,000 mm 3,3 UV-I 416 W/m 13,7 C 12,8 C 25,7 km/h (4 Bft) 100,00 %
31.05.2016 14:10 17,3 C 78 % 1010,4 hPa 0,0 l/m 20,5 km/h (4 Bft) W-SW 257 0 min 0,000 mm 3,3 UV-I 410 W/m 13,4 C 12,6 C 25,7 km/h (4 Bft) 100,00 %
31.05.2016 14:11 17,2 C 78 % 1010,5 hPa 0,0 l/m 22,0 km/h (4 Bft) W-SW 248 0 min 0,000 mm 3,3 UV-I 408 W/m 13,3 C 12,2 C 30,6 km/h (5 Bft) 95,65 %
31.05.2016 14:12 17,1 C 79 % 1010,4 hPa 0,0 l/m 13,7 km/h (3 Bft) SW 235 0 min 0,000 mm 3,2 UV-I 416 W/m 13,4 C 14,1 C 22,5 km/h (4 Bft) 100,00 %
31.05.2016 14:13 17,1 C 80 % 1010,5 hPa 0,0 l/m 19,6 km/h (3 Bft) W-SW 251 0 min 0,000 mm 3,3 UV-I 444 W/m 13,6 C 12,6 C 27,4 km/h (4 Bft) 100,00 %
31.05.2016 14:14 17,0 C 79 % 1010,5 hPa 0,0 l/m 19,7 km/h (3 Bft) W 260 1 min 0,000 mm 3,6 UV-I 478 W/m 13,3 C 12,4 C 27,4 km/h (4 Bft) 100,00 %
31.05.2016 14:15 17,1 C 82 % 1010,5 hPa 0,0 l/m 15,6 km/h (3 Bft) W 264 1 min 0,000 mm 5,1 UV-I 478 W/m 14,0 C 13,6 C 22,5 km/h (4 Bft) 100,00 %
31.05.2016 14:16 17,2 C 81 % 1010,5 hPa 0,0 l/m 19,2 km/h (3 Bft) W 263 1 min 0,000 mm 3,7 UV-I 478 W/m 13,9 C 12,8 C 27,4 km/h (4 Bft) 100,00 %
31.05.2016 14:17 17,2 C 79 % 1010,5 hPa 0,0 l/m 22,6 km/h (4 Bft) W-SW 240 0 min 0,000 mm 3,3 UV-I 459 W/m 13,5 C 12,0 C 29,0 km/h (5 Bft) 95,65 %
31.05.2016 14:18 17,2 C 79 % 1010,5 hPa 0,0 l/m 15,5 km/h (3 Bft) S 175 0 min 0,000 mm 3,1 UV-I 432 W/m 13,5 C 13,7 C 24,1 km/h (4 Bft) 100,00 %
31.05.2016 14:19 17,1 C 80 % 1010,5 hPa 0,0 l/m 17,4 km/h (3 Bft) SW 229 0 min 0,000 mm 3,0 UV-I 409 W/m 13,6 C 13,1 C 27,4 km/h (4 Bft) 100,00 %
31.05.2016 14:20 17,0 C 79 % 1010,5 hPa 0,0 l/m 19,1 km/h (3 Bft) W-NW 300 0 min 0,000 mm 2,9 UV-I 396 W/m 13,3 C 12,5 C 24,1 km/h (4 Bft) 100,00 %
31.05.2016 14:21 16,9 C 79 % 1010,5 hPa 0,0 l/m 20,1 km/h (4 Bft) SW 223 0 min 0,000 mm 2,9 UV-I 388 W/m 13,2 C 12,2 C 27,4 km/h (4 Bft) 100,00 %
31.05.2016 14:22 16,8 C 79 % 1010,5 hPa 0,0 l/m 17,4 km/h (3 Bft) W-SW 240 0 min 0,000 mm 2,8 UV-I 378 W/m 13,1 C 12,7 C 22,5 km/h (4 Bft) 100,00 %
31.05.2016 14:23 16,8 C 80 % 1010,5 hPa 0,0 l/m 18,5 km/h (3 Bft) W-SW 255 0 min 0,000 mm 2,7 UV-I 374 W/m 13,3 C 12,4 C 30,6 km/h (5 Bft) 90,91 %
31.05.2016 14:24 16,8 C 80 % 1010,5 hPa 0,0 l/m 15,9 km/h (3 Bft) W 266 0 min 0,000 mm 2,7 UV-I 364 W/m 13,3 C 13,1 C 20,9 km/h (4 Bft) 100,00 %
31.05.2016 14:25 16,8 C 81 % 1010,5 hPa 0,0 l/m 15,0 km/h (3 Bft) SW 221 0 min 0,000 mm 2,6 UV-I 356 W/m 13,5 C 13,4 C 22,5 km/h (4 Bft) 100,00 %
31.05.2016 14:26 16,7 C 80 % 1010,6 hPa 0,0 l/m 18,2 km/h (3 Bft) SW 229 0 min 0,000 mm 2,6 UV-I 346 W/m 13,2 C 12,4 C 29,0 km/h (5 Bft) 100,00 %
31.05.2016 14:27 16,7 C 79 % 1010,6 hPa 0,0 l/m 19,6 km/h (3 Bft) W-SW 243 0 min 0,000 mm 2,5 UV-I 333 W/m 13,0 C 12,0 C 25,7 km/h (4 Bft) 100,00 %
31.05.2016 14:28 16,7 C 80 % 1010,6 hPa 0,0 l/m 16,6 km/h (3 Bft) W-SW 237 0 min 0,000 mm 2,4 UV-I 324 W/m 13,2 C 12,8 C 25,7 km/h (4 Bft) 95,83 %
31.05.2016 14:29 16,6 C 79 % 1010,5 hPa 0,0 l/m 20,6 km/h (4 Bft) W-SW 237 0 min 0,000 mm 2,4 UV-I 320 W/m 12,9 C 11,7 C 25,7 km/h (4 Bft) 100,00 %
31.05.2016 14:30 16,6 C 79 % 1010,5 hPa 0,0 l/m 18,7 km/h (3 Bft) W-SW 238 0 min 0,000 mm 2,3 UV-I 314 W/m 12,9 C 12,1 C 22,5 km/h (4 Bft) 100,00 %
31.05.2016 14:31 16,6 C 79 % 1010,5 hPa 0,0 l/m 20,9 km/h (4 Bft) W-SW 239 0 min 0,000 mm 2,3 UV-I 308 W/m 12,9 C 11,6 C 27,4 km/h (4 Bft) 100,00 %
31.05.2016 14:32 16,5 C 79 % 1010,6 hPa 0,0 l/m 15,9 km/h (3 Bft) SW 226 0 min 0,000 mm 2,3 UV-I 303 W/m 12,8 C 12,7 C 19,3 km/h (3 Bft) 100,00 %
31.05.2016 14:33 16,5 C 81 % 1010,5 hPa 0,0 l/m 15,3 km/h (3 Bft) W-SW 244 0 min 0,000 mm 2,2 UV-I 299 W/m 13,2 C 12,9 C 22,5 km/h (4 Bft) 100,00 %
31.05.2016 14:34 16,5 C 80 % 1010,6 hPa 0,0 l/m 18,2 km/h (3 Bft) SW 225 0 min 0,000 mm 2,2 UV-I 293 W/m 13,0 C 12,1 C 25,7 km/h (4 Bft) 95,65 %
31.05.2016 14:35 16,5 C 82 % 1010,5 hPa 0,0 l/m 17,8 km/h (3 Bft) W-SW 252 0 min 0,000 mm 2,1 UV-I 286 W/m 13,4 C 12,2 C 22,5 km/h (4 Bft) 95,83 %
31.05.2016 14:36 16,5 C 80 % 1010,5 hPa 0,0 l/m 15,8 km/h (3 Bft) W-SW 248 0 min 0,000 mm 2,0 UV-I 278 W/m 13,0 C 12,8 C 24,1 km/h (4 Bft) 100,00 %
31.05.2016 14:37 16,5 C 81 % 1010,5 hPa 0,0 l/m 15,5 km/h (3 Bft) S-SW 213 0 min 0,000 mm 1,9 UV-I 269 W/m 13,2 C 12,9 C 20,9 km/h (4 Bft) 95,83 %
31.05.2016 14:38 16,5 C 79 % 1010,5 hPa 0,0 l/m 14,8 km/h (3 Bft) W 259 0 min 0,000 mm 1,8 UV-I 261 W/m 12,8 C 13,1 C 20,9 km/h (4 Bft) 100,00 %
31.05.2016 14:39 16,4 C 80 % 1010,5 hPa 0,0 l/m 20,3 km/h (4 Bft) SW 216 0 min 0,000 mm 1,8 UV-I 255 W/m 12,9 C 11,5 C 30,6 km/h (5 Bft) 95,83 %
31.05.2016 14:40 16,4 C 79 % 1010,6 hPa 0,0 l/m 11,3 km/h (2 Bft) W-SW 252 0 min 0,000 mm 1,8 UV-I 250 W/m 12,7 C 14,1 C 14,5 km/h (3 Bft) 100,00 %
31.05.2016 14:41 16,4 C 80 % 1010,6 hPa 0,0 l/m 16,2 km/h (3 Bft) SW 214 0 min 0,000 mm 1,7 UV-I 245 W/m 12,9 C 12,5 C 24,1 km/h (4 Bft) 95,83 %
31.05.2016 14:42 16,4 C 80 % 1010,6 hPa 0,0 l/m 18,4 km/h (3 Bft) W-SW 245 0 min 0,000 mm 1,7 UV-I 242 W/m 12,9 C 11,9 C 25,7 km/h (4 Bft) 100,00 %
31.05.2016 14:43 16,3 C 80 % 1010,5 hPa 0,0 l/m 12,3 km/h (3 Bft) S-SO 153 0 min 0,000 mm 1,6 UV-I 237 W/m 12,8 C 13,7 C 17,7 km/h (3 Bft) 95,83 %
31.05.2016 14:44 16,3 C 79 % 1010,5 hPa 0,0 l/m 17,2 km/h (3 Bft) SW 219 0 min 0,000 mm 1,6 UV-I 231 W/m 12,6 C 12,1 C 22,5 km/h (4 Bft) 91,30 %
31.05.2016 14:45 16,3 C 79 % 1010,6 hPa 0,0 l/m 13,3 km/h (3 Bft) W 267 0 min 0,000 mm 1,6 UV-I 228 W/m 12,6 C 13,3 C 16,1 km/h (3 Bft) 100,00 %
31.05.2016 14:46 16,3 C 80 % 1010,6 hPa 0,0 l/m 17,0 km/h (3 Bft) W-SW 248 0 min 0,000 mm 1,5 UV-I 227 W/m 12,8 C 12,2 C 20,9 km/h (4 Bft) 95,65 %
31.05.2016 14:47 16,3 C 81 % 1010,6 hPa 0,0 l/m 13,4 km/h (3 Bft) SW 223 0 min 0,000 mm 1,5 UV-I 228 W/m 13,0 C 13,3 C 19,3 km/h (3 Bft) 100,00 %
31.05.2016 14:48 16,2 C 80 % 1010,6 hPa 0,0 l/m 16,9 km/h (3 Bft) S-SW 204 0 min 0,000 mm 1,6 UV-I 230 W/m 12,7 C 12,1 C 25,7 km/h (4 Bft) 95,65 %
31.05.2016 14:49 16,2 C 80 % 1010,6 hPa 0,0 l/m 16,9 km/h (3 Bft) W-SW 242 0 min 0,000 mm 1,6 UV-I 230 W/m 12,7 C 12,1 C 20,9 km/h (4 Bft) 100,00 %
31.05.2016 14:50 16,2 C 80 % 1010,7 hPa 0,0 l/m 14,2 km/h (3 Bft) W-SW 238 0 min 0,000 mm 1,6 UV-I 235 W/m 12,7 C 12,9 C 24,1 km/h (4 Bft) 95,65 %
31.05.2016 14:51 16,2 C 80 % 1010,6 hPa 0,0 l/m 12,0 km/h (2 Bft) SW 219 0 min 0,000 mm 1,6 UV-I 239 W/m 12,7 C 13,7 C 17,7 km/h (3 Bft) 95,83 %
31.05.2016 14:52 16,2 C 80 % 1010,6 hPa 0,0 l/m 18,5 km/h (3 Bft) SW 235 0 min 0,000 mm 1,6 UV-I 242 W/m 12,7 C 11,7 C 24,1 km/h (4 Bft) 100,00 %
31.05.2016 14:53 16,2 C 80 % 1010,6 hPa 0,0 l/m 13,3 km/h (3 Bft) SW 234 0 min 0,000 mm 1,6 UV-I 243 W/m 12,7 C 13,2 C 22,5 km/h (4 Bft) 97,14 %
31.05.2016 14:54 16,2 C 79 % 1010,6 hPa 0,0 l/m 20,4 km/h (4 Bft) W-SW 240 0 min 0,000 mm 1,6 UV-I 243 W/m 12,6 C 11,2 C 30,6 km/h (5 Bft) 100,00 %
31.05.2016 14:55 16,2 C 80 % 1010,7 hPa 0,0 l/m 16,8 km/h (3 Bft) S-SW 203 0 min 0,000 mm 1,6 UV-I 239 W/m 12,7 C 12,1 C 20,9 km/h (4 Bft) 95,65 %
31.05.2016 14:56 16,2 C 78 % 1010,7 hPa 0,0 l/m 15,4 km/h (3 Bft) W-SW 258 0 min 0,000 mm 1,6 UV-I 237 W/m 12,4 C 12,5 C 22,5 km/h (4 Bft) 100,00 %
31.05.2016 14:57 16,2 C 80 % 1010,7 hPa 0,0 l/m 15,6 km/h (3 Bft) W-SW 238 0 min 0,000 mm 1,6 UV-I 234 W/m 12,7 C 12,5 C 24,1 km/h (4 Bft) 95,65 %
31.05.2016 14:58 16,2 C 79 % 1010,7 hPa 0,0 l/m 18,7 km/h (3 Bft) W-SW 250 0 min 0,000 mm 1,6 UV-I 232 W/m 12,6 C 11,6 C 25,7 km/h (4 Bft) 100,00 %
31.05.2016 14:59 16,2 C 80 % 1010,7 hPa 0,0 l/m 17,1 km/h (3 Bft) W-SW 248 0 min 0,000 mm 1,6 UV-I 232 W/m 12,7 C 12,0 C 25,7 km/h (4 Bft) 95,65 %
31.05.2016 15:00 16,2 C 80 % 1010,7 hPa 0,0 l/m 12,5 km/h (3 Bft) W-SW 240 0 min 0,000 mm 1,6 UV-I 230 W/m 12,7 C 13,5 C 17,7 km/h (3 Bft) 92,59 %
31.05.2016 15:02 16,2 C 80 % 1010,7 hPa 0,0 l/m 17,3 km/h (3 Bft) W 279 0 min 0,229 mm 1,6 UV-I 230 W/m 12,7 C 12,0 C 25,7 km/h (4 Bft) 100,00 %
31.05.2016 15:03 16,2 C 80 % 1010,6 hPa 0,0 l/m 13,2 km/h (3 Bft) SW 220 0 min 0,000 mm 1,6 UV-I 230 W/m 12,7 C 13,2 C 22,5 km/h (4 Bft) 86,96 %
31.05.2016 15:04 16,2 C 81 % 1010,7 hPa 0,0 l/m 11,7 km/h (2 Bft) SW 218 0 min 0,000 mm 1,6 UV-I 230 W/m 12,9 C 13,8 C 16,1 km/h (3 Bft) 95,83 %
31.05.2016 15:05 16,3 C 80 % 1010,7 hPa 0,0 l/m 12,5 km/h (3 Bft) W-NW 284 0 min 0,000 mm 1,6 UV-I 235 W/m 12,8 C 13,6 C 17,7 km/h (3 Bft) 100,00 %
31.05.2016 15:06 16,3 C 80 % 1010,8 hPa 0,0 l/m 13,3 km/h (3 Bft) W-SW 242 0 min 0,000 mm 1,6 UV-I 241 W/m 12,8 C 13,3 C 24,1 km/h (4 Bft) 95,83 %
31.05.2016 15:07 16,3 C 81 % 1010,6 hPa 0,0 l/m 16,5 km/h (3 Bft) SW 227 0 min 0,000 mm 1,7 UV-I 248 W/m 13,0 C 12,3 C 24,1 km/h (4 Bft) 100,00 %
31.05.2016 15:08 16,3 C 81 % 1010,6 hPa 0,0 l/m 11,6 km/h (2 Bft) SW 227 0 min 0,000 mm 1,7 UV-I 258 W/m 13,0 C 13,9 C 17,7 km/h (3 Bft) 100,00 %
31.05.2016 15:09 16,3 C 79 % 1010,6 hPa 0,0 l/m 15,7 km/h (3 Bft) S-SW 200 0 min 0,000 mm 1,8 UV-I 269 W/m 12,6 C 12,6 C 20,9 km/h (4 Bft) 100,00 %
31.05.2016 15:10 16,3 C 80 % 1010,7 hPa 0,0 l/m 10,7 km/h (2 Bft) SW 221 0 min 0,000 mm 1,8 UV-I 283 W/m 12,8 C 14,3 C 12,9 km/h (3 Bft) 96,15 %
31.05.2016 15:11 16,4 C 81 % 1010,6 hPa 0,0 l/m 12,9 km/h (3 Bft) SW 225 0 min 0,000 mm 2,0 UV-I 295 W/m 13,1 C 13,6 C 17,7 km/h (3 Bft) 100,00 %
31.05.2016 15:12 16,4 C 81 % 1010,6 hPa 0,0 l/m 11,3 km/h (2 Bft) S-SW 196 0 min 0,000 mm 2,0 UV-I 303 W/m 13,1 C 14,1 C 14,5 km/h (3 Bft) 100,00 %
31.05.2016 15:13 16,4 C 80 % 1010,7 hPa 0,0 l/m 8,4 km/h (2 Bft) W-SW 258 0 min 0,000 mm 2,0 UV-I 312 W/m 12,9 C 15,4 C 14,5 km/h (3 Bft) 100,00 %
31.05.2016 15:14 16,5 C 81 % 1010,7 hPa 0,0 l/m 15,1 km/h (3 Bft) SW 224 0 min 0,000 mm 2,0 UV-I 320 W/m 13,2 C 13,0 C 24,1 km/h (4 Bft) 95,65 %
31.05.2016 15:15 16,6 C 80 % 1010,6 hPa 0,0 l/m 13,4 km/h (3 Bft) SW 235 0 min 0,000 mm 2,1 UV-I 330 W/m 13,1 C 13,6 C 19,3 km/h (3 Bft) 100,00 %
31.05.2016 15:16 16,6 C 80 % 1010,7 hPa 0,0 l/m 7,7 km/h (2 Bft) SW 229 0 min 0,000 mm 2,2 UV-I 341 W/m 13,1 C 15,9 C 12,9 km/h (3 Bft) 91,30 %
31.05.2016 15:17 16,6 C 78 % 1010,7 hPa 0,0 l/m 11,4 km/h (2 Bft) W-SW 238 0 min 0,000 mm 2,2 UV-I 350 W/m 12,7 C 14,3 C 16,1 km/h (3 Bft) 100,00 %
31.05.2016 15:18 16,7 C 79 % 1010,7 hPa 0,0 l/m 16,2 km/h (3 Bft) W-SW 238 0 min 0,000 mm 2,3 UV-I 360 W/m 13,0 C 12,9 C 20,9 km/h (4 Bft) 100,00 %
31.05.2016 15:19 16,7 C 78 % 1010,6 hPa 0,0 l/m 18,9 km/h (3 Bft) W-SW 244 0 min 0,000 mm 2,3 UV-I 373 W/m 12,8 C 12,2 C 24,1 km/h (4 Bft) 95,83 %
31.05.2016 15:20 16,7 C 77 % 1010,6 hPa 0,0 l/m 18,0 km/h (3 Bft) SW 236 0 min 0,000 mm 2,4 UV-I 384 W/m 12,6 C 12,4 C 27,4 km/h (4 Bft) 100,00 %
31.05.2016 15:21 16,7 C 78 % 1010,6 hPa 0,0 l/m 10,7 km/h (2 Bft) SW 223 0 min 0,000 mm 2,5 UV-I 404 W/m 12,8 C 14,7 C 19,3 km/h (3 Bft) 100,00 %
31.05.2016 15:22 16,8 C 78 % 1010,6 hPa 0,0 l/m 19,6 km/h (3 Bft) SW 234 1 min 0,000 mm 2,6 UV-I 428 W/m 12,9 C 12,2 C 30,6 km/h (5 Bft) 95,65 %
31.05.2016 15:23 16,8 C 77 % 1010,6 hPa 0,0 l/m 20,7 km/h (4 Bft) SW 233 1 min 0,000 mm 2,7 UV-I 436 W/m 12,7 C 11,9 C 30,6 km/h (5 Bft) 100,00 %
31.05.2016 15:24 16,8 C 78 % 1010,6 hPa 0,0 l/m 17,9 km/h (3 Bft) W 262 1 min 0,000 mm 2,9 UV-I 446 W/m 12,9 C 12,6 C 24,1 km/h (4 Bft) 95,65 %
31.05.2016 15:25 16,8 C 78 % 1010,6 hPa 0,0 l/m 19,9 km/h (4 Bft) S-SW 209 1 min 0,000 mm 2,6 UV-I 439 W/m 12,9 C 12,1 C 27,4 km/h (4 Bft) 100,00 %
31.05.2016 15:26 16,9 C 78 % 1010,6 hPa 0,0 l/m 20,2 km/h (4 Bft) W-SW 249 0 min 0,000 mm 2,4 UV-I 390 W/m 13,0 C 12,2 C 27,4 km/h (4 Bft) 95,65 %
31.05.2016 15:27 16,9 C 77 % 1010,6 hPa 0,0 l/m 17,0 km/h (3 Bft) SW 222 0 min 0,000 mm 2,4 UV-I 386 W/m 12,8 C 12,9 C 27,4 km/h (4 Bft) 100,00 %
31.05.2016 15:28 16,9 C 76 % 1010,6 hPa 0,0 l/m 21,8 km/h (4 Bft) SW 236 0 min 0,000 mm 2,4 UV-I 391 W/m 12,6 C 11,8 C 32,2 km/h (5 Bft) 100,00 %
31.05.2016 15:29 16,9 C 76 % 1010,6 hPa 0,0 l/m 20,9 km/h (4 Bft) SW 216 0 min 0,000 mm 2,5 UV-I 404 W/m 12,6 C 12,0 C 27,4 km/h (4 Bft) 95,83 %
31.05.2016 15:30 16,9 C 76 % 1010,7 hPa 0,0 l/m 16,6 km/h (3 Bft) SW 235 1 min 0,000 mm 2,5 UV-I 422 W/m 12,6 C 13,0 C 24,1 km/h (4 Bft) 100,00 %
31.05.2016 15:31 16,8 C 76 % 1010,6 hPa 0,0 l/m 18,4 km/h (3 Bft) SW 229 1 min 0,000 mm 2,6 UV-I 431 W/m 12,5 C 12,5 C 25,7 km/h (4 Bft) 95,65 %
31.05.2016 15:32 16,8 C 76 % 1010,7 hPa 0,0 l/m 16,4 km/h (3 Bft) W-SW 238 1 min 0,000 mm 2,6 UV-I 445 W/m 12,5 C 13,0 C 22,5 km/h (4 Bft) 100,00 %
31.05.2016 15:33 16,9 C 76 % 1010,6 hPa 0,0 l/m 18,3 km/h (3 Bft) SW 232 1 min 0,000 mm 2,7 UV-I 464 W/m 12,6 C 12,6 C 29,0 km/h (5 Bft) 100,00 %
31.05.2016 15:34 16,9 C 76 % 1010,6 hPa 0,0 l/m 18,0 km/h (3 Bft) SW 219 1 min 0,000 mm 2,6 UV-I 433 W/m 12,6 C 12,7 C 22,5 km/h (4 Bft) 100,00 %
31.05.2016 15:35 16,9 C 77 % 1010,6 hPa 0,0 l/m 16,4 km/h (3 Bft) W-SW 238 0 min 0,000 mm 2,4 UV-I 399 W/m 12,8 C 13,1 C 25,7 km/h (4 Bft) 91,30 %
31.05.2016 15:36 17,0 C 78 % 1010,6 hPa 0,0 l/m 11,7 km/h (2 Bft) W-SW 237 0 min 0,000 mm 2,5 UV-I 390 W/m 13,1 C 14,7 C 16,1 km/h (3 Bft) 100,00 %
31.05.2016 15:37 17,1 C 78 % 1010,7 hPa 0,0 l/m 16,0 km/h (3 Bft) SW 234 0 min 0,000 mm 2,6 UV-I 403 W/m 13,2 C 13,5 C 22,5 km/h (4 Bft) 100,00 %
31.05.2016 15:38 17,1 C 77 % 1010,6 hPa 0,0 l/m 21,4 km/h (4 Bft) SW 223 0 min 0,000 mm 2,6 UV-I 395 W/m 13,0 C 12,2 C 30,6 km/h (5 Bft) 100,00 %
31.05.2016 15:39 17,1 C 76 % 1010,7 hPa 0,0 l/m 16,0 km/h (3 Bft) SW 234 0 min 0,000 mm 2,5 UV-I 382 W/m 12,8 C 13,5 C 29,0 km/h (5 Bft) 100,00 %
31.05.2016 15:40 17,1 C 75 % 1010,7 hPa 0,0 l/m 18,5 km/h (3 Bft) W 265 0 min 0,000 mm 2,4 UV-I 361 W/m 12,6 C 12,8 C 24,1 km/h (4 Bft) 100,00 %
31.05.2016 15:41 17,0 C 74 % 1010,7 hPa 0,0 l/m 16,8 km/h (3 Bft) S-SW 196 0 min 0,000 mm 2,4 UV-I 365 W/m 12,3 C 13,1 C 27,4 km/h (4 Bft) 100,00 %
31.05.2016 15:42 17,0 C 74 % 1010,7 hPa 0,0 l/m 20,4 km/h (4 Bft) S 177 0 min 0,000 mm 2,4 UV-I 367 W/m 12,3 C 12,2 C 27,4 km/h (4 Bft) 100,00 %
31.05.2016 15:43 16,9 C 74 % 1010,7 hPa 0,0 l/m 20,2 km/h (4 Bft) W-SW 255 0 min 0,000 mm 2,5 UV-I 372 W/m 12,2 C 12,2 C 30,6 km/h (5 Bft) 100,00 %
31.05.2016 15:44 16,9 C 75 % 1010,6 hPa 0,0 l/m 20,6 km/h (4 Bft) W-SW 240 0 min 0,000 mm 2,5 UV-I 378 W/m 12,4 C 12,1 C 27,4 km/h (4 Bft) 100,00 %
31.05.2016 15:45 16,8 C 75 % 1010,7 hPa 0,0 l/m 18,9 km/h (3 Bft) W-SW 250 0 min 0,000 mm 2,5 UV-I 386 W/m 12,3 C 12,3 C 27,4 km/h (4 Bft) 100,00 %
31.05.2016 15:46 16,8 C 76 % 1010,7 hPa 0,0 l/m 16,2 km/h (3 Bft) W 267 0 min 0,000 mm 2,5 UV-I 379 W/m 12,5 C 13,0 C 30,6 km/h (5 Bft) 100,00 %
31.05.2016 15:47 16,8 C 76 % 1010,7 hPa 0,0 l/m 22,7 km/h (4 Bft) W-SW 250 0 min 0,000 mm 2,5 UV-I 370 W/m 12,5 C 11,5 C 32,2 km/h (5 Bft) 100,00 %
31.05.2016 15:48 16,9 C 75 % 1010,6 hPa 0,0 l/m 18,0 km/h (3 Bft) W 274 0 min 0,000 mm 2,5 UV-I 365 W/m 12,4 C 12,7 C 22,5 km/h (4 Bft) 95,83 %
31.05.2016 15:49 16,8 C 75 % 1010,6 hPa 0,0 l/m 18,6 km/h (3 Bft) W-SW 257 0 min 0,000 mm 2,5 UV-I 371 W/m 12,3 C 12,4 C 22,5 km/h (4 Bft) 100,00 %
31.05.2016 15:50 16,9 C 76 % 1010,7 hPa 0,0 l/m 18,8 km/h (3 Bft) W-SW 252 0 min 0,000 mm 2,7 UV-I 371 W/m 12,6 C 12,5 C 27,4 km/h (4 Bft) 100,00 %
31.05.2016 15:51 16,9 C 76 % 1010,7 hPa 0,0 l/m 13,4 km/h (3 Bft) W-SW 244 0 min 0,000 mm 2,4 UV-I 362 W/m 12,6 C 14,0 C 19,3 km/h (3 Bft) 100,00 %
31.05.2016 15:52 16,9 C 77 % 1010,7 hPa 0,0 l/m 14,8 km/h (3 Bft) W-SW 250 0 min 0,000 mm 2,3 UV-I 352 W/m 12,8 C 13,6 C 19,3 km/h (3 Bft) 95,65 %
31.05.2016 15:53 16,9 C 76 % 1010,7 hPa 0,0 l/m 19,1 km/h (3 Bft) SW 232 0 min 0,000 mm 2,3 UV-I 340 W/m 12,6 C 12,4 C 27,4 km/h (4 Bft) 100,00 %
31.05.2016 15:54 16,9 C 76 % 1010,7 hPa 0,0 l/m 20,3 km/h (4 Bft) SW 234 0 min 0,000 mm 2,3 UV-I 327 W/m 12,6 C 12,1 C 27,4 km/h (4 Bft) 100,00 %
31.05.2016 15:55 16,9 C 77 % 1010,7 hPa 0,0 l/m 16,7 km/h (3 Bft) SW 227 0 min 0,000 mm 2,2 UV-I 315 W/m 12,8 C 13,0 C 22,5 km/h (4 Bft) 100,00 %
31.05.2016 15:56 16,9 C 76 % 1010,7 hPa 0,0 l/m 19,9 km/h (4 Bft) SW 232 0 min 0,000 mm 2,2 UV-I 306 W/m 12,6 C 12,2 C 25,7 km/h (4 Bft) 95,65 %
31.05.2016 15:57 16,8 C 76 % 1010,7 hPa 0,0 l/m 16,7 km/h (3 Bft) W-SW 252 0 min 0,000 mm 2,1 UV-I 324 W/m 12,5 C 12,9 C 20,9 km/h (4 Bft) 100,00 %
31.05.2016 15:58 16,8 C 77 % 1010,7 hPa 0,0 l/m 19,6 km/h (3 Bft) W 278 0 min 0,000 mm 2,2 UV-I 349 W/m 12,7 C 12,2 C 27,4 km/h (4 Bft) 100,00 %
31.05.2016 15:59 16,8 C 77 % 1010,7 hPa 0,0 l/m 11,5 km/h (2 Bft) W-SW 240 0 min 0,000 mm 2,3 UV-I 380 W/m 12,7 C 14,5 C 16,1 km/h (3 Bft) 91,67 %
31.05.2016 16:00 16,8 C 78 % 1010,7 hPa 0,0 l/m 11,3 km/h (2 Bft) SW 215 0 min 0,228 mm 2,3 UV-I 355 W/m 12,9 C 14,6 C 17,7 km/h (3 Bft) 100,00 %
31.05.2016 16:02 16,9 C 78 % 1010,6 hPa 0,0 l/m 15,8 km/h (3 Bft) W-SW 258 0 min 0,000 mm 2,2 UV-I 346 W/m 13,0 C 13,3 C 24,1 km/h (4 Bft) 100,00 %
31.05.2016 16:03 16,9 C 77 % 1010,7 hPa 0,0 l/m 21,8 km/h (4 Bft) W-SW 237 0 min 0,000 mm 2,0 UV-I 312 W/m 12,8 C 11,8 C 27,4 km/h (4 Bft) 100,00 %
31.05.2016 16:04 16,8 C 77 % 1010,7 hPa 0,0 l/m 16,0 km/h (3 Bft) W-SW 249 0 min 0,000 mm 2,0 UV-I 309 W/m 12,7 C 13,1 C 25,7 km/h (4 Bft) 100,00 %
31.05.2016 16:05 16,8 C 78 % 1010,7 hPa 0,0 l/m 13,2 km/h (3 Bft) W 278 0 min 0,000 mm 2,0 UV-I 299 W/m 12,9 C 13,9 C 16,1 km/h (3 Bft) 100,00 %
31.05.2016 16:06 16,8 C 77 % 1010,7 hPa 0,0 l/m 13,0 km/h (3 Bft) SW 224 0 min 0,000 mm 1,9 UV-I 285 W/m 12,7 C 14,0 C 20,9 km/h (4 Bft) 100,00 %
31.05.2016 16:07 16,8 C 77 % 1010,7 hPa 0,0 l/m 20,7 km/h (4 Bft) W 265 0 min 0,000 mm 1,9 UV-I 273 W/m 12,7 C 11,9 C 27,4 km/h (4 Bft) 100,00 %
31.05.2016 16:08 16,7 C 77 % 1010,7 hPa 0,0 l/m 17,7 km/h (3 Bft) SW 230 0 min 0,000 mm 1,8 UV-I 268 W/m 12,6 C 12,5 C 20,9 km/h (4 Bft) 100,00 %
31.05.2016 16:09 16,7 C 78 % 1010,7 hPa 0,0 l/m 13,1 km/h (3 Bft) W 273 0 min 0,000 mm 1,8 UV-I 266 W/m 12,8 C 13,9 C 19,3 km/h (3 Bft) 100,00 %
31.05.2016 16:10 16,7 C 78 % 1010,7 hPa 0,0 l/m 14,6 km/h (3 Bft) S-SW 198 0 min 0,000 mm 1,8 UV-I 265 W/m 12,8 C 13,4 C 20,9 km/h (4 Bft) 100,00 %
31.05.2016 16:11 16,7 C 78 % 1010,7 hPa 0,0 l/m 15,1 km/h (3 Bft) W-SW 244 0 min 0,000 mm 1,8 UV-I 265 W/m 12,8 C 13,2 C 20,9 km/h (4 Bft) 100,00 %
31.05.2016 16:12 16,7 C 79 % 1010,7 hPa 0,0 l/m 12,2 km/h (2 Bft) W-SW 250 0 min 0,000 mm 1,7 UV-I 267 W/m 13,0 C 14,2 C 17,7 km/h (3 Bft) 95,83 %
31.05.2016 16:13 16,7 C 79 % 1010,6 hPa 0,0 l/m 16,0 km/h (3 Bft) W-SW 249 0 min 0,000 mm 1,7 UV-I 266 W/m 13,0 C 13,0 C 24,1 km/h (4 Bft) 100,00 %
31.05.2016 16:14 16,7 C 78 % 1010,7 hPa 0,0 l/m 17,6 km/h (3 Bft) SW 229 0 min 0,000 mm 1,7 UV-I 263 W/m 12,8 C 12,5 C 22,5 km/h (4 Bft) 100,00 %
31.05.2016 16:15 16,7 C 78 % 1010,7 hPa 0,0 l/m 16,6 km/h (3 Bft) W 261 0 min 0,000 mm 1,6 UV-I 259 W/m 12,8 C 12,8 C 22,5 km/h (4 Bft) 100,00 %
31.05.2016 16:16 16,7 C 78 % 1010,6 hPa 0,0 l/m 15,9 km/h (3 Bft) W-SW 252 0 min 0,000 mm 1,6 UV-I 252 W/m 12,8 C 13,0 C 20,9 km/h (4 Bft) 100,00 %
31.05.2016 16:17 16,7 C 79 % 1010,7 hPa 0,0 l/m 8,6 km/h (2 Bft) W 263 0 min 0,000 mm 1,6 UV-I 245 W/m 13,0 C 15,6 C 14,5 km/h (3 Bft) 100,00 %
31.05.2016 16:18 16,7 C 80 % 1010,7 hPa 0,0 l/m 9,1 km/h (2 Bft) W 272 0 min 0,000 mm 1,5 UV-I 238 W/m 13,2 C 15,4 C 16,1 km/h (3 Bft) 100,00 %
31.05.2016 16:19 16,8 C 79 % 1010,7 hPa 0,0 l/m 15,0 km/h (3 Bft) W 265 0 min 0,000 mm 1,5 UV-I 234 W/m 13,1 C 13,4 C 19,3 km/h (3 Bft) 95,65 %
31.05.2016 16:20 16,7 C 79 % 1010,6 hPa 0,0 l/m 14,8 km/h (3 Bft) W-SW 250 0 min 0,000 mm 1,5 UV-I 230 W/m 13,0 C 13,3 C 19,3 km/h (3 Bft) 100,00 %
31.05.2016 16:21 16,7 C 79 % 1010,7 hPa 0,0 l/m 9,7 km/h (2 Bft) S-SW 212 0 min 0,000 mm 1,4 UV-I 226 W/m 13,0 C 15,1 C 14,5 km/h (3 Bft) 100,00 %
31.05.2016 16:22 16,7 C 78 % 1010,6 hPa 0,0 l/m 14,8 km/h (3 Bft) W-SW 248 0 min 0,000 mm 1,4 UV-I 223 W/m 12,8 C 13,3 C 25,7 km/h (4 Bft) 100,00 %
31.05.2016 16:23 16,7 C 77 % 1010,6 hPa 0,0 l/m 15,4 km/h (3 Bft) SW 229 0 min 0,000 mm 1,3 UV-I 221 W/m 12,6 C 13,1 C 24,1 km/h (4 Bft) 100,00 %
31.05.2016 16:24 16,7 C 77 % 1010,6 hPa 0,0 l/m 18,2 km/h (3 Bft) SW 236 0 min 0,000 mm 1,3 UV-I 221 W/m 12,6 C 12,4 C 24,1 km/h (4 Bft) 95,83 %
31.05.2016 16:25 16,6 C 77 % 1010,7 hPa 0,0 l/m 17,3 km/h (3 Bft) SW 229 0 min 0,000 mm 1,3 UV-I 221 W/m 12,5 C 12,5 C 22,5 km/h (4 Bft) 100,00 %
31.05.2016 16:26 16,6 C 77 % 1010,6 hPa 0,0 l/m 17,4 km/h (3 Bft) S-SW 211 0 min 0,000 mm 1,3 UV-I 222 W/m 12,5 C 12,5 C 25,7 km/h (4 Bft) 100,00 %
31.05.2016 16:27 16,6 C 77 % 1010,6 hPa 0,0 l/m 15,8 km/h (3 Bft) SW 221 0 min 0,000 mm 1,3 UV-I 224 W/m 12,5 C 12,9 C 25,7 km/h (4 Bft) 100,00 %
31.05.2016 16:28 16,6 C 77 % 1010,6 hPa 0,0 l/m 14,2 km/h (3 Bft) SW 230 0 min 0,000 mm 1,3 UV-I 230 W/m 12,5 C 13,4 C 20,9 km/h (4 Bft) 95,65 %
31.05.2016 16:29 16,5 C 77 % 1010,6 hPa 0,0 l/m 14,1 km/h (3 Bft) W-SW 238 0 min 0,000 mm 1,3 UV-I 235 W/m 12,5 C 13,3 C 20,9 km/h (4 Bft) 100,00 %
31.05.2016 16:30 16,5 C 77 % 1010,6 hPa 0,0 l/m 12,5 km/h (3 Bft) W-SW 243 0 min 0,000 mm 1,3 UV-I 238 W/m 12,5 C 13,8 C 19,3 km/h (3 Bft) 95,65 %
31.05.2016 16:31 16,6 C 78 % 1010,6 hPa 0,0 l/m 10,7 km/h (2 Bft) W-SW 252 0 min 0,000 mm 1,3 UV-I 238 W/m 12,7 C 14,6 C 16,1 km/h (3 Bft) 100,00 %
31.05.2016 16:32 16,6 C 78 % 1010,6 hPa 0,0 l/m 14,5 km/h (3 Bft) W-SW 257 0 min 0,000 mm 1,3 UV-I 235 W/m 12,7 C 13,3 C 20,9 km/h (4 Bft) 86,96 %
31.05.2016 16:33 16,6 C 79 % 1010,6 hPa 0,0 l/m 12,5 km/h (3 Bft) W 261 0 min 0,000 mm 1,3 UV-I 230 W/m 12,9 C 13,9 C 16,1 km/h (3 Bft) 100,00 %
31.05.2016 16:34 16,6 C 78 % 1010,6 hPa 0,0 l/m 14,0 km/h (3 Bft) W 259 0 min 0,000 mm 1,3 UV-I 223 W/m 12,7 C 13,4 C 20,9 km/h (4 Bft) 96,15 %
31.05.2016 16:35 16,6 C 78 % 1010,6 hPa 0,0 l/m 16,4 km/h (3 Bft) SW 230 0 min 0,000 mm 1,2 UV-I 217 W/m 12,7 C 12,7 C 19,3 km/h (3 Bft) 95,83 %
31.05.2016 16:36 16,6 C 78 % 1010,6 hPa 0,0 l/m 17,2 km/h (3 Bft) W-SW 253 0 min 0,000 mm 1,2 UV-I 208 W/m 12,7 C 12,5 C 20,9 km/h (4 Bft) 100,00 %
31.05.2016 16:37 16,6 C 78 % 1010,6 hPa 0,0 l/m 14,4 km/h (3 Bft) S-SW 198 0 min 0,000 mm 1,2 UV-I 200 W/m 12,7 C 13,3 C 17,7 km/h (3 Bft) 95,83 %
31.05.2016 16:38 16,6 C 78 % 1010,6 hPa 0,0 l/m 14,0 km/h (3 Bft) W-SW 252 0 min 0,000 mm 1,1 UV-I 194 W/m 12,7 C 13,4 C 19,3 km/h (3 Bft) 100,00 %
31.05.2016 16:39 16,6 C 78 % 1010,7 hPa 0,0 l/m 17,6 km/h (3 Bft) SW 215 0 min 0,000 mm 1,1 UV-I 186 W/m 12,7 C 12,4 C 22,5 km/h (4 Bft) 96,30 %
31.05.2016 16:40 16,6 C 77 % 1010,7 hPa 0,0 l/m 15,3 km/h (3 Bft) W-SW 254 0 min 0,000 mm 1,0 UV-I 179 W/m 12,5 C 13,0 C 22,5 km/h (4 Bft) 95,65 %
31.05.2016 16:41 16,5 C 77 % 1010,7 hPa 0,0 l/m 14,9 km/h (3 Bft) W-SW 246 0 min 0,000 mm 1,0 UV-I 174 W/m 12,5 C 13,0 C 19,3 km/h (3 Bft) 95,83 %
31.05.2016 16:42 16,4 C 77 % 1010,7 hPa 0,0 l/m 17,9 km/h (3 Bft) SW 219 0 min 0,000 mm 1,0 UV-I 172 W/m 12,4 C 12,1 C 25,7 km/h (4 Bft) 95,65 %
31.05.2016 16:43 16,4 C 77 % 1010,7 hPa 0,0 l/m 16,8 km/h (3 Bft) SW 233 0 min 0,000 mm 1,0 UV-I 171 W/m 12,4 C 12,4 C 24,1 km/h (4 Bft) 95,83 %
31.05.2016 16:44 16,4 C 77 % 1010,7 hPa 0,0 l/m 8,0 km/h (2 Bft) W-NW 285 0 min 0,000 mm 1,0 UV-I 171 W/m 12,4 C 15,6 C 12,9 km/h (3 Bft) 100,00 %
31.05.2016 16:45 16,4 C 78 % 1010,6 hPa 0,0 l/m 15,9 km/h (3 Bft) SW 227 0 min 0,000 mm 1,0 UV-I 172 W/m 12,6 C 12,6 C 22,5 km/h (4 Bft) 95,83 %
31.05.2016 16:46 16,4 C 78 % 1010,6 hPa 0,0 l/m 10,9 km/h (2 Bft) SW 229 0 min 0,000 mm 1,0 UV-I 174 W/m 12,6 C 14,3 C 17,7 km/h (3 Bft) 95,83 %
31.05.2016 16:47 16,4 C 79 % 1010,6 hPa 0,0 l/m 11,3 km/h (2 Bft) SW 231 0 min 0,000 mm 1,0 UV-I 178 W/m 12,7 C 14,1 C 20,9 km/h (4 Bft) 96,15 %
31.05.2016 16:48 16,4 C 78 % 1010,6 hPa 0,0 l/m 8,5 km/h (2 Bft) SW 215 0 min 0,000 mm 1,0 UV-I 180 W/m 12,6 C 15,3 C 14,5 km/h (3 Bft) 88,46 %
31.05.2016 16:49 16,4 C 79 % 1010,7 hPa 0,0 l/m 8,8 km/h (2 Bft) W 269 0 min 0,000 mm 1,0 UV-I 185 W/m 12,7 C 15,2 C 16,1 km/h (3 Bft) 100,00 %
31.05.2016 16:50 16,4 C 79 % 1010,6 hPa 0,0 l/m 14,3 km/h (3 Bft) W-SW 243 0 min 0,000 mm 1,0 UV-I 187 W/m 12,7 C 13,1 C 17,7 km/h (3 Bft) 87,50 %
31.05.2016 16:51 16,4 C 79 % 1010,6 hPa 0,0 l/m 11,5 km/h (2 Bft) W-SW 253 0 min 0,000 mm 1,0 UV-I 190 W/m 12,7 C 14,1 C 17,7 km/h (3 Bft) 95,65 %
31.05.2016 16:52 16,4 C 78 % 1010,7 hPa 0,0 l/m 14,2 km/h (3 Bft) W-SW 247 0 min 0,000 mm 0,9 UV-I 190 W/m 12,6 C 13,1 C 19,3 km/h (3 Bft) 96,30 %
31.05.2016 16:53 16,4 C 79 % 1010,7 hPa 0,0 l/m 10,5 km/h (2 Bft) SW 219 0 min 0,000 mm 0,9 UV-I 188 W/m 12,7 C 14,5 C 16,1 km/h (3 Bft) 100,00 %
31.05.2016 16:54 16,4 C 80 % 1010,7 hPa 0,0 l/m 11,3 km/h (2 Bft) SW 226 0 min 0,000 mm 0,9 UV-I 185 W/m 12,9 C 14,1 C 19,3 km/h (3 Bft) 95,83 %
31.05.2016 16:55 16,4 C 79 % 1010,7 hPa 0,0 l/m 15,9 km/h (3 Bft) SW 226 0 min 0,000 mm 0,9 UV-I 181 W/m 12,7 C 12,6 C 24,1 km/h (4 Bft) 91,30 %
31.05.2016 16:56 16,4 C 78 % 1010,6 hPa 0,0 l/m 10,9 km/h (2 Bft) S-SW 212 0 min 0,000 mm 0,9 UV-I 176 W/m 12,6 C 14,3 C 16,1 km/h (3 Bft) 100,00 %
31.05.2016 16:57 16,4 C 79 % 1010,6 hPa 0,0 l/m 8,8 km/h (2 Bft) W-SW 238 0 min 0,000 mm 0,8 UV-I 171 W/m 12,7 C 15,2 C 12,9 km/h (3 Bft) 95,65 %
31.05.2016 16:58 16,4 C 78 % 1010,6 hPa 0,0 l/m 10,5 km/h (2 Bft) W 259 0 min 0,000 mm 0,8 UV-I 166 W/m 12,6 C 14,5 C 14,5 km/h (3 Bft) 100,00 %
31.05.2016 16:59 16,4 C 79 % 1010,6 hPa 0,0 l/m 8,0 km/h (2 Bft) W-SW 249 0 min 0,000 mm 0,8 UV-I 163 W/m 12,7 C 15,6 C 14,5 km/h (3 Bft) 96,15 %
31.05.2016 17:00 16,4 C 79 % 1010,6 hPa 0,0 l/m 9,5 km/h (2 Bft) SW 225 0 min 0,000 mm 0,8 UV-I 164 W/m 12,7 C 14,9 C 14,5 km/h (3 Bft) 100,00 %
31.05.2016 17:02 16,4 C 78 % 1010,6 hPa 0,0 l/m 15,5 km/h (3 Bft) SW 217 0 min 0,153 mm 0,8 UV-I 169 W/m 12,6 C 12,7 C 20,9 km/h (4 Bft) 98,00 %
31.05.2016 17:03 16,4 C 78 % 1010,6 hPa 0,0 l/m 15,6 km/h (3 Bft) W-SW 252 0 min 0,000 mm 0,9 UV-I 176 W/m 12,6 C 12,7 C 22,5 km/h (4 Bft) 95,65 %
31.05.2016 17:04 16,3 C 78 % 1010,6 hPa 0,0 l/m 15,9 km/h (3 Bft) SW 232 0 min 0,000 mm 0,9 UV-I 180 W/m 12,5 C 12,5 C 22,5 km/h (4 Bft) 100,00 %
31.05.2016 17:05 16,3 C 79 % 1010,6 hPa 0,0 l/m 14,5 km/h (3 Bft) SW 225 0 min 0,000 mm 0,9 UV-I 177 W/m 12,6 C 12,9 C 22,5 km/h (4 Bft) 97,37 %
31.05.2016 17:10 16,3 C 79 % 1010,5 hPa 0,0 l/m 9,7 km/h (2 Bft) W-SW 247 0 min 0,000 mm 0,9 UV-I 179 W/m 12,6 C 14,7 C 17,7 km/h (3 Bft) 97,37 %
31.05.2016 17:13 16,3 C 77 % 1010,5 hPa 0,0 l/m 16,9 km/h (3 Bft) W-NW 291 0 min 0,000 mm 0,8 UV-I 175 W/m 12,3 C 12,2 C 24,1 km/h (4 Bft) 99,10 %
31.05.2016 17:14 16,3 C 79 % 1010,5 hPa 0,0 l/m 13,4 km/h (3 Bft) W-SW 242 0 min 0,000 mm 0,8 UV-I 164 W/m 12,6 C 13,3 C 20,9 km/h (4 Bft) 100,00 %
31.05.2016 17:15 16,3 C 78 % 1010,6 hPa 0,0 l/m 13,3 km/h (3 Bft) SW 236 0 min 0,000 mm 0,7 UV-I 158 W/m 12,5 C 13,3 C 17,7 km/h (3 Bft) 100,00 %
31.05.2016 17:16 16,3 C 78 % 1010,6 hPa 0,0 l/m 15,8 km/h (3 Bft) W-SW 250 0 min 0,000 mm 0,7 UV-I 152 W/m 12,5 C 12,5 C 25,7 km/h (4 Bft) 100,00 %
31.05.2016 17:17 16,3 C 77 % 1010,5 hPa 0,0 l/m 13,8 km/h (3 Bft) W-SW 255 0 min 0,000 mm 0,7 UV-I 149 W/m 12,3 C 13,1 C 19,3 km/h (3 Bft) 86,67 %
31.05.2016 17:18 16,3 C 78 % 1010,5 hPa 0,0 l/m 12,7 km/h (3 Bft) W 278 0 min 0,000 mm 0,7 UV-I 146 W/m 12,5 C 13,5 C 16,1 km/h (3 Bft) 95,65 %
31.05.2016 17:19 16,3 C 79 % 1010,5 hPa 0,0 l/m 13,2 km/h (3 Bft) W-SW 240 0 min 0,000 mm 0,7 UV-I 143 W/m 12,6 C 13,3 C 17,7 km/h (3 Bft) 95,83 %
31.05.2016 17:20 16,3 C 79 % 1010,5 hPa 0,0 l/m 12,7 km/h (3 Bft) W-SW 250 0 min 0,000 mm 0,7 UV-I 145 W/m 12,6 C 13,5 C 22,5 km/h (4 Bft) 100,00 %
31.05.2016 17:21 16,2 C 79 % 1010,5 hPa 0,0 l/m 12,7 km/h (3 Bft) SW 227 0 min 0,000 mm 0,7 UV-I 151 W/m 12,6 C 13,4 C 17,7 km/h (3 Bft) 91,67 %
31.05.2016 17:22 16,2 C 80 % 1010,5 hPa 0,0 l/m 9,7 km/h (2 Bft) W-SW 246 0 min 0,000 mm 0,7 UV-I 155 W/m 12,7 C 14,6 C 14,5 km/h (3 Bft) 100,00 %
31.05.2016 17:23 16,2 C 80 % 1010,5 hPa 0,0 l/m 9,7 km/h (2 Bft) W-SW 240 0 min 0,000 mm 0,7 UV-I 150 W/m 12,7 C 14,6 C 16,1 km/h (3 Bft) 95,83 %
31.05.2016 17:24 16,2 C 79 % 1010,5 hPa 0,0 l/m 9,1 km/h (2 Bft) SW 231 0 min 0,000 mm 0,6 UV-I 142 W/m 12,6 C 14,8 C 12,9 km/h (3 Bft) 95,65 %
31.05.2016 17:25 16,2 C 80 % 1010,5 hPa 0,0 l/m 10,0 km/h (2 Bft) SW 231 0 min 0,000 mm 0,6 UV-I 134 W/m 12,7 C 14,4 C 19,3 km/h (3 Bft) 95,83 %
31.05.2016 17:26 16,2 C 80 % 1010,5 hPa 0,0 l/m 9,5 km/h (2 Bft) SW 227 0 min 0,000 mm 0,5 UV-I 128 W/m 12,7 C 14,7 C 16,1 km/h (3 Bft) 100,00 %
31.05.2016 17:27 16,2 C 80 % 1010,5 hPa 0,0 l/m 13,3 km/h (3 Bft) SW 233 0 min 0,000 mm 0,5 UV-I 123 W/m 12,7 C 13,2 C 22,5 km/h (4 Bft) 100,00 %
31.05.2016 17:28 16,2 C 80 % 1010,5 hPa 0,0 l/m 13,5 km/h (3 Bft) SW 236 0 min 0,000 mm 0,5 UV-I 123 W/m 12,7 C 13,1 C 22,5 km/h (4 Bft) 100,00 %
31.05.2016 17:29 16,2 C 80 % 1010,5 hPa 0,0 l/m 8,8 km/h (2 Bft) S-SW 200 0 min 0,000 mm 0,5 UV-I 126 W/m 12,7 C 15,0 C 12,9 km/h (3 Bft) 100,00 %
31.05.2016 17:30 16,2 C 80 % 1010,5 hPa 0,0 l/m 9,2 km/h (2 Bft) W-SW 238 0 min 0,000 mm 0,5 UV-I 127 W/m 12,7 C 14,8 C 14,5 km/h (3 Bft) 100,00 %
31.05.2016 17:31 16,2 C 80 % 1010,5 hPa 0,0 l/m 11,8 km/h (2 Bft) W-SW 240 0 min 0,000 mm 0,5 UV-I 128 W/m 12,7 C 13,7 C 19,3 km/h (3 Bft) 96,30 %
31.05.2016 17:32 16,1 C 80 % 1010,5 hPa 0,0 l/m 14,4 km/h (3 Bft) W-SW 257 0 min 0,000 mm 0,6 UV-I 130 W/m 12,6 C 12,7 C 19,3 km/h (3 Bft) 100,00 %
31.05.2016 17:33 16,1 C 80 % 1010,6 hPa 0,0 l/m 16,6 km/h (3 Bft) W-SW 245 0 min 0,000 mm 0,6 UV-I 136 W/m 12,6 C 12,1 C 24,1 km/h (4 Bft) 100,00 %
31.05.2016 17:34 16,1 C 79 % 1010,5 hPa 0,0 l/m 15,5 km/h (3 Bft) W-SW 248 0 min 0,000 mm 0,6 UV-I 141 W/m 12,5 C 12,4 C 19,3 km/h (3 Bft) 95,65 %
31.05.2016 17:35 16,1 C 80 % 1010,4 hPa 0,0 l/m 11,8 km/h (2 Bft) SW 233 0 min 0,000 mm 0,6 UV-I 144 W/m 12,6 C 13,6 C 14,5 km/h (3 Bft) 95,83 %
31.05.2016 17:36 16,1 C 80 % 1010,5 hPa 0,0 l/m 15,9 km/h (3 Bft) W-SW 240 0 min 0,000 mm 0,7 UV-I 151 W/m 12,6 C 12,3 C 24,1 km/h (4 Bft) 100,00 %
31.05.2016 17:37 16,0 C 80 % 1010,5 hPa 0,0 l/m 13,5 km/h (3 Bft) W 259 0 min 0,000 mm 0,7 UV-I 155 W/m 12,5 C 12,9 C 20,9 km/h (4 Bft) 100,00 %
31.05.2016 17:38 16,0 C 80 % 1010,5 hPa 0,0 l/m 15,1 km/h (3 Bft) W-SW 258 0 min 0,000 mm 0,7 UV-I 159 W/m 12,5 C 12,4 C 19,3 km/h (3 Bft) 100,00 %
31.05.2016 17:39 16,0 C 80 % 1010,4 hPa 0,0 l/m 14,1 km/h (3 Bft) SW 221 0 min 0,000 mm 0,7 UV-I 161 W/m 12,5 C 12,7 C 19,3 km/h (3 Bft) 100,00 %
31.05.2016 17:40 15,9 C 80 % 1010,4 hPa 0,0 l/m 12,6 km/h (3 Bft) W 259 0 min 0,000 mm 0,7 UV-I 166 W/m 12,5 C 13,1 C 19,3 km/h (3 Bft) 100,00 %
31.05.2016 17:41 15,9 C 80 % 1010,4 hPa 0,0 l/m 12,8 km/h (3 Bft) W-SW 257 0 min 0,000 mm 0,7 UV-I 174 W/m 12,5 C 13,0 C 19,3 km/h (3 Bft) 95,65 %
31.05.2016 17:42 15,9 C 81 % 1010,4 hPa 0,0 l/m 14,0 km/h (3 Bft) SW 219 0 min 0,000 mm 0,7 UV-I 181 W/m 12,6 C 12,6 C 20,9 km/h (4 Bft) 100,00 %
31.05.2016 17:43 15,9 C 80 % 1010,4 hPa 0,0 l/m 16,6 km/h (3 Bft) W-SW 249 0 min 0,000 mm 0,8 UV-I 181 W/m 12,5 C 11,8 C 20,9 km/h (4 Bft) 88,89 %
31.05.2016 17:44 15,9 C 79 % 1010,4 hPa 0,0 l/m 13,8 km/h (3 Bft) SW 236 0 min 0,000 mm 0,8 UV-I 178 W/m 12,3 C 12,7 C 24,1 km/h (4 Bft) 100,00 %
31.05.2016 17:45 15,9 C 79 % 1010,4 hPa 0,0 l/m 12,0 km/h (2 Bft) SW 229 0 min 0,000 mm 0,8 UV-I 176 W/m 12,3 C 13,3 C 14,5 km/h (3 Bft) 100,00 %
31.05.2016 17:46 15,9 C 79 % 1010,3 hPa 0,0 l/m 13,1 km/h (3 Bft) W-SW 238 0 min 0,000 mm 0,8 UV-I 176 W/m 12,3 C 12,9 C 24,1 km/h (4 Bft) 100,00 %
31.05.2016 17:47 15,9 C 79 % 1010,4 hPa 0,0 l/m 14,1 km/h (3 Bft) W 262 0 min 0,000 mm 0,8 UV-I 175 W/m 12,3 C 12,6 C 19,3 km/h (3 Bft) 95,65 %
31.05.2016 17:48 15,9 C 79 % 1010,4 hPa 0,0 l/m 16,5 km/h (3 Bft) W 273 0 min 0,000 mm 0,8 UV-I 170 W/m 12,3 C 11,8 C 20,9 km/h (4 Bft) 100,00 %
31.05.2016 17:49 16,0 C 79 % 1010,4 hPa 0,0 l/m 11,7 km/h (2 Bft) W 271 0 min 0,000 mm 0,8 UV-I 161 W/m 12,4 C 13,5 C 16,1 km/h (3 Bft) 96,15 %
31.05.2016 17:50 15,9 C 79 % 1010,3 hPa 0,0 l/m 8,9 km/h (2 Bft) W-SW 240 0 min 0,000 mm 0,8 UV-I 152 W/m 12,3 C 14,6 C 14,5 km/h (3 Bft) 100,00 %
31.05.2016 17:51 15,9 C 78 % 1010,3 hPa 0,0 l/m 10,4 km/h (2 Bft) W-SW 258 0 min 0,000 mm 0,8 UV-I 148 W/m 12,1 C 13,9 C 14,5 km/h (3 Bft) 95,65 %
31.05.2016 17:52 15,9 C 79 % 1010,3 hPa 0,0 l/m 12,4 km/h (3 Bft) W-SW 244 0 min 0,000 mm 0,7 UV-I 145 W/m 12,3 C 13,2 C 17,7 km/h (3 Bft) 100,00 %
31.05.2016 17:53 15,9 C 78 % 1010,3 hPa 0,0 l/m 12,4 km/h (3 Bft) W-SW 254 0 min 0,000 mm 0,7 UV-I 142 W/m 12,1 C 13,2 C 16,1 km/h (3 Bft) 100,00 %
31.05.2016 17:54 15,9 C 77 % 1010,3 hPa 0,0 l/m 17,1 km/h (3 Bft) W 259 0 min 0,000 mm 0,7 UV-I 140 W/m 11,9 C 11,7 C 27,4 km/h (4 Bft) 95,65 %
31.05.2016 17:55 15,9 C 78 % 1010,3 hPa 0,0 l/m 15,8 km/h (3 Bft) W-SW 243 0 min 0,000 mm 0,6 UV-I 136 W/m 12,1 C 12,0 C 22,5 km/h (4 Bft) 100,00 %
31.05.2016 17:56 15,9 C 78 % 1010,3 hPa 0,0 l/m 15,6 km/h (3 Bft) W-SW 254 0 min 0,000 mm 0,6 UV-I 134 W/m 12,1 C 12,1 C 20,9 km/h (4 Bft) 95,65 %
31.05.2016 17:57 15,8 C 78 % 1010,3 hPa 0,0 l/m 15,0 km/h (3 Bft) W-SW 250 0 min 0,000 mm 0,5 UV-I 127 W/m 12,0 C 12,2 C 19,3 km/h (3 Bft) 100,00 %
31.05.2016 17:58 15,8 C 78 % 1010,3 hPa 0,0 l/m 10,3 km/h (2 Bft) S-SW 192 0 min 0,000 mm 0,5 UV-I 125 W/m 12,0 C 13,9 C 16,1 km/h (3 Bft) 100,00 %
31.05.2016 17:59 15,8 C 78 % 1010,3 hPa 0,0 l/m 12,3 km/h (3 Bft) W-SW 242 0 min 0,000 mm 0,5 UV-I 118 W/m 12,0 C 13,1 C 17,7 km/h (3 Bft) 96,30 %
31.05.2016 18:00 15,8 C 79 % 1010,3 hPa 0,0 l/m 11,8 km/h (2 Bft) W-SW 243 0 min 0,000 mm 0,3 UV-I 109 W/m 12,2 C 13,3 C 16,1 km/h (3 Bft) 95,65 %
31.05.2016 18:02 15,7 C 79 % 1010,3 hPa 0,0 l/m 14,9 km/h (3 Bft) S-SW 209 0 min 0,127 mm 0,0 UV-I 98 W/m 12,1 C 12,1 C 20,9 km/h (4 Bft) 100,00 %
31.05.2016 18:03 15,7 C 79 % 1010,3 hPa 0,0 l/m 14,6 km/h (3 Bft) W-SW 244 0 min 0,000 mm 0,0 UV-I 84 W/m 12,1 C 12,2 C 19,3 km/h (3 Bft) 100,00 %
31.05.2016 18:04 15,7 C 79 % 1010,3 hPa 0,0 l/m 12,9 km/h (3 Bft) W-NW 286 0 min 0,000 mm 0,0 UV-I 75 W/m 12,1 C 12,7 C 19,3 km/h (3 Bft) 100,00 %
31.05.2016 18:05 15,7 C 79 % 1010,3 hPa 0,0 l/m 9,4 km/h (2 Bft) W 279 0 min 0,000 mm 0,0 UV-I 70 W/m 12,1 C 14,2 C 12,9 km/h (3 Bft) 100,00 %
31.05.2016 18:06 15,6 C 80 % 1010,3 hPa 0,0 l/m 7,6 km/h (2 Bft) W-SW 242 0 min 0,000 mm 0,0 UV-I 68 W/m 12,2 C 14,9 C 11,3 km/h (2 Bft) 95,65 %
31.05.2016 18:07 15,6 C 80 % 1010,3 hPa 0,0 l/m 7,8 km/h (2 Bft) S-SW 210 0 min 0,000 mm 0,0 UV-I 65 W/m 12,2 C 14,8 C 12,9 km/h (3 Bft) 100,00 %
31.05.2016 18:08 15,6 C 79 % 1010,4 hPa 0,0 l/m 12,2 km/h (2 Bft) W-SW 243 0 min 0,000 mm 0,0 UV-I 63 W/m 12,0 C 12,9 C 17,7 km/h (3 Bft) 100,00 %
31.05.2016 18:09 15,6 C 79 % 1010,3 hPa 0,0 l/m 10,2 km/h (2 Bft) W-SW 245 0 min 0,000 mm 0,0 UV-I 61 W/m 12,0 C 13,7 C 17,7 km/h (3 Bft) 96,15 %
31.05.2016 18:10 15,6 C 80 % 1010,3 hPa 0,0 l/m 13,1 km/h (3 Bft) W-SW 254 0 min 0,000 mm 0,0 UV-I 56 W/m 12,2 C 12,6 C 20,9 km/h (4 Bft) 100,00 %
31.05.2016 18:11 15,5 C 79 % 1010,4 hPa 0,0 l/m 13,8 km/h (3 Bft) W-SW 242 0 min 0,000 mm 0,0 UV-I 52 W/m 11,9 C 12,2 C 19,3 km/h (3 Bft) 95,65 %
31.05.2016 18:12 15,5 C 78 % 1010,4 hPa 0,0 l/m 15,7 km/h (3 Bft) W 266 0 min 0,000 mm 0,0 UV-I 49 W/m 11,7 C 11,6 C 20,9 km/h (4 Bft) 100,00 %
31.05.2016 18:13 15,4 C 78 % 1010,4 hPa 0,0 l/m 10,9 km/h (2 Bft) SW 234 0 min 0,000 mm 0,0 UV-I 49 W/m 11,6 C 13,2 C 14,5 km/h (3 Bft) 95,65 %
31.05.2016 18:14 15,4 C 79 % 1010,4 hPa 0,0 l/m 10,7 km/h (2 Bft) SW 219 0 min 0,000 mm 0,0 UV-I 49 W/m 11,8 C 13,3 C 16,1 km/h (3 Bft) 100,00 %
31.05.2016 18:15 15,4 C 79 % 1010,4 hPa 0,0 l/m 10,9 km/h (2 Bft) W-SW 246 0 min 0,000 mm 0,0 UV-I 50 W/m 11,8 C 13,2 C 14,5 km/h (3 Bft) 100,00 %
31.05.2016 18:16 15,4 C 79 % 1010,4 hPa 0,0 l/m 10,3 km/h (2 Bft) W-SW 257 0 min 0,000 mm 0,0 UV-I 51 W/m 11,8 C 13,4 C 14,5 km/h (3 Bft) 100,00 %
31.05.2016 18:17 15,3 C 80 % 1010,4 hPa 0,0 l/m 7,9 km/h (2 Bft) SW 225 0 min 0,000 mm 0,0 UV-I 52 W/m 11,9 C 14,5 C 11,3 km/h (2 Bft) 100,00 %
31.05.2016 18:18 15,3 C 79 % 1010,4 hPa 0,0 l/m 11,1 km/h (2 Bft) W 259 0 min 0,000 mm 0,0 UV-I 53 W/m 11,7 C 13,0 C 19,3 km/h (3 Bft) 100,00 %
31.05.2016 18:19 15,3 C 79 % 1010,4 hPa 0,0 l/m 12,9 km/h (3 Bft) W-SW 244 0 min 0,000 mm 0,0 UV-I 54 W/m 11,7 C 12,3 C 19,3 km/h (3 Bft) 100,00 %
31.05.2016 18:20 15,3 C 80 % 1010,4 hPa 0,0 l/m 10,3 km/h (2 Bft) SW 225 0 min 0,000 mm 0,0 UV-I 54 W/m 11,9 C 13,3 C 12,9 km/h (3 Bft) 100,00 %
31.05.2016 18:21 15,3 C 79 % 1010,4 hPa 0,0 l/m 10,3 km/h (2 Bft) W 267 0 min 0,000 mm 0,0 UV-I 52 W/m 11,7 C 13,3 C 16,1 km/h (3 Bft) 100,00 %
31.05.2016 18:22 15,2 C 80 % 1010,4 hPa 0,0 l/m 9,6 km/h (2 Bft) S-SW 211 0 min 0,000 mm 0,0 UV-I 50 W/m 11,8 C 13,5 C 14,5 km/h (3 Bft) 100,00 %
31.05.2016 18:23 15,2 C 79 % 1010,4 hPa 0,0 l/m 9,8 km/h (2 Bft) SW 223 0 min 0,000 mm 0,0 UV-I 48 W/m 11,6 C 13,4 C 16,1 km/h (3 Bft) 100,00 %
31.05.2016 18:24 15,2 C 79 % 1010,4 hPa 0,0 l/m 10,1 km/h (2 Bft) SW 236 0 min 0,000 mm 0,0 UV-I 46 W/m 11,6 C 13,3 C 14,5 km/h (3 Bft) 100,00 %
31.05.2016 18:25 15,2 C 79 % 1010,4 hPa 0,0 l/m 12,2 km/h (2 Bft) W-SW 256 0 min 0,000 mm 0,0 UV-I 44 W/m 11,6 C 12,4 C 16,1 km/h (3 Bft) 96,15 %
31.05.2016 18:26 15,2 C 79 % 1010,3 hPa 0,0 l/m 10,3 km/h (2 Bft) W 261 0 min 0,000 mm 0,0 UV-I 44 W/m 11,6 C 13,2 C 16,1 km/h (3 Bft) 100,00 %
31.05.2016 18:27 15,2 C 79 % 1010,4 hPa 0,0 l/m 9,3 km/h (2 Bft) SW 226 0 min 0,000 mm 0,0 UV-I 44 W/m 11,6 C 13,7 C 14,5 km/h (3 Bft) 95,65 %
31.05.2016 18:28 15,2 C 79 % 1010,3 hPa 0,0 l/m 9,0 km/h (2 Bft) SW 232 0 min 0,000 mm 0,0 UV-I 44 W/m 11,6 C 13,8 C 14,5 km/h (3 Bft) 95,83 %
31.05.2016 18:29 15,2 C 79 % 1010,3 hPa 0,0 l/m 11,2 km/h (2 Bft) W-SW 240 0 min 0,000 mm 0,0 UV-I 44 W/m 11,6 C 12,8 C 16,1 km/h (3 Bft) 95,65 %
31.05.2016 18:30 15,2 C 80 % 1010,3 hPa 0,0 l/m 10,3 km/h (2 Bft) W 263 0 min 0,000 mm 0,0 UV-I 44 W/m 11,8 C 13,2 C 14,5 km/h (3 Bft) 95,83 %
31.05.2016 18:31 15,2 C 79 % 1010,3 hPa 0,0 l/m 11,6 km/h (2 Bft) W 268 0 min 0,000 mm 0,0 UV-I 44 W/m 11,6 C 12,7 C 16,1 km/h (3 Bft) 100,00 %
31.05.2016 18:32 15,2 C 79 % 1010,3 hPa 0,0 l/m 9,2 km/h (2 Bft) W-SW 250 0 min 0,000 mm 0,0 UV-I 42 W/m 11,6 C 13,7 C 16,1 km/h (3 Bft) 95,83 %
31.05.2016 18:33 15,2 C 79 % 1010,3 hPa 0,0 l/m 8,0 km/h (2 Bft) SW 229 0 min 0,000 mm 0,0 UV-I 41 W/m 11,6 C 14,3 C 11,3 km/h (2 Bft) 100,00 %
31.05.2016 18:34 15,2 C 80 % 1010,3 hPa 0,0 l/m 9,0 km/h (2 Bft) W-SW 242 0 min 0,000 mm 0,0 UV-I 40 W/m 11,8 C 13,8 C 14,5 km/h (3 Bft) 91,30 %
31.05.2016 18:35 15,1 C 79 % 1010,3 hPa 0,0 l/m 12,5 km/h (3 Bft) W-SW 250 0 min 0,000 mm 0,0 UV-I 40 W/m 11,5 C 12,2 C 16,1 km/h (3 Bft) 100,00 %
31.05.2016 18:36 15,2 C 80 % 1010,3 hPa 0,0 l/m 7,9 km/h (2 Bft) SW 226 0 min 0,000 mm 0,0 UV-I 39 W/m 11,8 C 14,4 C 11,3 km/h (2 Bft) 91,30 %
31.05.2016 18:37 15,1 C 80 % 1010,3 hPa 0,0 l/m 9,1 km/h (2 Bft) SW 235 0 min 0,000 mm 0,0 UV-I 39 W/m 11,7 C 13,6 C 12,9 km/h (3 Bft) 100,00 %
31.05.2016 18:38 15,1 C 80 % 1010,3 hPa 0,0 l/m 10,1 km/h (2 Bft) W-SW 244 0 min 0,000 mm 0,0 UV-I 39 W/m 11,7 C 13,2 C 12,9 km/h (3 Bft) 95,65 %
31.05.2016 18:39 15,1 C 80 % 1010,3 hPa 0,0 l/m 10,9 km/h (2 Bft) W-SW 240 0 min 0,000 mm 0,0 UV-I 37 W/m 11,7 C 12,8 C 16,1 km/h (3 Bft) 100,00 %
31.05.2016 18:40 15,1 C 79 % 1010,3 hPa 0,0 l/m 7,2 km/h (2 Bft) W-SW 254 0 min 0,000 mm 0,0 UV-I 36 W/m 11,5 C 14,6 C 11,3 km/h (2 Bft) 91,30 %
31.05.2016 18:41 15,1 C 80 % 1010,3 hPa 0,0 l/m 9,3 km/h (2 Bft) SW 233 0 min 0,000 mm 0,0 UV-I 35 W/m 11,7 C 13,6 C 16,1 km/h (3 Bft) 95,83 %
31.05.2016 18:42 15,1 C 80 % 1010,3 hPa 0,0 l/m 7,7 km/h (2 Bft) W-SW 252 0 min 0,000 mm 0,0 UV-I 33 W/m 11,7 C 14,4 C 14,5 km/h (3 Bft) 100,00 %
31.05.2016 18:43 15,1 C 81 % 1010,3 hPa 0,0 l/m 7,0 km/h (2 Bft) S-SW 213 0 min 0,000 mm 0,0 UV-I 32 W/m 11,9 C 14,8 C 9,7 km/h (2 Bft) 95,83 %
31.05.2016 18:44 15,1 C 80 % 1010,3 hPa 0,0 l/m 7,5 km/h (2 Bft) SW 227 0 min 0,000 mm 0,0 UV-I 32 W/m 11,7 C 14,5 C 9,7 km/h (2 Bft) 100,00 %
31.05.2016 18:45 15,1 C 81 % 1010,3 hPa 0,0 l/m 7,4 km/h (2 Bft) SW 224 0 min 0,000 mm 0,0 UV-I 30 W/m 11,9 C 14,5 C 12,9 km/h (3 Bft) 95,83 %
31.05.2016 18:46 15,1 C 80 % 1010,3 hPa 0,0 l/m 7,2 km/h (2 Bft) SW 236 0 min 0,000 mm 0,0 UV-I 29 W/m 11,7 C 14,6 C 12,9 km/h (3 Bft) 100,00 %
31.05.2016 18:47 15,1 C 80 % 1010,3 hPa 0,0 l/m 8,7 km/h (2 Bft) SW 223 0 min 0,000 mm 0,0 UV-I 28 W/m 11,7 C 13,8 C 11,3 km/h (2 Bft) 95,65 %
31.05.2016 18:48 15,1 C 81 % 1010,3 hPa 0,0 l/m 6,6 km/h (2 Bft) SW 223 0 min 0,000 mm 0,0 UV-I 28 W/m 11,9 C 15,0 C 9,7 km/h (2 Bft) 95,65 %
31.05.2016 18:49 15,1 C 81 % 1010,3 hPa 0,0 l/m 5,8 km/h (2 Bft) SW 231 0 min 0,000 mm 0,0 UV-I 28 W/m 11,9 C 15,1 C 8,0 km/h (2 Bft) 100,00 %
31.05.2016 18:50 15,1 C 81 % 1010,3 hPa 0,0 l/m 10,3 km/h (2 Bft) SW 227 0 min 0,000 mm 0,0 UV-I 28 W/m 11,9 C 13,1 C 16,1 km/h (3 Bft) 95,83 %
31.05.2016 18:51 15,1 C 80 % 1010,3 hPa 0,0 l/m 8,4 km/h (2 Bft) W-SW 242 0 min 0,000 mm 0,0 UV-I 26 W/m 11,7 C 14,0 C 11,3 km/h (2 Bft) 100,00 %
31.05.2016 18:52 15,1 C 80 % 1010,4 hPa 0,0 l/m 6,5 km/h (2 Bft) SW 232 0 min 0,000 mm 0,0 UV-I 25 W/m 11,7 C 15,1 C 9,7 km/h (2 Bft) 95,83 %
31.05.2016 18:53 15,1 C 80 % 1010,3 hPa 0,0 l/m 7,7 km/h (2 Bft) W-SW 253 0 min 0,000 mm 0,0 UV-I 25 W/m 11,7 C 14,4 C 11,3 km/h (2 Bft) 100,00 %
31.05.2016 18:54 15,1 C 80 % 1010,4 hPa 0,0 l/m 6,6 km/h (2 Bft) W-SW 246 0 min 0,000 mm 0,0 UV-I 25 W/m 11,7 C 15,0 C 11,3 km/h (2 Bft) 96,30 %
31.05.2016 18:55 15,1 C 80 % 1010,3 hPa 0,0 l/m 7,7 km/h (2 Bft) SW 233 0 min 0,000 mm 0,0 UV-I 26 W/m 11,7 C 14,4 C 11,3 km/h (2 Bft) 91,30 %
31.05.2016 18:56 15,1 C 80 % 1010,3 hPa 0,0 l/m 7,0 km/h (2 Bft) W-SW 247 0 min 0,000 mm 0,0 UV-I 26 W/m 11,7 C 14,8 C 12,9 km/h (3 Bft) 100,00 %
31.05.2016 18:57 15,1 C 80 % 1010,4 hPa 0,0 l/m 8,1 km/h (2 Bft) W-SW 252 0 min 0,000 mm 0,0 UV-I 26 W/m 11,7 C 14,2 C 11,3 km/h (2 Bft) 100,00 %
31.05.2016 18:58 15,1 C 81 % 1010,3 hPa 0,0 l/m 8,0 km/h (2 Bft) W-SW 254 0 min 0,000 mm 0,0 UV-I 22 W/m 11,9 C 14,2 C 11,3 km/h (2 Bft) 100,00 %
31.05.2016 18:59 15,1 C 81 % 1010,3 hPa 0,0 l/m 8,8 km/h (2 Bft) W 262 0 min 0,000 mm 0,0 UV-I 20 W/m 11,9 C 13,8 C 12,9 km/h (3 Bft) 100,00 %
31.05.2016 19:00 15,0 C 81 % 1010,3 hPa 0,0 l/m 7,0 km/h (2 Bft) W-SW 240 0 min 0,000 mm 0,0 UV-I 18 W/m 11,8 C 14,7 C 9,7 km/h (2 Bft) 100,00 %
31.05.2016 19:02 15,0 C 82 % 1010,3 hPa 0,0 l/m 7,3 km/h (2 Bft) W 259 0 min 0,051 mm 0,0 UV-I 16 W/m 12,0 C 14,5 C 12,9 km/h (3 Bft) 97,87 %
31.05.2016 19:03 15,0 C 82 % 1010,4 hPa 0,0 l/m 5,5 km/h (1 Bft) W-SW 240 0 min 0,000 mm 0,0 UV-I 17 W/m 12,0 C 15,0 C 9,7 km/h (2 Bft) 95,65 %
31.05.2016 19:04 14,9 C 81 % 1010,4 hPa 0,0 l/m 6,1 km/h (2 Bft) W-SW 250 0 min 0,000 mm 0,0 UV-I 18 W/m 11,7 C 14,9 C 9,7 km/h (2 Bft) 100,00 %
31.05.2016 19:05 14,9 C 82 % 1010,4 hPa 0,0 l/m 4,6 km/h (1 Bft) W-SW 257 0 min 0,000 mm 0,0 UV-I 19 W/m 11,9 C 14,9 C 6,4 km/h (2 Bft) 100,00 %
31.05.2016 19:06 14,9 C 82 % 1010,4 hPa 0,0 l/m 5,0 km/h (1 Bft) W 259 0 min 0,000 mm 0,0 UV-I 19 W/m 11,9 C 14,9 C 6,4 km/h (2 Bft) 100,00 %
31.05.2016 19:07 14,9 C 82 % 1010,4 hPa 0,0 l/m 2,5 km/h (1 Bft) W 259 0 min 0,000 mm 0,0 UV-I 21 W/m 11,9 C 14,9 C 4,8 km/h (1 Bft) 100,00 %
31.05.2016 19:08 14,9 C 82 % 1010,4 hPa 0,0 l/m 3,7 km/h (1 Bft) W-SW 250 0 min 0,000 mm 0,0 UV-I 22 W/m 11,9 C 14,9 C 4,8 km/h (1 Bft) 100,00 %
31.05.2016 19:09 14,9 C 82 % 1010,4 hPa 0,0 l/m 4,8 km/h (1 Bft) SW 227 0 min 0,000 mm 0,0 UV-I 23 W/m 11,9 C 14,9 C 6,4 km/h (2 Bft) 100,00 %
31.05.2016 19:10 14,9 C 82 % 1010,4 hPa 0,0 l/m 6,6 km/h (2 Bft) W-SW 254 0 min 0,000 mm 0,0 UV-I 23 W/m 11,9 C 14,8 C 11,3 km/h (2 Bft) 100,00 %
31.05.2016 19:11 14,9 C 82 % 1010,5 hPa 0,0 l/m 4,3 km/h (1 Bft) SW 218 0 min 0,000 mm 0,0 UV-I 23 W/m 11,9 C 14,9 C 6,4 km/h (2 Bft) 100,00 %
31.05.2016 19:12 14,9 C 82 % 1010,4 hPa 0,0 l/m 5,8 km/h (2 Bft) W-SW 252 0 min 0,000 mm 0,0 UV-I 23 W/m 11,9 C 14,9 C 6,4 km/h (2 Bft) 100,00 %
31.05.2016 19:13 14,9 C 83 % 1010,5 hPa 0,0 l/m 9,1 km/h (2 Bft) SW 229 0 min 0,000 mm 0,0 UV-I 23 W/m 12,0 C 13,4 C 16,1 km/h (3 Bft) 100,00 %
31.05.2016 19:14 14,9 C 82 % 1010,4 hPa 0,0 l/m 8,1 km/h (2 Bft) W-SW 248 0 min 0,000 mm 0,0 UV-I 25 W/m 11,9 C 13,9 C 12,9 km/h (3 Bft) 100,00 %
31.05.2016 19:15 14,9 C 82 % 1010,4 hPa 0,0 l/m 7,4 km/h (2 Bft) W-SW 238 0 min 0,000 mm 0,0 UV-I 25 W/m 11,9 C 14,3 C 9,7 km/h (2 Bft) 100,00 %
31.05.2016 19:16 14,9 C 82 % 1010,4 hPa 0,0 l/m 5,4 km/h (1 Bft) W-SW 253 0 min 0,000 mm 0,0 UV-I 25 W/m 11,9 C 14,9 C 6,4 km/h (2 Bft) 100,00 %
31.05.2016 19:17 14,9 C 82 % 1010,4 hPa 0,0 l/m 3,8 km/h (1 Bft) W-SW 244 0 min 0,000 mm 0,0 UV-I 25 W/m 11,9 C 14,9 C 4,8 km/h (1 Bft) 100,00 %
31.05.2016 19:18 14,9 C 82 % 1010,4 hPa 0,0 l/m 6,4 km/h (2 Bft) W-SW 248 0 min 0,000 mm 0,0 UV-I 25 W/m 11,9 C 14,9 C 8,0 km/h (2 Bft) 100,00 %
31.05.2016 19:19 14,9 C 82 % 1010,5 hPa 0,0 l/m 4,9 km/h (1 Bft) W-SW 254 0 min 0,000 mm 0,0 UV-I 26 W/m 11,9 C 14,9 C 8,0 km/h (2 Bft) 100,00 %
31.05.2016 19:20 14,9 C 83 % 1010,4 hPa 0,0 l/m 6,2 km/h (2 Bft) W-SW 247 0 min 0,000 mm 0,0 UV-I 26 W/m 12,0 C 14,9 C 11,3 km/h (2 Bft) 100,00 %
31.05.2016 19:21 14,9 C 83 % 1010,4 hPa 0,0 l/m 7,0 km/h (2 Bft) W-SW 252 0 min 0,000 mm 0,0 UV-I 25 W/m 12,0 C 14,6 C 11,3 km/h (2 Bft) 100,00 %
31.05.2016 19:22 14,9 C 83 % 1010,4 hPa 0,0 l/m 6,2 km/h (2 Bft) W 262 0 min 0,000 mm 0,0 UV-I 24 W/m 12,0 C 14,9 C 8,0 km/h (2 Bft) 100,00 %
31.05.2016 19:23 14,9 C 83 % 1010,4 hPa 0,0 l/m 4,6 km/h (1 Bft) W-SW 250 0 min 0,000 mm 0,0 UV-I 21 W/m 12,0 C 14,9 C 8,0 km/h (2 Bft) 100,00 %
31.05.2016 19:24 14,9 C 83 % 1010,5 hPa 0,0 l/m 6,0 km/h (2 Bft) W-SW 244 0 min 0,000 mm 0,0 UV-I 21 W/m 12,0 C 14,9 C 8,0 km/h (2 Bft) 100,00 %
31.05.2016 19:25 14,9 C 83 % 1010,5 hPa 0,0 l/m 7,4 km/h (2 Bft) W-SW 242 0 min 0,000 mm 0,0 UV-I 21 W/m 12,0 C 14,3 C 12,9 km/h (3 Bft) 100,00 %
31.05.2016 19:26 14,9 C 83 % 1010,4 hPa 0,0 l/m 5,7 km/h (1 Bft) SW 223 0 min 0,000 mm 0,0 UV-I 21 W/m 12,0 C 14,9 C 9,7 km/h (2 Bft) 100,00 %
31.05.2016 19:27 14,9 C 83 % 1010,4 hPa 0,0 l/m 5,6 km/h (1 Bft) W-SW 254 0 min 0,000 mm 0,0 UV-I 21 W/m 12,0 C 14,9 C 9,7 km/h (2 Bft) 100,00 %
31.05.2016 19:28 14,9 C 83 % 1010,4 hPa 0,0 l/m 4,9 km/h (1 Bft) W-SW 238 0 min 0,000 mm 0,0 UV-I 22 W/m 12,0 C 14,9 C 6,4 km/h (2 Bft) 100,00 %
31.05.2016 19:29 14,9 C 84 % 1010,4 hPa 0,0 l/m 7,0 km/h (2 Bft) SW 223 0 min 0,000 mm 0,0 UV-I 23 W/m 12,2 C 14,6 C 9,7 km/h (2 Bft) 100,00 %
31.05.2016 19:30 14,9 C 83 % 1010,4 hPa 0,0 l/m 5,6 km/h (1 Bft) W-SW 238 0 min 0,000 mm 0,0 UV-I 25 W/m 12,0 C 14,9 C 8,0 km/h (2 Bft) 100,00 %
31.05.2016 19:31 14,9 C 83 % 1010,4 hPa 0,0 l/m 4,0 km/h (1 Bft) SW 225 0 min 0,000 mm 0,0 UV-I 26 W/m 12,0 C 14,9 C 6,4 km/h (2 Bft) 100,00 %
31.05.2016 19:32 14,8 C 83 % 1010,4 hPa 0,0 l/m 4,6 km/h (1 Bft) W-SW 237 0 min 0,000 mm 0,0 UV-I 28 W/m 11,9 C 14,8 C 6,4 km/h (2 Bft) 100,00 %
31.05.2016 19:33 14,8 C 83 % 1010,4 hPa 0,0 l/m 4,5 km/h (1 Bft) W-SW 247 0 min 0,000 mm 0,0 UV-I 29 W/m 11,9 C 14,8 C 6,4 km/h (2 Bft) 100,00 %
31.05.2016 19:34 14,8 C 83 % 1010,4 hPa 0,0 l/m 3,7 km/h (1 Bft) W-SW 247 0 min 0,000 mm 0,0 UV-I 30 W/m 11,9 C 14,8 C 4,8 km/h (1 Bft) 100,00 %
31.05.2016 19:35 14,8 C 83 % 1010,4 hPa 0,0 l/m 3,6 km/h (1 Bft) W-SW 238 0 min 0,000 mm 0,0 UV-I 30 W/m 11,9 C 14,8 C 4,8 km/h (1 Bft) 100,00 %
31.05.2016 19:36 14,8 C 83 % 1010,4 hPa 0,0 l/m 4,0 km/h (1 Bft) W-SW 238 0 min 0,000 mm 0,0 UV-I 30 W/m 11,9 C 14,8 C 6,4 km/h (2 Bft) 100,00 %
31.05.2016 19:37 14,8 C 83 % 1010,4 hPa 0,0 l/m 5,5 km/h (1 Bft) SW 225 0 min 0,000 mm 0,0 UV-I 30 W/m 11,9 C 14,8 C 6,4 km/h (2 Bft) 100,00 %
31.05.2016 19:38 14,8 C 84 % 1010,4 hPa 0,0 l/m 5,4 km/h (1 Bft) SW 231 0 min 0,000 mm 0,0 UV-I 30 W/m 12,1 C 14,8 C 6,4 km/h (2 Bft) 100,00 %
31.05.2016 19:39 14,9 C 84 % 1010,4 hPa 0,0 l/m 4,8 km/h (1 Bft) SW 219 0 min 0,000 mm 0,0 UV-I 30 W/m 12,2 C 14,9 C 6,4 km/h (2 Bft) 100,00 %
31.05.2016 19:40 14,9 C 84 % 1010,4 hPa 0,0 l/m 4,4 km/h (1 Bft) SW 230 0 min 0,000 mm 0,0 UV-I 30 W/m 12,2 C 14,9 C 6,4 km/h (2 Bft) 100,00 %
31.05.2016 19:41 14,9 C 84 % 1010,4 hPa 0,0 l/m 5,2 km/h (1 Bft) SW 236 0 min 0,000 mm 0,0 UV-I 30 W/m 12,2 C 14,9 C 6,4 km/h (2 Bft) 95,65 %
31.05.2016 19:42 14,9 C 85 % 1010,4 hPa 0,0 l/m 4,8 km/h (1 Bft) SW 234 0 min 0,000 mm 0,0 UV-I 32 W/m 12,4 C 14,9 C 6,4 km/h (2 Bft) 100,00 %
31.05.2016 19:43 14,9 C 85 % 1010,4 hPa 0,0 l/m 4,0 km/h (1 Bft) SW 234 0 min 0,000 mm 0,0 UV-I 32 W/m 12,4 C 14,9 C 4,8 km/h (1 Bft) 95,65 %
31.05.2016 19:44 14,9 C 85 % 1010,4 hPa 0,0 l/m 4,4 km/h (1 Bft) SW 234 0 min 0,000 mm 0,0 UV-I 30 W/m 12,4 C 14,9 C 4,8 km/h (1 Bft) 100,00 %
31.05.2016 19:45 14,9 C 84 % 1010,4 hPa 0,0 l/m 5,5 km/h (1 Bft) SW 229 0 min 0,000 mm 0,0 UV-I 29 W/m 12,2 C 14,9 C 6,4 km/h (2 Bft) 95,65 %
31.05.2016 19:46 14,9 C 84 % 1010,4 hPa 0,0 l/m 4,8 km/h (1 Bft) SW 229 0 min 0,000 mm 0,0 UV-I 26 W/m 12,2 C 14,9 C 6,4 km/h (2 Bft) 100,00 %
31.05.2016 19:47 14,9 C 84 % 1010,4 hPa 0,0 l/m 4,4 km/h (1 Bft) SW 229 0 min 0,000 mm 0,0 UV-I 23 W/m 12,2 C 14,9 C 6,4 km/h (2 Bft) 100,00 %
31.05.2016 19:48 14,9 C 85 % 1010,4 hPa 0,0 l/m 4,3 km/h (1 Bft) SW 229 0 min 0,000 mm 0,0 UV-I 23 W/m 12,4 C 14,9 C 4,8 km/h (1 Bft) 96,15 %
31.05.2016 19:49 14,9 C 85 % 1010,4 hPa 0,0 l/m 3,5 km/h (1 Bft) SW 223 0 min 0,000 mm 0,0 UV-I 21 W/m 12,4 C 14,9 C 4,8 km/h (1 Bft) 100,00 %
31.05.2016 19:50 14,9 C 85 % 1010,4 hPa 0,0 l/m 4,5 km/h (1 Bft) W-SW 240 0 min 0,000 mm 0,0 UV-I 21 W/m 12,4 C 14,9 C 6,4 km/h (2 Bft) 100,00 %
31.05.2016 19:51 14,9 C 85 % 1010,4 hPa 0,0 l/m 4,2 km/h (1 Bft) SW 226 0 min 0,000 mm 0,0 UV-I 21 W/m 12,4 C 14,9 C 4,8 km/h (1 Bft) 91,67 %
31.05.2016 19:52 14,9 C 86 % 1010,4 hPa 0,0 l/m 3,7 km/h (1 Bft) SW 227 0 min 0,000 mm 0,0 UV-I 19 W/m 12,6 C 14,9 C 4,8 km/h (1 Bft) 96,15 %
31.05.2016 19:53 14,9 C 85 % 1010,4 hPa 0,0 l/m 4,3 km/h (1 Bft) W-SW 258 0 min 0,000 mm 0,0 UV-I 19 W/m 12,4 C 14,9 C 6,4 km/h (2 Bft) 100,00 %
31.05.2016 19:54 14,9 C 85 % 1010,4 hPa 0,0 l/m 4,6 km/h (1 Bft) W-SW 257 0 min 0,000 mm 0,0 UV-I 18 W/m 12,4 C 14,9 C 6,4 km/h (2 Bft) 100,00 %
31.05.2016 19:55 14,9 C 85 % 1010,4 hPa 0,0 l/m 4,3 km/h (1 Bft) W-SW 255 0 min 0,000 mm 0,0 UV-I 17 W/m 12,4 C 14,9 C 6,4 km/h (2 Bft) 100,00 %
31.05.2016 19:56 14,9 C 85 % 1010,4 hPa 0,0 l/m 4,0 km/h (1 Bft) W 272 0 min 0,000 mm 0,0 UV-I 16 W/m 12,4 C 14,9 C 6,4 km/h (2 Bft) 100,00 %
31.05.2016 19:57 14,9 C 85 % 1010,4 hPa 0,0 l/m 4,7 km/h (1 Bft) W 265 0 min 0,000 mm 0,0 UV-I 16 W/m 12,4 C 14,9 C 6,4 km/h (2 Bft) 100,00 %
31.05.2016 19:58 14,8 C 85 % 1010,4 hPa 0,0 l/m 5,0 km/h (1 Bft) W-SW 257 0 min 0,000 mm 0,0 UV-I 16 W/m 12,3 C 14,8 C 6,4 km/h (2 Bft) 95,65 %
31.05.2016 19:59 14,8 C 85 % 1010,4 hPa 0,0 l/m 4,5 km/h (1 Bft) W-SW 249 0 min 0,000 mm 0,0 UV-I 14 W/m 12,3 C 14,8 C 4,8 km/h (1 Bft) 100,00 %
31.05.2016 20:00 14,8 C 84 % 1010,4 hPa 0,0 l/m 6,1 km/h (2 Bft) SW 231 0 min 0,000 mm 0,0 UV-I 14 W/m 12,1 C 14,8 C 8,0 km/h (2 Bft) 100,00 %
31.05.2016 20:02 14,8 C 84 % 1010,4 hPa 0,0 l/m 5,7 km/h (1 Bft) W-SW 257 0 min 0,025 mm 0,0 UV-I 16 W/m 12,1 C 14,8 C 8,0 km/h (2 Bft) 100,00 %
31.05.2016 20:03 14,9 C 84 % 1010,4 hPa 0,0 l/m 3,4 km/h (1 Bft) W 261 0 min 0,000 mm 0,0 UV-I 16 W/m 12,2 C 14,9 C 4,8 km/h (1 Bft) 100,00 %
31.05.2016 20:04 14,9 C 84 % 1010,4 hPa 0,0 l/m 7,5 km/h (2 Bft) W-SW 257 0 min 0,000 mm 0,0 UV-I 16 W/m 12,2 C 14,3 C 11,3 km/h (2 Bft) 95,65 %
31.05.2016 20:05 14,8 C 83 % 1010,4 hPa 0,0 l/m 5,8 km/h (2 Bft) W-SW 254 0 min 0,000 mm 0,0 UV-I 16 W/m 11,9 C 14,8 C 8,0 km/h (2 Bft) 100,00 %
31.05.2016 20:06 14,8 C 84 % 1010,4 hPa 0,0 l/m 5,8 km/h (2 Bft) W-SW 257 0 min 0,000 mm 0,0 UV-I 16 W/m 12,1 C 14,8 C 8,0 km/h (2 Bft) 95,65 %
31.05.2016 20:07 14,8 C 84 % 1010,4 hPa 0,0 l/m 6,6 km/h (2 Bft) W-SW 258 0 min 0,000 mm 0,0 UV-I 16 W/m 12,1 C 14,7 C 11,3 km/h (2 Bft) 100,00 %
31.05.2016 20:08 14,8 C 84 % 1010,4 hPa 0,0 l/m 4,2 km/h (1 Bft) W-SW 251 0 min 0,000 mm 0,0 UV-I 15 W/m 12,1 C 14,8 C 6,4 km/h (2 Bft) 100,00 %
31.05.2016 20:09 14,8 C 84 % 1010,4 hPa 0,0 l/m 6,9 km/h (2 Bft) W-SW 252 0 min 0,000 mm 0,0 UV-I 14 W/m 12,1 C 14,5 C 9,7 km/h (2 Bft) 100,00 %
31.05.2016 20:10 14,8 C 84 % 1010,4 hPa 0,0 l/m 5,1 km/h (1 Bft) W-SW 244 0 min 0,000 mm 0,0 UV-I 14 W/m 12,1 C 14,8 C 9,7 km/h (2 Bft) 93,33 %
31.05.2016 20:11 14,8 C 84 % 1010,4 hPa 0,0 l/m 5,3 km/h (1 Bft) W-SW 258 0 min 0,000 mm 0,0 UV-I 14 W/m 12,1 C 14,8 C 9,7 km/h (2 Bft) 88,46 %
31.05.2016 20:12 14,8 C 84 % 1010,4 hPa 0,0 l/m 4,8 km/h (1 Bft) W-SW 258 0 min 0,000 mm 0,0 UV-I 14 W/m 12,1 C 14,8 C 6,4 km/h (2 Bft) 100,00 %
31.05.2016 20:13 14,8 C 84 % 1010,4 hPa 0,0 l/m 5,6 km/h (1 Bft) W-SW 244 0 min 0,000 mm 0,0 UV-I 14 W/m 12,1 C 14,8 C 9,7 km/h (2 Bft) 91,30 %
31.05.2016 20:14 14,8 C 84 % 1010,4 hPa 0,0 l/m 5,5 km/h (1 Bft) W-SW 253 0 min 0,000 mm 0,0 UV-I 14 W/m 12,1 C 14,8 C 6,4 km/h (2 Bft) 100,00 %
31.05.2016 20:15 14,8 C 84 % 1010,5 hPa 0,0 l/m 4,6 km/h (1 Bft) W-SW 255 0 min 0,000 mm 0,0 UV-I 14 W/m 12,1 C 14,8 C 6,4 km/h (2 Bft) 100,00 %
31.05.2016 20:16 14,8 C 84 % 1010,5 hPa 0,0 l/m 4,8 km/h (1 Bft) W 278 0 min 0,000 mm 0,0 UV-I 12 W/m 12,1 C 14,8 C 6,4 km/h (2 Bft) 95,83 %
31.05.2016 20:17 14,8 C 84 % 1010,4 hPa 0,0 l/m 5,1 km/h (1 Bft) W-SW 240 0 min 0,000 mm 0,0 UV-I 12 W/m 12,1 C 14,8 C 9,7 km/h (2 Bft) 95,65 %
31.05.2016 20:18 14,8 C 84 % 1010,5 hPa 0,0 l/m 5,5 km/h (1 Bft) W 266 0 min 0,000 mm 0,0 UV-I 12 W/m 12,1 C 14,8 C 8,0 km/h (2 Bft) 100,00 %
31.05.2016 20:19 14,8 C 84 % 1010,4 hPa 0,0 l/m 4,6 km/h (1 Bft) W-SW 254 0 min 0,000 mm 0,0 UV-I 12 W/m 12,1 C 14,8 C 6,4 km/h (2 Bft) 100,00 %
31.05.2016 20:20 14,8 C 85 % 1010,4 hPa 0,0 l/m 3,9 km/h (1 Bft) W-SW 258 0 min 0,000 mm 0,0 UV-I 12 W/m 12,3 C 14,8 C 4,8 km/h (1 Bft) 100,00 %
31.05.2016 20:21 14,8 C 85 % 1010,4 hPa 0,0 l/m 4,2 km/h (1 Bft) W-NW 298 0 min 0,000 mm 0,0 UV-I 12 W/m 12,3 C 14,8 C 6,4 km/h (2 Bft) 95,65 %
31.05.2016 20:22 14,8 C 85 % 1010,5 hPa 0,0 l/m 3,4 km/h (1 Bft) W 261 0 min 0,000 mm 0,0 UV-I 12 W/m 12,3 C 14,8 C 4,8 km/h (1 Bft) 100,00 %
31.05.2016 20:23 14,8 C 85 % 1010,4 hPa 0,0 l/m 5,4 km/h (1 Bft) W-NW 283 0 min 0,000 mm 0,0 UV-I 11 W/m 12,3 C 14,8 C 9,7 km/h (2 Bft) 86,96 %
31.05.2016 20:24 14,8 C 84 % 1010,5 hPa 0,0 l/m 3,7 km/h (1 Bft) W 267 0 min 0,000 mm 0,0 UV-I 9 W/m 12,1 C 14,8 C 4,8 km/h (1 Bft) 100,00 %
31.05.2016 20:25 14,8 C 85 % 1010,5 hPa 0,0 l/m 3,7 km/h (1 Bft) W-NW 288 0 min 0,000 mm 0,0 UV-I 9 W/m 12,3 C 14,8 C 6,4 km/h (2 Bft) 91,30 %
31.05.2016 20:26 14,8 C 84 % 1010,5 hPa 0,0 l/m 2,0 km/h (1 Bft) W 273 0 min 0,000 mm 0,0 UV-I 8 W/m 12,1 C 14,8 C 3,2 km/h (1 Bft) 100,00 %
31.05.2016 20:27 14,8 C 85 % 1010,5 hPa 0,0 l/m 1,3 km/h (1 Bft) W 274 0 min 0,000 mm 0,0 UV-I 7 W/m 12,3 C 14,8 C 3,2 km/h (1 Bft) 91,30 %
31.05.2016 20:28 14,8 C 85 % 1010,5 hPa 0,0 l/m 3,4 km/h (1 Bft) W 281 0 min 0,000 mm 0,0 UV-I 7 W/m 12,3 C 14,8 C 6,4 km/h (2 Bft) 100,00 %
31.05.2016 20:29 14,8 C 85 % 1010,5 hPa 0,0 l/m 4,1 km/h (1 Bft) W 281 0 min 0,000 mm 0,0 UV-I 7 W/m 12,3 C 14,8 C 4,8 km/h (1 Bft) 95,83 %
31.05.2016 20:30 14,8 C 85 % 1010,5 hPa 0,0 l/m 3,6 km/h (1 Bft) W 269 0 min 0,000 mm 0,0 UV-I 7 W/m 12,3 C 14,8 C 4,8 km/h (1 Bft) 95,65 %
31.05.2016 20:31 14,8 C 85 % 1010,5 hPa 0,0 l/m 6,6 km/h (2 Bft) W 272 0 min 0,000 mm 0,0 UV-I 6 W/m 12,3 C 14,7 C 12,9 km/h (3 Bft) 91,67 %
31.05.2016 20:32 14,8 C 85 % 1010,6 hPa 0,0 l/m 4,2 km/h (1 Bft) W 281 0 min 0,000 mm 0,0 UV-I 5 W/m 12,3 C 14,8 C 12,9 km/h (3 Bft) 100,00 %
31.05.2016 20:33 14,8 C 85 % 1010,6 hPa 0,0 l/m 2,7 km/h (1 Bft) W 275 0 min 0,000 mm 0,0 UV-I 5 W/m 12,3 C 14,8 C 4,8 km/h (1 Bft) 95,83 %
31.05.2016 20:34 14,8 C 85 % 1010,6 hPa 0,0 l/m 6,6 km/h (2 Bft) W-SW 243 0 min 0,000 mm 0,0 UV-I 5 W/m 12,3 C 14,7 C 12,9 km/h (3 Bft) 91,30 %
31.05.2016 20:35 14,8 C 84 % 1010,6 hPa 0,0 l/m 3,9 km/h (1 Bft) W-NW 290 0 min 0,000 mm 0,0 UV-I 5 W/m 12,1 C 14,8 C 6,4 km/h (2 Bft) 100,00 %
31.05.2016 20:36 14,8 C 84 % 1010,6 hPa 0,0 l/m 4,4 km/h (1 Bft) W-SW 250 0 min 0,000 mm 0,0 UV-I 5 W/m 12,1 C 14,8 C 9,7 km/h (2 Bft) 91,30 %
31.05.2016 20:37 14,8 C 85 % 1010,6 hPa 0,0 l/m 5,3 km/h (1 Bft) W-SW 248 0 min 0,000 mm 0,0 UV-I 3 W/m 12,3 C 14,8 C 8,0 km/h (2 Bft) 95,83 %
31.05.2016 20:38 14,8 C 84 % 1010,6 hPa 0,0 l/m 5,5 km/h (1 Bft) W-SW 257 0 min 0,000 mm 0,0 UV-I 0 W/m 12,1 C 14,8 C 8,0 km/h (2 Bft) 91,30 %
31.05.2016 20:39 14,8 C 84 % 1010,6 hPa 0,0 l/m 4,4 km/h (1 Bft) W-NW 288 0 min 0,000 mm 0,0 UV-I 0 W/m 12,1 C 14,8 C 8,0 km/h (2 Bft) 100,00 %
31.05.2016 20:40 14,8 C 84 % 1010,6 hPa 0,0 l/m 3,7 km/h (1 Bft) W 275 0 min 0,000 mm 0,0 UV-I 5 W/m 12,1 C 14,8 C 6,4 km/h (2 Bft) 95,65 %
31.05.2016 20:41 14,8 C 84 % 1010,6 hPa 0,0 l/m 5,0 km/h (1 Bft) SW 230 0 min 0,000 mm 0,0 UV-I 4 W/m 12,1 C 14,8 C 9,7 km/h (2 Bft) 95,83 %
31.05.2016 20:42 14,8 C 83 % 1010,6 hPa 0,0 l/m 4,2 km/h (1 Bft) W-SW 239 0 min 0,000 mm 0,0 UV-I 0 W/m 11,9 C 14,8 C 6,4 km/h (2 Bft) 100,00 %
31.05.2016 20:43 14,8 C 84 % 1010,6 hPa 0,0 l/m 2,9 km/h (1 Bft) W-SW 258 0 min 0,000 mm 0,0 UV-I 0 W/m 12,1 C 14,8 C 4,8 km/h (1 Bft) 95,83 %
31.05.2016 20:44 14,8 C 83 % 1010,7 hPa 0,0 l/m 6,4 km/h (2 Bft) W-SW 247 0 min 0,000 mm 0,0 UV-I 0 W/m 11,9 C 14,8 C 11,3 km/h (2 Bft) 95,65 %
31.05.2016 20:45 14,8 C 83 % 1010,7 hPa 0,0 l/m 4,3 km/h (1 Bft) SW 219 0 min 0,000 mm 0,0 UV-I 0 W/m 11,9 C 14,8 C 8,0 km/h (2 Bft) 95,83 %
31.05.2016 20:46 14,8 C 84 % 1010,7 hPa 0,0 l/m 5,8 km/h (2 Bft) W-NW 286 0 min 0,000 mm 0,0 UV-I 0 W/m 12,1 C 14,8 C 11,3 km/h (2 Bft) 100,00 %
31.05.2016 20:47 14,8 C 83 % 1010,7 hPa 0,0 l/m 4,8 km/h (1 Bft) W 275 0 min 0,000 mm 0,0 UV-I 0 W/m 11,9 C 14,8 C 9,7 km/h (2 Bft) 95,83 %
31.05.2016 20:48 14,8 C 83 % 1010,7 hPa 0,0 l/m 5,4 km/h (1 Bft) W 267 0 min 0,000 mm 0,0 UV-I 0 W/m 11,9 C 14,8 C 11,3 km/h (2 Bft) 100,00 %
31.05.2016 20:49 14,8 C 83 % 1010,7 hPa 0,0 l/m 6,4 km/h (2 Bft) W-SW 245 0 min 0,000 mm 0,0 UV-I 0 W/m 11,9 C 14,8 C 9,7 km/h (2 Bft) 95,65 %
31.05.2016 20:50 14,7 C 83 % 1010,8 hPa 0,0 l/m 7,6 km/h (2 Bft) W-NW 290 0 min 0,000 mm 0,0 UV-I 0 W/m 11,8 C 14,0 C 12,9 km/h (3 Bft) 91,67 %
31.05.2016 20:51 14,7 C 83 % 1010,7 hPa 0,0 l/m 7,2 km/h (2 Bft) SW 234 0 min 0,000 mm 0,0 UV-I 0 W/m 11,8 C 14,2 C 14,5 km/h (3 Bft) 95,65 %
31.05.2016 20:52 14,7 C 83 % 1010,7 hPa 0,0 l/m 8,9 km/h (2 Bft) W-SW 254 0 min 0,000 mm 0,0 UV-I 0 W/m 11,8 C 13,3 C 12,9 km/h (3 Bft) 95,83 %
31.05.2016 20:53 14,7 C 83 % 1010,7 hPa 0,0 l/m 8,8 km/h (2 Bft) SW 233 0 min 0,000 mm 0,0 UV-I 0 W/m 11,8 C 13,4 C 12,9 km/h (3 Bft) 100,00 %
31.05.2016 20:54 14,7 C 83 % 1010,8 hPa 0,0 l/m 9,2 km/h (2 Bft) W 278 0 min 0,000 mm 0,0 UV-I 0 W/m 11,8 C 13,2 C 16,1 km/h (3 Bft) 95,83 %
31.05.2016 20:55 14,6 C 83 % 1010,8 hPa 0,0 l/m 12,1 km/h (2 Bft) W-NW 291 0 min 0,000 mm 0,0 UV-I 0 W/m 11,7 C 11,8 C 19,3 km/h (3 Bft) 91,30 %
31.05.2016 20:56 14,6 C 83 % 1010,8 hPa 0,0 l/m 10,3 km/h (2 Bft) SW 223 0 min 0,000 mm 0,0 UV-I 0 W/m 11,7 C 12,5 C 16,1 km/h (3 Bft) 95,83 %
31.05.2016 20:57 14,6 C 83 % 1010,8 hPa 0,0 l/m 9,3 km/h (2 Bft) W 269 0 min 0,000 mm 0,0 UV-I 0 W/m 11,7 C 13,0 C 12,9 km/h (3 Bft) 100,00 %
31.05.2016 20:58 14,5 C 83 % 1010,8 hPa 0,0 l/m 8,4 km/h (2 Bft) W-SW 247 0 min 0,000 mm 0,0 UV-I 0 W/m 11,6 C 13,4 C 16,1 km/h (3 Bft) 100,00 %
31.05.2016 20:59 14,4 C 84 % 1010,8 hPa 0,0 l/m 7,4 km/h (2 Bft) W 275 0 min 0,000 mm 0,0 UV-I 0 W/m 11,7 C 13,8 C 14,5 km/h (3 Bft) 91,30 %
31.05.2016 21:00 14,4 C 84 % 1010,8 hPa 0,0 l/m 7,8 km/h (2 Bft) W-SW 258 0 min 0,000 mm 0,0 UV-I 0 W/m 11,7 C 13,6 C 12,9 km/h (3 Bft) 100,00 %
31.05.2016 21:02 14,3 C 85 % 1010,9 hPa 0,0 l/m 10,5 km/h (2 Bft) W 268 0 min 0,025 mm 0,0 UV-I 0 W/m 11,8 C 12,1 C 17,7 km/h (3 Bft) 97,87 %
31.05.2016 21:03 14,3 C 85 % 1010,9 hPa 0,0 l/m 7,6 km/h (2 Bft) SW 219 0 min 0,000 mm 0,0 UV-I 0 W/m 11,8 C 13,6 C 12,9 km/h (3 Bft) 100,00 %
31.05.2016 21:04 14,2 C 85 % 1010,9 hPa 0,0 l/m 10,5 km/h (2 Bft) W-SW 238 0 min 0,000 mm 0,0 UV-I 0 W/m 11,7 C 12,0 C 16,1 km/h (3 Bft) 100,00 %
31.05.2016 21:05 14,2 C 86 % 1010,9 hPa 0,0 l/m 8,9 km/h (2 Bft) W-SW 242 0 min 0,000 mm 0,0 UV-I 0 W/m 11,9 C 12,8 C 14,5 km/h (3 Bft) 100,00 %
31.05.2016 21:06 14,1 C 86 % 1010,9 hPa 0,0 l/m 11,7 km/h (2 Bft) W-SW 242 0 min 0,000 mm 0,0 UV-I 0 W/m 11,8 C 11,4 C 17,7 km/h (3 Bft) 100,00 %
31.05.2016 21:07 14,1 C 87 % 1010,9 hPa 0,0 l/m 12,6 km/h (3 Bft) W-SW 242 0 min 0,000 mm 0,0 UV-I 0 W/m 12,0 C 11,0 C 19,3 km/h (3 Bft) 100,00 %
31.05.2016 21:08 14,0 C 87 % 1010,9 hPa 0,0 l/m 13,1 km/h (3 Bft) W-SW 255 0 min 0,000 mm 0,0 UV-I 0 W/m 11,9 C 10,7 C 19,3 km/h (3 Bft) 95,65 %
31.05.2016 21:09 13,9 C 87 % 1010,9 hPa 0,0 l/m 10,6 km/h (2 Bft) W-SW 250 0 min 0,000 mm 0,0 UV-I 0 W/m 11,8 C 11,6 C 14,5 km/h (3 Bft) 100,00 %
31.05.2016 21:10 13,9 C 87 % 1010,9 hPa 0,0 l/m 8,6 km/h (2 Bft) W-SW 258 0 min 0,000 mm 0,0 UV-I 0 W/m 11,8 C 12,6 C 12,9 km/h (3 Bft) 100,00 %
31.05.2016 21:11 13,8 C 88 % 1010,9 hPa 0,0 l/m 8,0 km/h (2 Bft) W 263 0 min 0,000 mm 0,0 UV-I 0 W/m 11,8 C 12,8 C 12,9 km/h (3 Bft) 100,00 %
31.05.2016 21:12 13,8 C 88 % 1010,9 hPa 0,0 l/m 6,4 km/h (2 Bft) W-SW 256 0 min 0,000 mm 0,0 UV-I 0 W/m 11,8 C 13,8 C 11,3 km/h (2 Bft) 100,00 %
31.05.2016 21:13 13,7 C 89 % 1010,9 hPa 0,0 l/m 7,9 km/h (2 Bft) W-SW 239 0 min 0,000 mm 0,0 UV-I 0 W/m 11,9 C 12,8 C 11,3 km/h (2 Bft) 100,00 %
31.05.2016 21:14 13,7 C 89 % 1010,9 hPa 0,0 l/m 6,1 km/h (2 Bft) W-SW 252 0 min 0,000 mm 0,0 UV-I 0 W/m 11,9 C 13,7 C 8,0 km/h (2 Bft) 100,00 %
31.05.2016 21:15 13,7 C 89 % 1010,9 hPa 0,0 l/m 5,3 km/h (1 Bft) W-SW 257 0 min 0,000 mm 0,0 UV-I 0 W/m 11,9 C 13,7 C 6,4 km/h (2 Bft) 100,00 %
31.05.2016 21:16 13,7 C 90 % 1010,9 hPa 0,0 l/m 4,0 km/h (1 Bft) W 265 0 min 0,000 mm 0,0 UV-I 0 W/m 12,1 C 13,7 C 4,8 km/h (1 Bft) 100,00 %
31.05.2016 21:17 13,6 C 90 % 1011,0 hPa 0,0 l/m 3,4 km/h (1 Bft) W 262 0 min 0,000 mm 0,0 UV-I 0 W/m 12,0 C 13,6 C 4,8 km/h (1 Bft) 100,00 %
31.05.2016 21:18 13,6 C 90 % 1011,0 hPa 0,0 l/m 4,5 km/h (1 Bft) W 264 0 min 0,000 mm 0,0 UV-I 0 W/m 12,0 C 13,6 C 6,4 km/h (2 Bft) 100,00 %
31.05.2016 21:19 13,6 C 90 % 1011,0 hPa 0,0 l/m 1,1 km/h (1 Bft) W 264 0 min 0,000 mm 0,0 UV-I 0 W/m 12,0 C 13,6 C 3,2 km/h (1 Bft) 100,00 %
31.05.2016 21:20 13,6 C 90 % 1011,0 hPa 0,0 l/m 2,7 km/h (1 Bft) W 264 0 min 0,000 mm 0,0 UV-I 0 W/m 12,0 C 13,6 C 4,8 km/h (1 Bft) 100,00 %
31.05.2016 21:21 13,6 C 90 % 1011,0 hPa 0,0 l/m 2,7 km/h (1 Bft) W 264 0 min 0,000 mm 0,0 UV-I 0 W/m 12,0 C 13,6 C 3,2 km/h (1 Bft) 100,00 %
31.05.2016 21:22 13,6 C 90 % 1011,0 hPa 0,0 l/m 1,9 km/h (1 Bft) W 264 0 min 0,000 mm 0,0 UV-I 0 W/m 12,0 C 13,6 C 3,2 km/h (1 Bft) 95,65 %
31.05.2016 21:23 13,6 C 90 % 1011,0 hPa 0,0 l/m 1,9 km/h (1 Bft) W 264 0 min 0,000 mm 0,0 UV-I 0 W/m 12,0 C 13,6 C 3,2 km/h (1 Bft) 100,00 %
31.05.2016 21:24 13,6 C 90 % 1011,0 hPa 0,0 l/m 1,9 km/h (1 Bft) W 264 0 min 0,000 mm 0,0 UV-I 0 W/m 12,0 C 13,6 C 3,2 km/h (1 Bft) 95,65 %
31.05.2016 21:25 13,6 C 90 % 1011,1 hPa 0,0 l/m 2,1 km/h (1 Bft) W 264 0 min 0,000 mm 0,0 UV-I 0 W/m 12,0 C 13,6 C 3,2 km/h (1 Bft) 100,00 %
31.05.2016 21:26 13,6 C 90 % 1011,0 hPa 0,0 l/m 1,9 km/h (1 Bft) W 264 0 min 0,000 mm 0,0 UV-I 0 W/m 12,0 C 13,6 C 3,2 km/h (1 Bft) 100,00 %
31.05.2016 21:27 13,6 C 90 % 1011,0 hPa 0,0 l/m 1,5 km/h (1 Bft) W 264 0 min 0,000 mm 0,0 UV-I 0 W/m 12,0 C 13,6 C 3,2 km/h (1 Bft) 100,00 %
31.05.2016 21:28 13,6 C 90 % 1011,0 hPa 0,0 l/m 1,0 km/h (0 Bft) W 264 0 min 0,000 mm 0,0 UV-I 0 W/m 12,0 C 13,6 C 1,6 km/h (1 Bft) 100,00 %
31.05.2016 21:29 13,6 C 90 % 1011,0 hPa 0,0 l/m 0,5 km/h (0 Bft) W 264 0 min 0,000 mm 0,0 UV-I 0 W/m 12,0 C 13,6 C 1,6 km/h (1 Bft) 100,00 %
31.05.2016 21:30 13,6 C 90 % 1011,0 hPa 0,0 l/m 1,0 km/h (0 Bft) W 264 0 min 0,000 mm 0,0 UV-I 0 W/m 12,0 C 13,6 C 1,6 km/h (1 Bft) 95,83 %
31.05.2016 21:31 13,6 C 90 % 1011,0 hPa 0,0 l/m 0,7 km/h (0 Bft) W 264 0 min 0,000 mm 0,0 UV-I 0 W/m 12,0 C 13,6 C 1,6 km/h (1 Bft) 100,00 %
31.05.2016 21:32 13,6 C 91 % 1011,0 hPa 0,0 l/m 0,4 km/h (0 Bft) W 264 0 min 0,000 mm 0,0 UV-I 0 W/m 12,2 C 13,6 C 1,6 km/h (1 Bft) 100,00 %
31.05.2016 21:33 13,6 C 91 % 1011,0 hPa 0,0 l/m 1,3 km/h (1 Bft) W 264 0 min 0,000 mm 0,0 UV-I 0 W/m 12,2 C 13,6 C 3,2 km/h (1 Bft) 96,15 %
31.05.2016 21:34 13,6 C 91 % 1011,1 hPa 0,0 l/m 0,3 km/h (0 Bft) W 264 0 min 0,000 mm 0,0 UV-I 0 W/m 12,2 C 13,6 C 1,6 km/h (1 Bft) 95,83 %
31.05.2016 21:35 13,6 C 91 % 1011,0 hPa 0,0 l/m 0,3 km/h (0 Bft) W 264 0 min 0,000 mm 0,0 UV-I 0 W/m 12,2 C 13,6 C 1,6 km/h (1 Bft) 100,00 %
31.05.2016 21:36 13,6 C 90 % 1011,0 hPa 0,0 l/m 1,3 km/h (1 Bft) W-SW 251 0 min 0,000 mm 0,0 UV-I 0 W/m 12,0 C 13,6 C 3,2 km/h (1 Bft) 100,00 %
31.05.2016 21:37 13,6 C 90 % 1011,0 hPa 0,0 l/m 1,9 km/h (1 Bft) W-SW 250 0 min 0,000 mm 0,0 UV-I 0 W/m 12,0 C 13,6 C 3,2 km/h (1 Bft) 100,00 %
31.05.2016 21:38 13,6 C 91 % 1011,0 hPa 0,0 l/m 1,8 km/h (1 Bft) W-SW 250 0 min 0,000 mm 0,0 UV-I 0 W/m 12,2 C 13,6 C 3,2 km/h (1 Bft) 100,00 %
31.05.2016 21:39 13,7 C 91 % 1011,0 hPa 0,0 l/m 1,3 km/h (1 Bft) W-SW 250 0 min 0,000 mm 0,0 UV-I 0 W/m 12,3 C 13,7 C 3,2 km/h (1 Bft) 91,30 %
31.05.2016 21:40 13,7 C 91 % 1011,0 hPa 0,0 l/m 1,6 km/h (1 Bft) W-SW 250 0 min 0,000 mm 0,0 UV-I 0 W/m 12,3 C 13,7 C 3,2 km/h (1 Bft) 100,00 %
31.05.2016 21:41 13,6 C 91 % 1011,0 hPa 0,0 l/m 1,1 km/h (1 Bft) W-SW 250 0 min 0,000 mm 0,0 UV-I 0 W/m 12,2 C 13,6 C 3,2 km/h (1 Bft) 100,00 %
31.05.2016 21:42 13,6 C 91 % 1011,0 hPa 0,0 l/m 1,1 km/h (1 Bft) W-SW 250 0 min 0,000 mm 0,0 UV-I 0 W/m 12,2 C 13,6 C 3,2 km/h (1 Bft) 100,00 %
31.05.2016 21:43 13,6 C 91 % 1011,0 hPa 0,0 l/m 1,7 km/h (1 Bft) W-SW 248 0 min 0,000 mm 0,0 UV-I 0 W/m 12,2 C 13,6 C 3,2 km/h (1 Bft) 100,00 %
31.05.2016 21:44 13,6 C 91 % 1011,0 hPa 0,0 l/m 3,0 km/h (1 Bft) W-SW 248 0 min 0,000 mm 0,0 UV-I 0 W/m 12,2 C 13,6 C 3,2 km/h (1 Bft) 100,00 %
31.05.2016 21:45 13,6 C 91 % 1011,0 hPa 0,0 l/m 2,3 km/h (1 Bft) W-SW 248 0 min 0,000 mm 0,0 UV-I 0 W/m 12,2 C 13,6 C 3,2 km/h (1 Bft) 100,00 %
31.05.2016 21:46 13,6 C 92 % 1011,0 hPa 0,0 l/m 2,9 km/h (1 Bft) W-SW 248 0 min 0,000 mm 0,0 UV-I 0 W/m 12,3 C 13,6 C 4,8 km/h (1 Bft) 100,00 %
31.05.2016 21:47 13,6 C 91 % 1011,0 hPa 0,0 l/m 3,3 km/h (1 Bft) W-SW 242 0 min 0,000 mm 0,0 UV-I 0 W/m 12,2 C 13,6 C 4,8 km/h (1 Bft) 100,00 %
31.05.2016 21:48 13,6 C 91 % 1011,0 hPa 0,0 l/m 3,0 km/h (1 Bft) SW 233 0 min 0,000 mm 0,0 UV-I 0 W/m 12,2 C 13,6 C 4,8 km/h (1 Bft) 100,00 %
31.05.2016 21:49 13,5 C 91 % 1011,0 hPa 0,0 l/m 2,5 km/h (1 Bft) S-SW 211 0 min 0,000 mm 0,0 UV-I 0 W/m 12,1 C 13,5 C 4,8 km/h (1 Bft) 100,00 %
31.05.2016 21:50 13,6 C 91 % 1011,0 hPa 0,0 l/m 3,6 km/h (1 Bft) S-SW 205 0 min 0,000 mm 0,0 UV-I 0 W/m 12,2 C 13,6 C 4,8 km/h (1 Bft) 95,65 %
31.05.2016 21:51 13,6 C 90 % 1011,0 hPa 0,0 l/m 3,5 km/h (1 Bft) SW 224 0 min 0,000 mm 0,0 UV-I 0 W/m 12,0 C 13,6 C 4,8 km/h (1 Bft) 100,00 %
31.05.2016 21:52 13,6 C 90 % 1011,0 hPa 0,0 l/m 3,1 km/h (1 Bft) SW 223 0 min 0,000 mm 0,0 UV-I 0 W/m 12,0 C 13,6 C 4,8 km/h (1 Bft) 95,65 %
31.05.2016 21:53 13,6 C 90 % 1011,1 hPa 0,0 l/m 2,5 km/h (1 Bft) SW 222 0 min 0,000 mm 0,0 UV-I 0 W/m 12,0 C 13,6 C 3,2 km/h (1 Bft) 100,00 %
31.05.2016 21:54 13,6 C 90 % 1011,1 hPa 0,0 l/m 3,4 km/h (1 Bft) SW 221 0 min 0,000 mm 0,0 UV-I 0 W/m 12,0 C 13,6 C 4,8 km/h (1 Bft) 95,65 %
31.05.2016 21:55 13,6 C 90 % 1011,1 hPa 0,0 l/m 1,7 km/h (1 Bft) SW 221 0 min 0,000 mm 0,0 UV-I 0 W/m 12,0 C 13,6 C 3,2 km/h (1 Bft) 95,83 %
31.05.2016 21:56 13,6 C 91 % 1011,1 hPa 0,0 l/m 1,1 km/h (1 Bft) SW 221 0 min 0,000 mm 0,0 UV-I 0 W/m 12,2 C 13,6 C 1,6 km/h (1 Bft) 100,00 %
31.05.2016 21:57 13,6 C 91 % 1011,1 hPa 0,0 l/m 1,3 km/h (1 Bft) SW 221 0 min 0,000 mm 0,0 UV-I 0 W/m 12,2 C 13,6 C 3,2 km/h (1 Bft) 100,00 %
31.05.2016 21:58 13,6 C 91 % 1011,0 hPa 0,0 l/m 0,1 km/h (0 Bft) SW 221 0 min 0,000 mm 0,0 UV-I 0 W/m 12,2 C 13,6 C 1,6 km/h (1 Bft) 95,65 %
31.05.2016 21:59 13,6 C 91 % 1011,1 hPa 0,0 l/m 1,1 km/h (1 Bft) SW 221 0 min 0,000 mm 0,0 UV-I 0 W/m 12,2 C 13,6 C 3,2 km/h (1 Bft) 95,83 %
31.05.2016 22:00 13,6 C 91 % 1011,0 hPa 0,0 l/m 2,1 km/h (1 Bft) SW 221 0 min 0,000 mm 0,0 UV-I 0 W/m 12,2 C 13,6 C 3,2 km/h (1 Bft) 100,00 %
31.05.2016 22:02 13,6 C 91 % 1011,1 hPa 0,0 l/m 0,7 km/h (0 Bft) SW 221 0 min 0,000 mm 0,0 UV-I 0 W/m 12,2 C 13,6 C 3,2 km/h (1 Bft) 100,00 %
31.05.2016 22:03 13,6 C 91 % 1011,1 hPa 0,0 l/m 1,6 km/h (1 Bft) SW 221 0 min 0,000 mm 0,0 UV-I 0 W/m 12,2 C 13,6 C 3,2 km/h (1 Bft) 100,00 %
31.05.2016 22:04 13,6 C 91 % 1011,0 hPa 0,0 l/m 1,3 km/h (1 Bft) SW 221 0 min 0,000 mm 0,0 UV-I 0 W/m 12,2 C 13,6 C 1,6 km/h (1 Bft) 100,00 %
31.05.2016 22:05 13,6 C 91 % 1011,0 hPa 0,0 l/m 1,0 km/h (0 Bft) SW 221 0 min 0,000 mm 0,0 UV-I 0 W/m 12,2 C 13,6 C 1,6 km/h (1 Bft) 100,00 %
31.05.2016 22:06 13,6 C 91 % 1011,0 hPa 0,0 l/m 0,6 km/h (0 Bft) SW 221 0 min 0,000 mm 0,0 UV-I 0 W/m 12,2 C 13,6 C 1,6 km/h (1 Bft) 100,00 %
31.05.2016 22:07 13,6 C 91 % 1011,0 hPa 0,0 l/m 2,1 km/h (1 Bft) SW 221 0 min 0,000 mm 0,0 UV-I 0 W/m 12,2 C 13,6 C 3,2 km/h (1 Bft) 95,83 %
31.05.2016 22:08 13,6 C 91 % 1011,0 hPa 0,0 l/m 1,3 km/h (1 Bft) W-SW 237 0 min 0,000 mm 0,0 UV-I 0 W/m 12,2 C 13,6 C 3,2 km/h (1 Bft) 100,00 %
31.05.2016 22:09 13,6 C 91 % 1011,0 hPa 0,0 l/m 2,3 km/h (1 Bft) W-SW 237 0 min 0,000 mm 0,0 UV-I 0 W/m 12,2 C 13,6 C 3,2 km/h (1 Bft) 100,00 %
31.05.2016 22:10 13,6 C 91 % 1011,0 hPa 0,0 l/m 1,4 km/h (1 Bft) W-SW 237 0 min 0,000 mm 0,0 UV-I 0 W/m 12,2 C 13,6 C 3,2 km/h (1 Bft) 100,00 %
31.05.2016 22:11 13,6 C 90 % 1010,9 hPa 0,0 l/m 1,0 km/h (0 Bft) W-SW 237 0 min 0,000 mm 0,0 UV-I 0 W/m 12,0 C 13,6 C 1,6 km/h (1 Bft) 100,00 %
31.05.2016 22:12 13,6 C 90 % 1010,9 hPa 0,0 l/m 1,0 km/h (0 Bft) W-SW 237 0 min 0,000 mm 0,0 UV-I 0 W/m 12,0 C 13,6 C 1,6 km/h (1 Bft) 100,00 %
31.05.2016 22:13 13,6 C 91 % 1010,9 hPa 0,0 l/m 0,0 km/h (0 Bft) W-SW 237 0 min 0,000 mm 0,0 UV-I 0 W/m 12,2 C 13,6 C 0,0 km/h (0 Bft) 95,65 %
31.05.2016 22:14 13,6 C 91 % 1010,9 hPa 0,0 l/m 1,0 km/h (0 Bft) W-SW 237 0 min 0,000 mm 0,0 UV-I 0 W/m 12,2 C 13,6 C 1,6 km/h (1 Bft) 100,00 %
31.05.2016 22:15 13,6 C 91 % 1010,9 hPa 0,0 l/m 1,2 km/h (1 Bft) W-SW 237 0 min 0,000 mm 0,0 UV-I 0 W/m 12,2 C 13,6 C 1,6 km/h (1 Bft) 100,00 %
31.05.2016 22:16 13,6 C 91 % 1010,9 hPa 0,0 l/m 1,3 km/h (1 Bft) W-SW 237 0 min 0,000 mm 0,0 UV-I 0 W/m 12,2 C 13,6 C 1,6 km/h (1 Bft) 100,00 %
31.05.2016 22:17 13,6 C 91 % 1010,9 hPa 0,0 l/m 0,9 km/h (0 Bft) W-SW 237 0 min 0,000 mm 0,0 UV-I 0 W/m 12,2 C 13,6 C 1,6 km/h (1 Bft) 100,00 %
31.05.2016 22:18 13,7 C 91 % 1011,0 hPa 0,0 l/m 0,7 km/h (0 Bft) W-SW 237 0 min 0,000 mm 0,0 UV-I 0 W/m 12,3 C 13,7 C 1,6 km/h (1 Bft) 95,83 %
31.05.2016 22:19 13,7 C 91 % 1011,1 hPa 0,0 l/m 0,1 km/h (0 Bft) W-SW 237 0 min 0,000 mm 0,0 UV-I 0 W/m 12,3 C 13,7 C 1,6 km/h (1 Bft) 95,65 %
31.05.2016 22:20 13,7 C 91 % 1011,0 hPa 0,0 l/m 0,0 km/h (0 Bft) W-SW 237 0 min 0,000 mm 0,0 UV-I 0 W/m 12,3 C 13,7 C 0,0 km/h (0 Bft) 100,00 %
31.05.2016 22:21 13,7 C 91 % 1011,1 hPa 0,0 l/m 0,0 km/h (0 Bft) W-SW 237 0 min 0,000 mm 0,0 UV-I 0 W/m 12,3 C 13,7 C 0,0 km/h (0 Bft) 100,00 %
31.05.2016 22:22 13,7 C 91 % 1011,1 hPa 0,0 l/m 0,3 km/h (0 Bft) W-SW 237 0 min 0,000 mm 0,0 UV-I 0 W/m 12,3 C 13,7 C 1,6 km/h (1 Bft) 95,83 %
31.05.2016 22:23 13,7 C 91 % 1011,1 hPa 0,0 l/m 0,9 km/h (0 Bft) W-SW 237 0 min 0,000 mm 0,0 UV-I 0 W/m 12,3 C 13,7 C 1,6 km/h (1 Bft) 91,30 %
31.05.2016 22:24 13,7 C 91 % 1011,1 hPa 0,0 l/m 1,2 km/h (1 Bft) W-SW 237 0 min 0,000 mm 0,0 UV-I 0 W/m 12,3 C 13,7 C 1,6 km/h (1 Bft) 100,00 %
31.05.2016 22:25 13,7 C 91 % 1011,1 hPa 0,0 l/m 2,1 km/h (1 Bft) W-SW 238 0 min 0,000 mm 0,0 UV-I 0 W/m 12,3 C 13,7 C 3,2 km/h (1 Bft) 86,67 %
31.05.2016 22:26 13,6 C 91 % 1011,1 hPa 0,0 l/m 1,3 km/h (1 Bft) W-SW 238 0 min 0,000 mm 0,0 UV-I 0 W/m 12,2 C 13,6 C 1,6 km/h (1 Bft) 100,00 %
31.05.2016 22:27 13,6 C 91 % 1011,0 hPa 0,0 l/m 2,0 km/h (1 Bft) W-SW 238 0 min 0,000 mm 0,0 UV-I 0 W/m 12,2 C 13,6 C 3,2 km/h (1 Bft) 95,83 %
31.05.2016 22:28 13,6 C 91 % 1011,1 hPa 0,0 l/m 3,6 km/h (1 Bft) W-SW 238 0 min 0,000 mm 0,0 UV-I 0 W/m 12,2 C 13,6 C 4,8 km/h (1 Bft) 100,00 %
31.05.2016 22:29 13,6 C 91 % 1011,0 hPa 0,0 l/m 2,7 km/h (1 Bft) W-SW 238 0 min 0,000 mm 0,0 UV-I 0 W/m 12,2 C 13,6 C 4,8 km/h (1 Bft) 95,83 %
31.05.2016 22:30 13,6 C 91 % 1011,0 hPa 0,0 l/m 1,3 km/h (1 Bft) W-SW 238 0 min 0,000 mm 0,0 UV-I 0 W/m 12,2 C 13,6 C 1,6 km/h (1 Bft) 95,65 %
31.05.2016 22:31 13,6 C 91 % 1011,0 hPa 0,0 l/m 1,0 km/h (0 Bft) W-SW 238 0 min 0,000 mm 0,0 UV-I 0 W/m 12,2 C 13,6 C 1,6 km/h (1 Bft) 95,83 %
31.05.2016 22:32 13,6 C 92 % 1011,0 hPa 0,0 l/m 2,9 km/h (1 Bft) W-SW 238 0 min 0,000 mm 0,0 UV-I 0 W/m 12,3 C 13,6 C 4,8 km/h (1 Bft) 92,31 %
31.05.2016 22:33 13,6 C 92 % 1011,0 hPa 0,0 l/m 1,5 km/h (1 Bft) W-SW 238 0 min 0,000 mm 0,0 UV-I 0 W/m 12,3 C 13,6 C 3,2 km/h (1 Bft) 91,67 %
31.05.2016 22:34 13,6 C 92 % 1010,9 hPa 0,0 l/m 1,1 km/h (1 Bft) W-SW 238 0 min 0,000 mm 0,0 UV-I 0 W/m 12,3 C 13,6 C 1,6 km/h (1 Bft) 96,15 %
31.05.2016 22:35 13,6 C 92 % 1011,0 hPa 0,0 l/m 1,5 km/h (1 Bft) W-SW 238 0 min 0,000 mm 0,0 UV-I 0 W/m 12,3 C 13,6 C 3,2 km/h (1 Bft) 100,00 %
31.05.2016 22:36 13,5 C 92 % 1010,9 hPa 0,0 l/m 1,5 km/h (1 Bft) W-SW 238 0 min 0,000 mm 0,0 UV-I 0 W/m 12,2 C 13,5 C 3,2 km/h (1 Bft) 95,65 %
31.05.2016 22:37 13,5 C 92 % 1011,0 hPa 0,0 l/m 1,0 km/h (0 Bft) W-SW 238 0 min 0,000 mm 0,0 UV-I 0 W/m 12,2 C 13,5 C 3,2 km/h (1 Bft) 100,00 %
31.05.2016 22:38 13,5 C 92 % 1010,9 hPa 0,0 l/m 1,9 km/h (1 Bft) W-SW 238 0 min 0,000 mm 0,0 UV-I 0 W/m 12,2 C 13,5 C 3,2 km/h (1 Bft) 95,65 %
31.05.2016 22:39 13,5 C 92 % 1011,0 hPa 0,0 l/m 2,5 km/h (1 Bft) W-SW 239 0 min 0,000 mm 0,0 UV-I 0 W/m 12,2 C 13,5 C 4,8 km/h (1 Bft) 95,83 %
31.05.2016 22:40 13,5 C 92 % 1011,0 hPa 0,0 l/m 2,9 km/h (1 Bft) W-SW 239 0 min 0,000 mm 0,0 UV-I 0 W/m 12,2 C 13,5 C 4,8 km/h (1 Bft) 95,65 %
31.05.2016 22:41 13,5 C 92 % 1011,0 hPa 0,0 l/m 0,9 km/h (0 Bft) W-SW 239 0 min 0,000 mm 0,0 UV-I 0 W/m 12,2 C 13,5 C 1,6 km/h (1 Bft) 100,00 %
31.05.2016 22:42 13,5 C 92 % 1011,0 hPa 0,0 l/m 1,5 km/h (1 Bft) W-SW 239 0 min 0,000 mm 0,0 UV-I 0 W/m 12,2 C 13,5 C 3,2 km/h (1 Bft) 91,30 %
31.05.2016 22:43 13,5 C 91 % 1011,0 hPa 0,0 l/m 1,6 km/h (1 Bft) W-SW 239 0 min 0,000 mm 0,0 UV-I 0 W/m 12,1 C 13,5 C 3,2 km/h (1 Bft) 95,83 %
31.05.2016 22:44 13,4 C 91 % 1011,0 hPa 0,0 l/m 2,4 km/h (1 Bft) W 270 0 min 0,000 mm 0,0 UV-I 0 W/m 12,0 C 13,4 C 4,8 km/h (1 Bft) 95,65 %
31.05.2016 22:45 13,4 C 91 % 1011,0 hPa 0,0 l/m 3,0 km/h (1 Bft) W 271 0 min 0,000 mm 0,0 UV-I 0 W/m 12,0 C 13,4 C 3,2 km/h (1 Bft) 95,83 %
31.05.2016 22:46 13,4 C 91 % 1011,1 hPa 0,0 l/m 2,0 km/h (1 Bft) W 273 0 min 0,000 mm 0,0 UV-I 0 W/m 12,0 C 13,4 C 3,2 km/h (1 Bft) 100,00 %
31.05.2016 22:47 13,5 C 91 % 1011,0 hPa 0,0 l/m 1,7 km/h (1 Bft) W-NW 301 0 min 0,000 mm 0,0 UV-I 0 W/m 12,1 C 13,5 C 3,2 km/h (1 Bft) 95,83 %
31.05.2016 22:48 13,5 C 91 % 1011,0 hPa 0,0 l/m 1,2 km/h (1 Bft) W-NW 301 0 min 0,000 mm 0,0 UV-I 0 W/m 12,1 C 13,5 C 3,2 km/h (1 Bft) 95,83 %
31.05.2016 22:49 13,4 C 91 % 1011,1 hPa 0,0 l/m 1,6 km/h (1 Bft) W-NW 301 0 min 0,000 mm 0,0 UV-I 0 W/m 12,0 C 13,4 C 3,2 km/h (1 Bft) 91,30 %
31.05.2016 22:50 13,4 C 91 % 1011,1 hPa 0,0 l/m 0,8 km/h (0 Bft) W-NW 301 0 min 0,000 mm 0,0 UV-I 0 W/m 12,0 C 13,4 C 1,6 km/h (1 Bft) 95,83 %
31.05.2016 22:51 13,4 C 91 % 1011,0 hPa 0,0 l/m 2,7 km/h (1 Bft) W 273 0 min 0,000 mm 0,0 UV-I 0 W/m 12,0 C 13,4 C 6,4 km/h (2 Bft) 100,00 %
31.05.2016 22:52 13,4 C 91 % 1011,1 hPa 0,0 l/m 1,5 km/h (1 Bft) W 273 0 min 0,000 mm 0,0 UV-I 0 W/m 12,0 C 13,4 C 3,2 km/h (1 Bft) 95,83 %
31.05.2016 22:53 13,4 C 91 % 1011,0 hPa 0,0 l/m 0,4 km/h (0 Bft) W 273 0 min 0,000 mm 0,0 UV-I 0 W/m 12,0 C 13,4 C 1,6 km/h (1 Bft) 95,65 %
31.05.2016 22:54 13,4 C 91 % 1011,0 hPa 0,0 l/m 0,9 km/h (0 Bft) W 273 0 min 0,000 mm 0,0 UV-I 0 W/m 12,0 C 13,4 C 3,2 km/h (1 Bft) 95,83 %
31.05.2016 22:55 13,4 C 91 % 1011,0 hPa 0,0 l/m 2,1 km/h (1 Bft) W 273 0 min 0,000 mm 0,0 UV-I 0 W/m 12,0 C 13,4 C 3,2 km/h (1 Bft) 100,00 %
31.05.2016 22:56 13,4 C 91 % 1011,0 hPa 0,0 l/m 1,9 km/h (1 Bft) W 275 0 min 0,000 mm 0,0 UV-I 0 W/m 12,0 C 13,4 C 3,2 km/h (1 Bft) 95,83 %
31.05.2016 22:57 13,4 C 91 % 1011,0 hPa 0,0 l/m 1,4 km/h (1 Bft) W 275 0 min 0,000 mm 0,0 UV-I 0 W/m 12,0 C 13,4 C 3,2 km/h (1 Bft) 91,30 %
31.05.2016 22:58 13,4 C 91 % 1011,0 hPa 0,0 l/m 2,0 km/h (1 Bft) W 275 0 min 0,000 mm 0,0 UV-I 0 W/m 12,0 C 13,4 C 3,2 km/h (1 Bft) 100,00 %
31.05.2016 22:59 13,4 C 91 % 1011,0 hPa 0,0 l/m 2,8 km/h (1 Bft) NW 314 0 min 0,000 mm 0,0 UV-I 0 W/m 12,0 C 13,4 C 4,8 km/h (1 Bft) 100,00 %
31.05.2016 23:00 13,4 C 91 % 1011,0 hPa 0,0 l/m 4,0 km/h (1 Bft) W-NW 287 0 min 0,000 mm 0,0 UV-I 0 W/m 12,0 C 13,4 C 6,4 km/h (2 Bft) 100,00 %
31.05.2016 23:02 13,3 C 91 % 1011,1 hPa 0,0 l/m 3,7 km/h (1 Bft) W 267 0 min 0,000 mm 0,0 UV-I 0 W/m 11,9 C 13,3 C 4,8 km/h (1 Bft) 100,00 %
31.05.2016 23:03 13,3 C 91 % 1011,1 hPa 0,0 l/m 4,3 km/h (1 Bft) W 279 0 min 0,000 mm 0,0 UV-I 0 W/m 11,9 C 13,3 C 4,8 km/h (1 Bft) 100,00 %
31.05.2016 23:04 13,3 C 91 % 1011,1 hPa 0,0 l/m 4,5 km/h (1 Bft) W 260 0 min 0,000 mm 0,0 UV-I 0 W/m 11,9 C 13,3 C 9,7 km/h (2 Bft) 95,83 %
31.05.2016 23:05 13,3 C 91 % 1011,1 hPa 0,0 l/m 2,6 km/h (1 Bft) W 261 0 min 0,000 mm 0,0 UV-I 0 W/m 11,9 C 13,3 C 3,2 km/h (1 Bft) 95,65 %
31.05.2016 23:06 13,3 C 90 % 1011,1 hPa 0,0 l/m 4,0 km/h (1 Bft) W-NW 284 0 min 0,000 mm 0,0 UV-I 0 W/m 11,7 C 13,3 C 9,7 km/h (2 Bft) 100,00 %
31.05.2016 23:07 13,3 C 90 % 1011,1 hPa 0,0 l/m 4,0 km/h (1 Bft) W 273 0 min 0,000 mm 0,0 UV-I 0 W/m 11,7 C 13,3 C 9,7 km/h (2 Bft) 100,00 %
31.05.2016 23:08 13,3 C 90 % 1011,1 hPa 0,0 l/m 3,7 km/h (1 Bft) W 275 0 min 0,000 mm 0,0 UV-I 0 W/m 11,7 C 13,3 C 4,8 km/h (1 Bft) 95,65 %
31.05.2016 23:09 13,3 C 90 % 1011,1 hPa 0,0 l/m 6,1 km/h (2 Bft) SW 234 0 min 0,000 mm 0,0 UV-I 0 W/m 11,7 C 13,3 C 11,3 km/h (2 Bft) 100,00 %
31.05.2016 23:10 13,3 C 90 % 1011,1 hPa 0,0 l/m 4,3 km/h (1 Bft) W 269 0 min 0,000 mm 0,0 UV-I 0 W/m 11,7 C 13,3 C 6,4 km/h (2 Bft) 100,00 %
31.05.2016 23:11 13,3 C 90 % 1011,1 hPa 0,0 l/m 1,8 km/h (1 Bft) W 278 0 min 0,000 mm 0,0 UV-I 0 W/m 11,7 C 13,3 C 4,8 km/h (1 Bft) 100,00 %
31.05.2016 23:12 13,3 C 90 % 1011,1 hPa 0,0 l/m 3,0 km/h (1 Bft) W 261 0 min 0,000 mm 0,0 UV-I 0 W/m 11,7 C 13,3 C 4,8 km/h (1 Bft) 100,00 %
31.05.2016 23:13 13,3 C 89 % 1011,1 hPa 0,0 l/m 3,9 km/h (1 Bft) W 263 0 min 0,000 mm 0,0 UV-I 0 W/m 11,5 C 13,3 C 4,8 km/h (1 Bft) 100,00 %
31.05.2016 23:14 13,3 C 89 % 1011,1 hPa 0,0 l/m 3,2 km/h (1 Bft) W 280 0 min 0,000 mm 0,0 UV-I 0 W/m 11,5 C 13,3 C 4,8 km/h (1 Bft) 100,00 %
31.05.2016 23:15 13,3 C 89 % 1011,1 hPa 0,0 l/m 2,1 km/h (1 Bft) W 280 0 min 0,000 mm 0,0 UV-I 0 W/m 11,5 C 13,3 C 3,2 km/h (1 Bft) 100,00 %
31.05.2016 23:16 13,3 C 90 % 1011,1 hPa 0,0 l/m 3,4 km/h (1 Bft) W 279 0 min 0,000 mm 0,0 UV-I 0 W/m 11,7 C 13,3 C 4,8 km/h (1 Bft) 100,00 %
31.05.2016 23:17 13,3 C 89 % 1011,1 hPa 0,0 l/m 4,9 km/h (1 Bft) W 279 0 min 0,000 mm 0,0 UV-I 0 W/m 11,5 C 13,3 C 9,7 km/h (2 Bft) 95,83 %
31.05.2016 23:18 13,3 C 89 % 1011,1 hPa 0,0 l/m 6,8 km/h (2 Bft) NW 311 0 min 0,000 mm 0,0 UV-I 0 W/m 11,5 C 13,1 C 11,3 km/h (2 Bft) 100,00 %
31.05.2016 23:19 13,3 C 89 % 1011,1 hPa 0,0 l/m 4,6 km/h (1 Bft) SW 225 0 min 0,000 mm 0,0 UV-I 0 W/m 11,5 C 13,3 C 9,7 km/h (2 Bft) 100,00 %
31.05.2016 23:20 13,3 C 89 % 1011,1 hPa 0,0 l/m 8,6 km/h (2 Bft) W 264 0 min 0,000 mm 0,0 UV-I 0 W/m 11,5 C 12,0 C 12,9 km/h (3 Bft) 100,00 %
31.05.2016 23:21 13,3 C 89 % 1011,1 hPa 0,0 l/m 3,9 km/h (1 Bft) W 273 0 min 0,000 mm 0,0 UV-I 0 W/m 11,5 C 13,3 C 9,7 km/h (2 Bft) 95,83 %
31.05.2016 23:22 13,3 C 89 % 1011,1 hPa 0,0 l/m 3,3 km/h (1 Bft) W-NW 290 0 min 0,000 mm 0,0 UV-I 0 W/m 11,5 C 13,3 C 4,8 km/h (1 Bft) 100,00 %
31.05.2016 23:23 13,3 C 90 % 1011,2 hPa 0,0 l/m 7,8 km/h (2 Bft) W 277 0 min 0,000 mm 0,0 UV-I 0 W/m 11,7 C 12,4 C 14,5 km/h (3 Bft) 95,83 %
31.05.2016 23:24 13,3 C 89 % 1011,2 hPa 0,0 l/m 4,2 km/h (1 Bft) W 269 0 min 0,000 mm 0,0 UV-I 0 W/m 11,5 C 13,3 C 6,4 km/h (2 Bft) 100,00 %
31.05.2016 23:25 13,3 C 89 % 1011,2 hPa 0,0 l/m 4,2 km/h (1 Bft) W-NW 295 0 min 0,000 mm 0,0 UV-I 0 W/m 11,5 C 13,3 C 6,4 km/h (2 Bft) 95,83 %
31.05.2016 23:26 13,2 C 89 % 1011,2 hPa 0,0 l/m 5,4 km/h (1 Bft) W 279 0 min 0,000 mm 0,0 UV-I 0 W/m 11,4 C 13,2 C 9,7 km/h (2 Bft) 100,00 %
31.05.2016 23:27 13,2 C 89 % 1011,2 hPa 0,0 l/m 2,9 km/h (1 Bft) W 276 0 min 0,000 mm 0,0 UV-I 0 W/m 11,4 C 13,2 C 3,2 km/h (1 Bft) 100,00 %
31.05.2016 23:28 13,2 C 89 % 1011,2 hPa 0,0 l/m 3,6 km/h (1 Bft) W-SW 244 0 min 0,000 mm 0,0 UV-I 0 W/m 11,4 C 13,2 C 4,8 km/h (1 Bft) 100,00 %
31.05.2016 23:29 13,2 C 90 % 1011,2 hPa 0,0 l/m 3,2 km/h (1 Bft) W-SW 244 0 min 0,000 mm 0,0 UV-I 0 W/m 11,6 C 13,2 C 4,8 km/h (1 Bft) 100,00 %
31.05.2016 23:30 13,2 C 90 % 1011,2 hPa 0,0 l/m 5,6 km/h (1 Bft) W-SW 254 0 min 0,000 mm 0,0 UV-I 0 W/m 11,6 C 13,2 C 8,0 km/h (2 Bft) 100,00 %
31.05.2016 23:31 13,2 C 90 % 1011,2 hPa 0,0 l/m 5,0 km/h (1 Bft) W-SW 250 0 min 0,000 mm 0,0 UV-I 0 W/m 11,6 C 13,2 C 6,4 km/h (2 Bft) 100,00 %
31.05.2016 23:32 13,2 C 90 % 1011,2 hPa 0,0 l/m 2,9 km/h (1 Bft) W-SW 250 0 min 0,000 mm 0,0 UV-I 0 W/m 11,6 C 13,2 C 4,8 km/h (1 Bft) 100,00 %
31.05.2016 23:33 13,2 C 90 % 1011,2 hPa 0,0 l/m 2,0 km/h (1 Bft) W-SW 250 0 min 0,000 mm 0,0 UV-I 0 W/m 11,6 C 13,2 C 3,2 km/h (1 Bft) 100,00 %
31.05.2016 23:34 13,2 C 90 % 1011,2 hPa 0,0 l/m 4,2 km/h (1 Bft) W-SW 251 0 min 0,000 mm 0,0 UV-I 0 W/m 11,6 C 13,2 C 6,4 km/h (2 Bft) 100,00 %
31.05.2016 23:35 13,1 C 90 % 1011,2 hPa 0,0 l/m 3,4 km/h (1 Bft) W-SW 254 0 min 0,000 mm 0,0 UV-I 0 W/m 11,5 C 13,1 C 6,4 km/h (2 Bft) 100,00 %
31.05.2016 23:36 13,1 C 90 % 1011,2 hPa 0,0 l/m 3,6 km/h (1 Bft) W-SW 254 0 min 0,000 mm 0,0 UV-I 0 W/m 11,5 C 13,1 C 4,8 km/h (1 Bft) 100,00 %
31.05.2016 23:37 13,1 C 91 % 1011,2 hPa 0,0 l/m 3,5 km/h (1 Bft) W-SW 257 0 min 0,000 mm 0,0 UV-I 0 W/m 11,7 C 13,1 C 6,4 km/h (2 Bft) 91,30 %
31.05.2016 23:38 13,1 C 91 % 1011,2 hPa 0,0 l/m 3,0 km/h (1 Bft) W-SW 257 0 min 0,000 mm 0,0 UV-I 0 W/m 11,7 C 13,1 C 4,8 km/h (1 Bft) 100,00 %
31.05.2016 23:39 13,1 C 91 % 1011,2 hPa 0,0 l/m 2,7 km/h (1 Bft) W-SW 257 0 min 0,000 mm 0,0 UV-I 0 W/m 11,7 C 13,1 C 4,8 km/h (1 Bft) 100,00 %
31.05.2016 23:40 13,1 C 91 % 1011,2 hPa 0,0 l/m 5,0 km/h (1 Bft) W-SW 239 0 min 0,000 mm 0,0 UV-I 0 W/m 11,7 C 13,1 C 8,0 km/h (2 Bft) 100,00 %
31.05.2016 23:41 13,0 C 91 % 1011,2 hPa 0,0 l/m 5,6 km/h (1 Bft) W 260 0 min 0,000 mm 0,0 UV-I 0 W/m 11,6 C 13,0 C 8,0 km/h (2 Bft) 100,00 %
31.05.2016 23:42 13,0 C 91 % 1011,2 hPa 0,0 l/m 7,0 km/h (2 Bft) W-SW 248 0 min 0,000 mm 0,0 UV-I 0 W/m 11,6 C 12,6 C 11,3 km/h (2 Bft) 100,00 %
31.05.2016 23:43 13,0 C 91 % 1011,2 hPa 0,0 l/m 5,0 km/h (1 Bft) W-SW 257 0 min 0,000 mm 0,0 UV-I 0 W/m 11,6 C 13,0 C 6,4 km/h (2 Bft) 95,65 %
31.05.2016 23:44 13,0 C 91 % 1011,2 hPa 0,0 l/m 4,1 km/h (1 Bft) W-SW 257 0 min 0,000 mm 0,0 UV-I 0 W/m 11,6 C 13,0 C 6,4 km/h (2 Bft) 100,00 %
31.05.2016 23:45 13,0 C 92 % 1011,2 hPa 0,0 l/m 4,8 km/h (1 Bft) W-SW 257 0 min 0,000 mm 0,0 UV-I 0 W/m 11,7 C 13,0 C 6,4 km/h (2 Bft) 100,00 %
31.05.2016 23:46 12,9 C 91 % 1011,2 hPa 0,0 l/m 5,1 km/h (1 Bft) W-SW 242 0 min 0,000 mm 0,0 UV-I 0 W/m 11,5 C 12,9 C 6,4 km/h (2 Bft) 100,00 %
31.05.2016 23:47 12,9 C 92 % 1011,2 hPa 0,0 l/m 5,4 km/h (1 Bft) W-SW 244 0 min 0,000 mm 0,0 UV-I 0 W/m 11,6 C 12,9 C 6,4 km/h (2 Bft) 100,00 %
31.05.2016 23:48 12,9 C 92 % 1011,2 hPa 0,0 l/m 4,8 km/h (1 Bft) W-SW 249 0 min 0,000 mm 0,0 UV-I 0 W/m 11,6 C 12,9 C 6,4 km/h (2 Bft) 100,00 %
31.05.2016 23:49 12,9 C 92 % 1011,2 hPa 0,0 l/m 4,3 km/h (1 Bft) W-SW 241 0 min 0,000 mm 0,0 UV-I 0 W/m 11,6 C 12,9 C 6,4 km/h (2 Bft) 100,00 %
31.05.2016 23:50 12,9 C 92 % 1011,2 hPa 0,0 l/m 4,4 km/h (1 Bft) W-SW 238 0 min 0,000 mm 0,0 UV-I 0 W/m 11,6 C 12,9 C 6,4 km/h (2 Bft) 95,65 %
31.05.2016 23:51 12,9 C 92 % 1011,2 hPa 0,0 l/m 6,9 km/h (2 Bft) W-SW 258 0 min 0,000 mm 0,0 UV-I 0 W/m 11,6 C 12,6 C 11,3 km/h (2 Bft) 100,00 %
31.05.2016 23:52 12,9 C 92 % 1011,2 hPa 0,0 l/m 6,6 km/h (2 Bft) W-SW 258 0 min 0,000 mm 0,0 UV-I 0 W/m 11,6 C 12,8 C 11,3 km/h (2 Bft) 100,00 %
31.05.2016 23:53 12,8 C 92 % 1011,2 hPa 0,0 l/m 5,7 km/h (1 Bft) W-SW 258 0 min 0,000 mm 0,0 UV-I 0 W/m 11,5 C 12,8 C 8,0 km/h (2 Bft) 100,00 %
31.05.2016 23:54 12,8 C 92 % 1011,2 hPa 0,0 l/m 4,7 km/h (1 Bft) W 259 0 min 0,000 mm 0,0 UV-I 0 W/m 11,5 C 12,8 C 6,4 km/h (2 Bft) 100,00 %
31.05.2016 23:55 12,8 C 92 % 1011,2 hPa 0,0 l/m 4,4 km/h (1 Bft) W-SW 253 0 min 0,000 mm 0,0 UV-I 0 W/m 11,5 C 12,8 C 6,4 km/h (2 Bft) 100,00 %
31.05.2016 23:56 12,8 C 92 % 1011,2 hPa 0,0 l/m 4,1 km/h (1 Bft) W 260 0 min 0,000 mm 0,0 UV-I 0 W/m 11,5 C 12,8 C 4,8 km/h (1 Bft) 100,00 %
31.05.2016 23:57 12,8 C 92 % 1011,2 hPa 0,0 l/m 4,8 km/h (1 Bft) W-SW 238 0 min 0,000 mm 0,0 UV-I 0 W/m 11,5 C 12,8 C 6,4 km/h (2 Bft) 95,83 %
31.05.2016 23:58 12,8 C 92 % 1011,2 hPa 0,0 l/m 3,6 km/h (1 Bft) W-SW 249 0 min 0,000 mm 0,0 UV-I 0 W/m 11,5 C 12,8 C 6,4 km/h (2 Bft) 100,00 %
31.05.2016 23:59 12,8 C 92 % 1011,3 hPa 0,0 l/m 4,0 km/h (1 Bft) W-SW 240 0 min 0,000 mm 0,0 UV-I 0 W/m 11,5 C 12,8 C 4,8 km/h (1 Bft) 100,00 %
_ Min-Zeit 23:53 15:41 03:34 - 22:13 - - - - - - 23:26 00:34 22:13 00:54
Minimum _ 12,8 C 74 % 1008,1 hPa - 0,0 km/h (0 Bft) - - - - - - 11,4 C 10,3 C 0,0 km/h (0 Bft) 78,57 %
_ Max-Zeit 13:45 03:28 23:59 00:00 13:45 - - 13:02 14:02 13:00 13:40 13:12 13:24 14:05 00:00
Maximum _ 17,9 C 96 % 1011,3 hPa 0,2 l/m 22,7 km/h
W-SW (4 Bft)
- - 2 min 0,482 mm 7,9 UV-I 1254 W/m 15,0 C 16,9 C 33,8 km/h
SW (5 Bft)
100,00 %
Durchschnitt _ 14,7 C 89 % 1009,7 hPa #17,2 l/m 8,9 km/h (2 Bft) W-SW - #1:56 h #2,311 mm 2,4 UV-I 248 W/m 12,8 C 13,3 C 13,1 km/h (3 Bft) 98,26 %